     2.10           OBSERVATION DATA    G (GPS)             RINEX VERSION / TYPE
teqc 2002Mar14 SOPAC 20050725 21:25:20UTC                   PGM / RUN BY / DATE
Linux 2.0.36|Pentium II|gcc -static|Linux|486/DX+           COMMENT
BIT 2 OF LLI FLAGS DATA COLLECTED UNDER A/S CONDITION       COMMENT
Musty                                                       MARKER NAME
MUST                                                        MARKER NUMBER
Dick Roper                                                  OBSERVER / AGENCY
0220158629 TRIMBLE 4700                                     REC # / TYPE / VERS
0220159582 TRM33429.00+GP NONE                              ANT # / TYPE
 -2577476.0000 -4172789.0000  4064578.0000                  APPROX POSITION XYZ
        2.0000        0.0000        0.0000                  ANTENNA: DELTA H/E/N
     1     1                                                WAVELENGTH FACT L1/2
     6    L1    L2    C1    P2    P1    D1                  # / TYPES OF OBSERV
    15.0000                                                 INTERVAL
Northern California Height Modernization 2004               COMMENT
                                                            COMMENT
SOPAC - Scripps Orbit and Permanent Array Center            COMMENT
IGPP - Institute of Geophysics and Planetary Physics        COMMENT
SIO - Scripps Institution of Oceanography                   COMMENT
UCSD - University of California, San Diego                  COMMENT
                                                            COMMENT
email: archive@gpsmail.ucsd.edu                             COMMENT
ftp://garner.ucsd.edu                                       COMMENT
http://sopac.ucsd.edu                                       COMMENT
                                                            COMMENT
                                                            COMMENT
Approximate Lat, Lon : 39.838, -121.703                     COMMENT
                                                            COMMENT
SNR is mapped to RINEX snr flag value [1-9]                 COMMENT
L1: 3 -> 1; 8 -> 5; 40 -> 9                                 COMMENT
L2: 1 -> 1; 5 -> 5; 60 -> 9                                 COMMENT
  2004     9     2    20    45   15.0000000     GPS         TIME OF FIRST OBS
                                                            END OF HEADER
 04  9  2 20 45 15.0000000  0  6G 1G13G16G20G23G27
     66639.84159     29209.18757  23004406.2194   23004405.1524
     -3712.1724
     -1270.87159     -4940.71858  20760143.1644   20760138.8714
        69.7344
     64510.68159     28884.86957  22758054.3444   22758050.6604
     -3677.5004
     89001.22659     38981.46157  23145404.2814   23145402.7624
     -4797.0624
     42443.89759     17658.20558  20724243.3364   20724237.0664
     -2393.0314
    -10754.16559     -9767.13558  22450763.2344   22450759.9774
       596.9844
 04  9  2 20 45 30.0000000  0  8G 1G 3G 8G13G16G20G23G27
    122310.24549     72588.69447  23015000.4064   23014998.3794
     -3710.7344
    -31828.32359    -25105.74757  24074354.8444   24074353.1334
       977.0784
    -55871.08959    -39885.85957  24471042.6724   24471042.6174
      1717.6254
     -2319.73449     -5758.01648  20759943.2584   20759939.1994
        69.9224
    119683.03249     71876.30047  22768553.0314   22768549.7704
     -3679.0164
    160941.39249     95038.67047  23159094.7344   23159092.3874
     -4795.1874
     78345.03249     45633.10848  20731075.0164   20731069.0984
     -2393.9844
    -19726.77549    -16758.77048  22449055.6174   22449052.9064
       599.2034
 04  9  2 20 45 45.0000000  0  8G 1G 3G 8G13G16G20G23G27
    177974.81149    115963.65047  23025592.4774   23025591.1644
     -3711.5164
    -46476.01949    -36519.50447  24071567.3834   24071565.8834
       975.6564
    -81644.99449    -59969.37346  24466138.6564   24466138.6134
      1718.6094
     -3354.68049     -6564.45248  20759746.7114   20759742.5354
        67.7814
    174894.13549    114897.91347  22779059.0784   22779056.1294
     -3682.7814
    232868.74849    151085.90647  23172781.7814   23172780.2814
     -4795.4534
    114277.51349     73632.43848  20737912.9694   20737906.5084
     -2397.2344
    -28715.98149    -23763.33148  22447344.9844   22447342.5944
       599.1094
 04  9  2 20 46  0.0000000  0  8G 1G 3G 8G13G16G20G23G27
    233655.96849    159351.53347  23036188.2424   23036187.3634
     -3713.1094
    -61095.53149    -47911.31847  24068784.8524   24068784.5474
       973.1414
   -107428.44949    -80060.33846  24461231.5864   24461231.7934
      1718.7504
     -4353.03749     -7342.39448  20759556.7424   20759552.5164
        64.7814
    230166.02449    157966.91347  22789577.3134   22789573.8134
     -3687.3914
    304805.45949    207140.41947  23186471.2114   23186469.3914
     -4796.5944
    150263.92349    101673.78748  20744760.6564   20744754.0354
     -2401.3914
    -37699.25349    -30763.25848  22445635.8444   22445632.8754
       598.1414
 04  9  2 20 46 15.0010000  0  8G 1G 3G 8G13G16G20G23G27
    289376.55549    202770.13847  23046792.2314   23046790.5174
     -3716.4064
    -75668.42449    -59266.76347  24066011.6694   24066012.0714
       969.1254
   -133204.07749   -100145.23447  24456328.0054   24456326.6774
      1717.1724
     -5295.67149     -8076.92048  20759377.2784   20759373.3564
        60.1724
    285521.31449    201100.88447  22800111.2714   22800107.1384
     -3693.5474
    376775.16749    263220.67247  23200166.2784   23200165.0674
     -4799.3444
    186325.74049    129773.88248  20751623.0754   20751616.6344
     -2407.1254
    -46658.23449    -37744.27348  22443930.8254   22443928.5284
       595.7034
 04  9  2 20 46 30.0010000  0  8G 1G 3G 8G13G16G20G23G27
    345150.86349    246230.59747  23057406.0214   23057404.3964
     -3720.4224
    -90170.51049    -70567.07447  24063252.5914   24063251.5364
       964.1724
   -158946.66849   -120204.36046  24451428.5364   24451427.2984
      1714.9694
     -6160.36249     -8750.69448  20759212.4114   20759208.0914
        54.8754
    340974.11649    244310.83847  22810663.6224   22810659.4354
     -3700.4534
    448789.70149    319335.82547  23213871.0134   23213869.0754
     -4802.8754
    222479.91349    157945.96148  20758503.1464   20758496.9154
     -2413.7344
    -55569.83949    -44688.37048  22442234.7244   22442232.3374
       592.2814
 04  9  2 20 46 45.0010000  0  8G 1G 3G 8G13G16G20G23G27
    400995.11649    289745.56947  23068031.8024   23068030.9894
     -3725.3594
   -104589.86949    -81802.89347  24060508.3804   24060507.4074
       958.3914
   -184645.41649   -140229.32046  24446538.6694   24446537.5014
      1711.6414
     -6934.54549     -9353.95148  20759065.1064   20759060.8334
        48.4064
    396540.19349    287609.06847  22821237.2164   22821233.9814
     -3708.3594
    520865.98349    375499.09547  23227586.0214   23227584.6534
     -4807.2974
    258741.42449    186201.68148  20765403.2864   20765397.0874
     -2421.2034
    -64422.30349    -51586.36848  22440550.7084   22440547.9074
       588.0784
 04  9  2 20 47  0.0010000  0  8G 1G 3G 8G13G16G20G23G27
    456924.17649    333326.60747  23078674.7554   23078674.2824
     -3731.5944
   -118911.16049    -92962.31947  24057782.8414   24057781.9974
       951.3134
   -210285.21049   -160208.36247  24441658.7784   24441658.7784
      1707.1564
     -7603.07749     -9874.88448  20758938.0364   20758934.0914
        40.8444
    452234.17549    331006.96047  22831835.4814   22831832.2284
     -3717.4534
    593018.70749    431721.94247  23241316.4894   23241315.3104
     -4812.8444
    295125.22849    214552.67748  20772327.1534   20772320.9624
     -2429.8594
    -73200.59649    -58426.58748  22438879.8494   22438876.9504
       582.5474
 04  9  2 20 47 15.0010000  0  8G 1G 3G 8G13G16G20G23G27
    512945.01249    376979.17347  23089335.1224   23089334.4624
     -3737.8124
   -133127.04749   -104039.58547  24055077.9744   24055077.3724
       944.1254
   -235859.07449   -180135.98047  24436792.7394   24436792.0214
      1702.6254
     -8158.67749    -10307.79848  20758831.9744   20758828.2824
        33.2344
    508062.76749    374509.74447  22842459.3254   22842455.8414
     -3726.4694
    665254.38449    488009.44047  23255062.0674   23255061.1264
     -4818.5004
    331638.49749    243004.57848  20779274.9114   20779269.0524
     -2438.5784
    -81897.73749    -65203.55948  22437225.1694   22437222.2044
       577.0944
 04  9  2 20 47 30.0010000  0  8G 1G 3G 8G13G16G20G23G27
    569059.00349    420704.32647  23100013.4744   23100012.5444
     -3744.3444
   -147235.74649   -115033.35847  24052392.6614   24052392.0834
       936.6414
   -261365.50149   -200011.12247  24431938.4194   24431938.6964
      1697.8594
     -8599.71549    -10651.47248  20758748.3804   20758744.4894
        25.2344
    564027.13349    418118.32847  22853109.4584   22853105.3454
     -3735.8124
    737574.22549    544362.49347  23268824.7554   23268822.5364
     -4824.4374
    368282.56749    271558.39148  20786248.4354   20786241.9234
     -2447.6874
    -90512.37249    -71916.25848  22435585.7314   22435582.6814
       571.2034
 04  9  2 20 47 45.0010000  0  8G 1G 3G 8G13G16G20G23G27
    625271.46749    464506.24147  23110710.1924   23110709.1424
     -3750.5164
   -161231.56349   -125939.09047  24049729.3334   24049729.2394
       929.4844
   -286799.10949   -219829.45846  24427098.4584   24427098.2554
      1693.4534
     -8920.78349    -10901.65648  20758686.9584   20758682.9854
        17.7034
    620132.41949    461836.73747  22863785.2944   22863782.5214
     -3744.7664
    809983.18449    600785.02247  23282603.1694   23282602.2314
     -4829.9844
    405062.83249    300218.31848  20793247.0054   20793241.0674
     -2456.2344
    -99039.17149    -78560.48248  22433962.9814   22433959.9114
       565.7974
 04  9  2 20 48  0.0010000  0  8G 1G 3G 8G13G16G20G23G27
    681578.49649    508381.78447  23121425.5914   23121424.5284
     -3756.9064
   -175117.97349   -136759.66447  24047086.4584   24047086.5674
       922.0634
   -312163.56649   -239593.92846  24422272.5364   24422271.3454
      1688.6254
     -9125.32249    -11061.03448  20758648.5444   20758644.0564
         9.7504
    676374.40249    505661.63447  22874487.7474   22874484.3844
     -3754.0164
    882477.12449    657273.74847  23296398.7164   23296397.5404
     -4835.7344
    441975.43049    328981.37348  20800271.6304   20800265.7354
     -2465.2814
   -107481.93749    -85139.25748  22432356.3024   22432353.0174
       560.0164
 04  9  2 20 48 15.0010000  0  8G 1G 3G 8G13G16G20G23G27
    737983.75849    552333.90347  23132158.8644   23132157.5444
     -3763.4844
   -188890.83049   -147491.73247  24044465.9354   24044465.5404
       914.5004
   -337455.15449   -259301.65347  24417459.2004   24417458.4464
      1683.7664
     -9209.50849    -11126.63448  20758632.2944   20758628.1814
         1.7194
    732756.47649    549595.69647  22885217.3254   22885213.3684
     -3763.3914
    955059.31949    713831.21947  23310210.8104   23310209.3534
     -4841.6254
    479024.03249    357850.40348  20807321.5054   20807315.7824
     -2474.3594
   -115837.03749    -91649.71448  22430766.6064   22430763.2674
       554.2194
 04  9  2 20 48 30.0010000  0  8G 1G 3G 8G13G16G20G23G27
    794482.22949    596358.65647  23142911.0284   23142909.2514
     -3769.1414
   -202554.66249   -158138.86647  24041866.3644   24041865.2984
       907.7504
   -362678.91149   -278956.46647  24412660.1304   24412659.0954
      1679.6724
     -9178.45949    -11102.42548  20758637.7554   20758633.9744
        -5.4374
    789273.27449    593634.74647  22895971.9114   22895968.4234
     -3771.7974
   1027724.52849    770453.40447  23324038.8884   23324036.9114
     -4846.6254
    516203.83649    386821.68348  20814396.6304   20814390.8534
     -2482.5784
   -124109.43249    -98095.70948  22429192.3964   22429189.3564
       549.2504
 04  9  2 20 48 45.0010000  0  8G 1G 3G 8G13G16G20G23G27
    851069.70649    640452.74647  23153678.4664   23153677.2634
     -3775.2344
   -216113.41749   -168704.05247  24039285.4584   24039284.7554
       900.5944
   -387839.03149   -298561.70246  24407871.7784   24407870.8454
      1675.4534
     -9035.75149    -10991.22248  20758665.3414   20758661.1144
       -13.0314
    845920.46149    637775.38947  22906751.9744   22906748.5244
     -3780.6094
   1100468.16949    827136.71447  23337881.5054   23337879.5754
     -4851.9694
    553510.66949    415891.93448  20821496.2084   20821489.7434
     -2491.0944
   -132303.30249   -104480.52648  22427632.9274   22427629.8104
       543.8134
 04  9  2 20 49  0.0010000  0  8G 1G 3G 8G13G16G20G23G27
    907742.01249    684612.96747  23164462.9194   23164461.9464
     -3781.1724
   -229570.72749   -179190.25647  24036724.9354   24036724.7394
       893.5164
   -412939.08449   -318120.13647  24403095.7634   24403094.8604
      1671.0004
     -8785.37049    -10796.11548  20758712.9114   20758708.9854
       -20.5474
    902693.58149    682014.18147  22917555.1464   22917552.0174
     -3789.2814
   1173285.87949    883877.72347  23351738.2474   23351736.6814
     -4857.1724
    590940.53849    445058.04848  20828618.6694   20828612.6034
     -2499.6094
   -140422.77749   -110807.36748  22426087.8804   22426085.2244
       538.6094
 04  9  2 20 49 15.0010000  0  8G 1G 3G 8G13G16G20G23G27
    964502.56649    728841.91947  23175263.9194   23175262.6034
     -3786.9844
   -242922.93649   -189594.51647  24034183.6694   24034183.5054
       886.5164
   -437975.98449   -337629.37947  24398330.7784   24398329.8924
      1666.9384
     -8423.77549    -10514.34748  20758781.9034   20758777.6574
       -27.8594
    959595.69449    726353.46747  22928383.5994   22928379.6104
     -3797.8124
   1246180.70849    940678.83047  23365609.0214   23365608.0244
     -4862.2974
    628496.68249    474322.57448  20835765.2714   20835759.3844
     -2507.9844
   -148464.42849   -117073.57248  22424557.6534   22424554.8414
       533.4844
 04  9  2 20 49 30.0010000  0  8G 1G 3G 8G13G16G20G23G27
   1021348.10849    773137.10447  23186080.7084   23186080.6264
     -3792.3444
   -256172.76949   -199919.03047  24031661.9894   24031661.8844
       880.0474
   -462952.76849   -357091.76046  24393578.0994   24393577.1464
      1663.2974
     -7953.97349    -10148.26348  20758871.4354   20758867.1464
       -34.7194
   1016623.33949    770790.59247  22939235.2244   22939231.8454
     -3805.8754
   1319149.07649    997537.23347  23379495.1534   23379493.6614
     -4866.7664
    666175.93249    503683.01948  20842935.7784   20842929.6224
     -2515.8444
   -156431.48349   -123281.65148  22423041.3104   22423038.6734
       528.8754
 04  9  2 20 49 45.0010000  0  8G 1G 3G 8G13G16G20G23G27
   1078269.09749    817491.09447  23196913.4194   23196911.9504
     -3797.5164
   -269329.31849   -210170.86147  24029159.2714   24029158.2164
       873.7194
   -487878.79449   -376514.58146  24388834.3104   24388833.3964
      1659.7664
     -7385.18849     -9705.04648  20758979.4354   20758974.8414
       -41.5474
   1073766.67649    815317.84647  22950109.4974   22950106.3134
     -3813.6874
   1392181.15549   1054445.30247  23393392.1144   23393391.1224
     -4871.2344
    703968.98549    533132.14948  20850127.5524   20850121.5134
     -2523.6724
   -164333.43549   -129438.99448  22421537.8414   22421535.5674
       524.2194
 04  9  2 20 50  0.0010000  0  8G 1G 3G 8G13G16G20G23G27
   1135263.35949    861902.16347  23207759.2164   23207757.4154
     -3801.9064
   -282394.46749   -220351.47047  24026672.5604   24026671.7674
       868.1724
   -512756.33049   -395899.64547  24384099.6224   24384099.6614
      1657.0944
     -6719.39049     -9186.23748  20759106.2554   20759102.2204
       -47.3594
   1131023.30549    859933.38947  22961005.0054   22961001.6104
     -3820.6254
   1465274.43949   1111401.02247  23407301.5994   23407300.0954
     -4874.6094
    741873.51249    562668.14048  20857340.9034   20857334.2314
     -2530.4224
   -172172.46449   -135547.30248  22420045.9814   22420043.7634
       520.7504
 04  9  2 20 50 15.0010000  0  8G 1G 3G 8G13G16G20G23G27
   1192335.57149    906373.98147  23218619.7554   23218618.4584
     -3807.0474
   -295363.12249   -230456.89547  24024205.1924   24024203.9154
       861.6884
   -537580.31149   -415242.93847  24379376.3724   24379375.3994
      1653.4384
     -5951.78349     -8588.10848  20759252.3964   20759247.9974
       -54.2664
   1188397.57649    904640.59747  22971922.8884   22971919.6104
     -3828.5624
   1538433.35349   1168407.92247  23421223.1694   23421222.0564
     -4879.2034
    779894.33649    592294.74648  20864575.4894   20864569.3604
     -2538.2504
   -179943.86449   -141602.91948  22418566.8644   22418564.3134
       516.0784
 04  9  2 20 50 30.0010000  0  8G 1G 3G 8G13G16G20G23G27
   1249478.59449    950900.97347  23229493.2004   23229492.0634
     -3812.1094
   -308241.90749   -240492.27247  24021754.2714   24021752.6774
       855.3284
   -562357.89649   -434550.10647  24374661.5444   24374660.9814
      1650.0004
     -5089.12849     -7915.89148  20759416.3254   20759412.5524
       -60.9534
   1245882.08549    949433.69447  22982861.7784   22982858.1224
     -3836.1874
   1611650.51149   1225460.17947  23435155.8024   23435154.9784
     -4883.2814
    818024.51449    622006.55848  20871831.3724   20871825.1884
     -2545.9224
   -187654.78449   -147611.41448  22417099.5914   22417097.1494
       511.9064
 04  9  2 20 50 45.0010000  0  8G 1G 3G 8G13G16G20G23G27
   1306692.48849    995483.18647  23240380.1534   23240379.6814
     -3816.7664
   -321030.39849   -250457.31047  24019320.2944   24019319.9074
       849.4064
   -587089.02749   -453821.04647  24369955.8104   24369954.2864
      1647.0784
     -4131.12849     -7169.39548  20759598.4504   20759594.8414
       -67.2194
   1303476.63149    994312.55547  22993821.7164   22993818.1144
     -3843.4374
   1684925.55049   1282557.54847  23449100.0134   23449098.5134
     -4887.0314
    856264.04549    651803.59048  20879108.2714   20879102.0834
     -2553.0624
   -195305.10349   -153572.68548  22415644.1534   22415640.8134
       507.8594
 04  9  2 20 51  0.0010000  0  8G 1G 3G 8G13G16G20G23G27
   1363975.09749   1040118.94947  23251281.2864   23251280.1814
     -3821.3124
   -333730.28449   -260353.28147  24016904.3174   24016902.8924
       843.5004
   -611775.70149   -473057.40846  24365257.0284   24365256.6224
      1644.0944
     -3079.77549     -6350.15448  20759798.9424   20759794.7824
       -73.3914
   1361178.89649   1039275.35347  23004802.1224   23004798.4854
     -3850.5624
   1758256.12049   1339698.18347  23463054.2394   23463053.5634
     -4890.7974
    894610.89349    681684.24048  20886405.2004   20886399.2204
     -2560.2504
   -202896.93249   -159488.38748  22414199.3804   22414196.0284
       503.9694
 04  9  2 20 51 15.0010000  0  8G 1G 3G 8G13G16G20G23G27
   1421329.44149   1084810.60047  23262196.0524   23262194.3134
     -3826.4224
   -346338.29349   -270177.67847  24014504.2474   24014503.8294
       837.1414
   -636414.71849   -492256.58747  24360568.3104   24360567.7244
      1640.5944
     -1931.76749     -5455.60148  20760017.0364   20760012.9974
       -80.1094
   1418991.55049   1084324.13047  23015803.6064   23015800.0014
     -3858.2034
   1831644.83849   1396884.12947  23477020.0834   23477018.2554
     -4894.8594
    933067.99649    711650.81348  20893723.4974   20893717.4354
     -2567.8284
   -210427.19749   -165356.11648  22412766.3254   22412763.5794
       499.5474
 04  9  2 20 51 30.0010000  0  8G 1G 3G 8G13G16G20G23G27
   1478749.78349   1129553.68747  23273122.2864   23273121.2744
     -3830.2194
   -358859.55249   -279934.47747  24012121.8024   24012121.4034
       831.6884
   -661011.73749   -511423.04847  24355888.4504   24355887.1494
      1638.4694
      -692.65749     -4490.04848  20760252.7554   20760248.6534
       -85.7504
   1476908.58649   1129454.27147  23026824.9194   23026821.1264
     -3864.7344
   1905085.79449   1454110.79747  23490995.0834   23490994.0134
     -4897.8284
    971629.82149    741698.98948  20901061.8644   20901055.4814
     -2574.3594
   -217901.67449   -171180.37648  22411343.8024   22411340.7084
       496.4064
 04  9  2 20 51 45.0010000  0  8G 1G 3G 8G13G16G20G23G27
   1536232.64149   1174345.48247  23284060.8564   23284059.6734
     -3833.9534
   -371297.17249   -289626.09847  24009754.2004   24009754.2554
       826.7194
   -685570.05549   -530559.37447  24351214.7554   24351213.8134
      1636.2194
       634.41849     -3455.96748  20760505.6464   20760501.3844
       -91.1094
   1534926.25349   1174662.83347  23037865.4354   23037861.6224
     -3870.8284
   1978575.16949   1511375.18647  23504980.0054   23504978.1614
     -4900.5624
   1010292.98549    771826.11048  20908418.9354   20908413.0244
     -2580.5944
   -225323.73349   -176963.77948  22409932.0674   22409928.9974
       493.4224
 04  9  2 20 52  0.0010000  0  8G 1G 3G 8G13G16G20G23G27
   1593779.75849   1219187.35247  23295012.3564   23295011.1224
     -3838.9374
   -383649.08249   -299250.93447  24007404.2784   24007403.7164
       820.3594
   -710087.92349   -549664.10847  24346549.2864   24346548.6654
      1632.8444
      2051.30049     -2351.88848  20760774.8104   20760771.2634
       -97.7664
   1593046.04249   1219950.96847  23048925.1614   23048921.3374
     -3878.2504
   2052114.42349   1568678.42447  23518974.1224   23518972.4934
     -4904.4844
   1049059.08249    802033.45648  20915795.9274   20915789.6694
     -2588.1564
   -232691.72549   -182705.05248  22408529.4354   22408527.1144
       489.0944
 04  9  2 20 52 15.0010000  0  8G 1G 3G 8G13G16G20G23G27
   1651393.53349   1264081.17947  23305975.8104   23305974.6034
     -3842.7974
   -395912.37249   -308806.71247  24005070.8724   24005070.1144
       814.9384
   -734562.95149   -568735.50147  24341891.4814   24341890.7714
      1630.6254
      3560.66849     -1175.76248  20761062.3414   20761058.7674
      -103.3284
   1651270.13749   1265320.37647  23060004.9504   23060001.2204
     -3884.7034
   2125705.68849   1626022.21147  23532977.7864   23532976.4894
     -4907.4534
   1087930.74749    832323.04648  20923193.1694   20923186.7824
     -2594.6254
   -240003.16849   -188402.25548  22407138.2864   22407135.4664
       485.9064
 04  9  2 20 52 30.0010000  0  8G 1G 3G 8G13G16G20G23G27
   1709067.14749   1309021.60347  23316950.5134   23316949.4504
     -3846.8444
   -408093.55449   -318298.51547  24002752.7004   24002751.6064
       809.3594
   -759001.91349   -587778.81847  24337240.7394   24337240.3844
      1628.0634
      5155.99049        67.35548  20761365.6924   20761361.4314
      -109.2194
   1709591.45649   1310765.52447  23071103.4354   23071098.8924
     -3891.2504
   2199341.74349   1683400.88347  23546991.0284   23546989.2904
     -4910.5004
   1126901.12749    862689.57548  20930608.7314   20930602.6494
     -2601.2974
   -247264.78349   -194060.66248  22405756.5134   22405753.9664
       482.4694
 04  9  2 20 52 45.0010000  0  8G 1G 3G 8G13G16G20G23G27
   1766802.48049   1354010.13747  23327937.5214   23327936.2004
     -3851.1564
   -420190.28649   -327724.52347  24000450.9194   24000449.8994
       803.5004
   -783402.51149   -606792.23447  24332597.2244   24332596.5714
      1625.3134
      6839.41149      1379.12548  20761686.3964   20761682.5134
      -115.2664
   1768011.60449   1356287.71247  23082219.7634   23082216.7784
     -3898.0474
   2273024.24449   1740815.76947  23561011.9974   23561011.1734
     -4913.7974
   1165972.26549    893134.60848  20938043.5994   20938037.3644
     -2608.1874
   -254474.76749   -199678.80848  22404383.9034   22404380.8064
       478.8444
 04  9  2 20 53  0.0010000  0  8G 1G 3G 8G13G16G20G23G27
   1824599.58449   1399046.81247  23338935.7084   23338934.3414
     -3855.3284
   -432201.99149   -337084.25147  23998164.7714   23998164.3174
       797.7814
   -807764.53549   -625775.53647  24327961.2944   24327960.6534
      1622.7344
      8611.22749      2759.76548  20762023.2944   20762019.3254
      -121.2034
   1826530.36549   1401886.72247  23093356.0214   23093352.7314
     -3904.6414
   2346752.97449   1798266.66247  23575042.1064   23575040.2744
     -4916.9374
   1205144.30049    923658.27248  20945498.0754   20945491.7514
     -2614.9844
   -261632.92049   -205256.58548  22403021.9584   22403019.2044
       475.3914
 04  9  2 20 53 15.0010000  0  8G 1G 3G 8G13G16G20G23G27
   1882451.61249   1444126.26647  23349945.2714   23349943.6224
     -3858.7974
   -444135.11849   -346382.73447  23995894.0054   23995893.7634
       792.7194
   -832094.85749   -644734.19547  24323332.1924   24323330.6734
      1620.8444
     10464.76749      4204.08248  20762376.1694   20762372.1424
      -126.5314
   1885140.62949   1447557.05047  23104508.7784   23104505.4894
     -3910.5624
   2420520.87849   1855748.10247  23589079.5914   23589078.1494
     -4919.2974
   1244410.38349    954255.19848  20952970.0444   20952964.3684
     -2621.0944
   -268746.06349   -210799.27148  22401668.1854   22401665.5134
       472.5474
 04  9  2 20 53 30.0010000  0  8G 1G 3G 8G13G16G20G23G27
   1940365.43149   1489253.88047  23360965.2164   23360964.7744
     -3862.7974
   -455982.45849   -355614.40747  23993639.5364   23993640.1694
       787.0474
   -856386.60349   -663662.77747  24318709.8174   24318708.5404
      1618.2344
     12407.22049      5717.68148  20762745.5604   20762741.7864
      -132.3444
   1943849.04349   1493303.83547  23115680.7944   23115677.2474
     -3917.1254
   2494334.42249   1913265.09147  23603125.8964   23603124.3174
     -4922.2814
   1283777.49049    984930.86248  20960461.3414   20960455.0564
     -2627.7664
   -275807.25849   -216301.48248  22400324.4274   22400322.0284
       469.0784
 04  9  2 20 53 45.0010000  0  8G 1G 3G 8G13G16G20G23G27
   1998339.13049   1534428.14247  23371997.6694   23371996.3884
     -3866.9224
   -467745.46049   -364780.35547  23991401.0214   23991400.9894
       781.4534
   -880641.41349   -682562.61047  24314093.3414   24314092.4584
      1615.7194
     14436.97949      7299.32248  20763132.0674   20763128.1884
      -138.2034
   2002653.56849   1539125.53147  23126870.8334   23126867.7594
     -3923.5164
   2568191.50549   1970815.98747  23617180.3644   23617179.3064
     -4925.1564
   1323243.79949   1015683.82548  20967971.7554   20967965.4234
     -2634.3914
   -282818.42849   -221764.73548  22398990.6534   22398987.6884
       465.7814
 04  9  2 20 54  0.0010000  0  8G 1G 3G 8G13G16G20G23G27
   2056371.81749   1579648.39847  23383040.7394   23383040.1034
     -3870.4224
   -479424.55549   -373880.91047  23989178.5604   23989177.8604
       776.1564
   -904860.13649   -701434.30947  24309485.5054   24309484.1224
      1613.7344
     16553.32049      8948.43048  20763534.7634   20763530.8294
      -143.5944
   2061552.93249   1585021.11747  23138078.9424   23138075.7904
     -3929.3914
   2642090.81449   2028399.79047  23631242.7084   23631242.7744
     -4927.5164
   1362808.51949   1046513.46548  20975501.1224   20975494.5834
     -2640.5314
   -289780.33149   -227189.57548  22397665.5284   22397663.1694
       462.8914
 04  9  2 20 54 15.0010000  0  8G 1G 3G 8G13G16G20G23G27
   2114458.19749   1624910.46647  23394094.5754   23394093.0524
     -3873.8914
   -491024.80849   -382920.04747  23986971.0444   23986970.9074
       771.0944
   -929047.73349   -720281.71147  24304882.4814   24304880.7434
      1611.8444
     18751.21249     10661.08048  20763953.0444   20763948.6654
      -148.9064
   2120541.46949   1630986.18947  23149303.7004   23149300.8534
     -3935.2034
   2716026.79149   2086012.19347  23645313.1384   23645311.5284
     -4929.8914
   1402466.36849   1077415.68048  20983047.0364   20983041.0094
     -2646.6094
   -296698.34349   -232580.20948  22396349.2084   22396346.6964
       460.1094
 04  9  2 20 54 30.0010000  0  8G 1G 3G 8G13G16G20G23G27
   2172597.97549   1670214.16447  23405157.4274   23405156.7824
     -3877.6874
   -502546.00649   -391897.56847  23984778.8174   23984777.9194
       765.4694
   -953204.69249   -739105.26747  24300285.3174   24300283.9504
      1609.5634
     21030.59549     12437.22048  20764386.5604   20764382.6694
      -154.5784
   2179618.75349   1677020.41547  23160546.3104   23160542.4894
     -3941.3754
   2789998.85349   2143652.68647  23659389.5444   23659388.5954
     -4932.5944
   1442217.02649   1108390.19948  20990611.4584   20990605.1384
     -2653.0624
   -303572.74049   -237936.87448  22395040.9974   22395037.8884
       457.0004
 04  9  2 20 54 45.0010000  0  8G 1G 3G 8G13G16G20G23G27
   2230796.63249   1715563.70547  23416232.2244   23416231.9934
     -3882.0164
   -513982.27449   -400808.89547  23982602.7164   23982602.1654
       759.3914
   -977325.45749   -757900.62747  24295695.5054   24295694.4034
      1606.7034
     23397.11149     14281.26448  20764837.3174   20764833.1534
      -160.8124
   2238789.93449   1723127.82347  23171806.3564   23171802.8374
     -3947.9844
   2864012.13649   2201325.32047  23673473.6694   23673472.2744
     -4935.7034
   1482065.99649   1139441.33948  20998194.7004   20998188.4624
     -2660.0004
   -310398.02249   -243255.25848  22393742.2714   22393739.6344
       453.2664
 04  9  2 20 55  0.0010000  0  8G 1G 3G 8G13G16G20G23G27
   2289050.36549   1760956.18947  23427318.0914   23427316.7864
     -3885.5474
   -525336.88049   -409656.60547  23980441.3494   23980440.7204
       754.0314
  -1001413.50449   -776670.48247  24291111.6464   24291110.4034
      1604.6414
     25847.30049     16190.51648  20765303.4894   20765299.1344
      -166.3284
   2298050.99449   1769305.25147  23183083.1534   23183080.1734
     -3953.9224
   2938062.69449   2259026.97047  23687564.9664   23687563.4354
     -4938.0784
   1522009.71249   1170566.31148  21005795.5134   21005789.4934
     -2666.2194
   -317177.91049   -248538.27948  22392452.3024   22392449.4034
       450.2974
 04  9  2 20 55 15.0010000  0  8G 1G 3G 8G13G16G20G23G27
   2347357.98649   1806390.65947  23438413.7864   23438412.5564
     -3889.3754
   -536610.66449   -418441.34547  23978296.5444   23978295.7124
       748.4534
  -1025469.87649   -795415.67947  24286533.4584   24286532.8924
      1602.2194
     28380.36749     18164.32648  20765785.5134   20765781.1924
      -172.1094
   2357400.44649   1815551.56447  23194377.1384   23194374.2864
     -3960.0474
   3012149.07249   2316756.53447  23701662.8254   23701661.3254
     -4940.7194
   1562047.05649   1201764.22048  21013414.2784   21013408.3684
     -2672.7814
   -323913.52349   -253786.79548  22391170.5754   22391167.1854
       447.1414
 04  9  2 20 55 30.0010000  0  8G 1G 3G 8G13G16G20G23G27
   2405723.54849   1851870.29347  23449520.1144   23449519.3494
     -3892.5624
   -547799.18549   -427159.62347  23976167.5444   23976166.6774
       743.5314
  -1049490.67049   -814133.11947  24281962.6614   24281961.8214
      1600.5004
     31000.25949     20205.81048  20766283.6464   20766279.6924
      -177.0784
   2416842.08849   1861869.69947  23205688.2784   23205685.0754
     -3965.3284
   3086274.93449   2374516.89847  23715769.3024   23715767.4544
     -4942.6094
   1602181.98449   1233038.18248  21021051.5364   21021045.2474
     -2678.4534
   -330600.88249   -258997.69848  22389897.7554   22389895.3924
       444.6094
 04  9  2 20 55 45.0010000  0  8G 1G 3G 8G13G16G20G23G27
   2464142.38549   1897391.41547  23460636.6614   23460635.7554
     -3896.8284
   -558906.75049   -435814.84747  23974053.2554   23974052.7434
       737.2814
  -1073480.26849   -832826.26147  24277396.9894   24277396.0634
      1597.7974
     33702.77149     22311.65748  20766798.2004   20766794.4894
      -183.3284
   2476370.94949   1908255.80647  23217016.3884   23217012.9114
     -3971.9224
   3160435.25849   2432304.09047  23729881.4504   23729879.9934
     -4945.4694
   1642410.00249   1264384.67648  21028707.0604   21028700.8534
     -2685.3594
   -337244.60049   -264174.61648  22388633.3254   22388630.9624
       441.0474
 04  9  2 20 56  0.0010000  0  8G 1G 3G 8G13G16G20G23G27
   2522617.84849   1942956.67547  23471763.7784   23471763.5674
     -3899.8914
   -569929.59249   -444404.03347  23971955.9274   23971955.3254
       732.4534
  -1097435.39549   -851492.59547  24272839.1694   24272837.8564
      1596.2814
     36491.47949     24484.68848  20767329.0364   20767324.6464
      -188.4224
   2535990.12949   1954712.28547  23228360.9584   23228358.0364
     -3977.1724
   3234633.25749   2490120.64847  23744000.7864   23743999.9504
     -4947.3914
   1682734.45549   1295806.32448  21036380.3964   21036373.8684
     -2691.0944
   -343841.17749   -269314.79348  22387378.2004   22387375.5874
       438.5474
 04  9  2 20 56 15.0010000  0  8G 1G 3G 8G13G16G20G23G27
   2581152.12249   1988567.74547  23482903.3494   23482902.5604
     -3904.2814
   -580865.12949   -452925.20647  23969874.9354   23969874.1694
       726.1094
  -1121353.53449   -870130.04447  24268287.0604   24268286.1384
      1593.2814
     39368.55449     26726.56848  20767876.2864   20767872.6034
      -194.7504
   2595701.46149   2001240.57947  23239724.5914   23239720.7714
     -3983.8284
   3308870.62749   2547967.89047  23758127.7394   23758126.7634
     -4950.5314
   1723157.49949   1327304.78848  21044072.8804   21044066.5954
     -2698.1564
   -350388.58849   -274416.65048  22386132.1064   22386129.5674
       434.8284
 04  9  2 20 56 30.0010000  0  8G 1G 3G 8G13G16G20G23G27
   2639744.17149   2034223.85647  23494053.5604   23494051.6694
     -3907.8284
   -591713.97449   -461378.80747  23967810.0284   23967809.9584
       720.5634
  -1145235.75949   -888739.54447  24263743.7244   24263741.7244
      1591.1724
     42333.50049     29036.92148  20768440.4974   20768436.6064
      -200.4374
   2655503.79549   2047839.78847  23251104.6774   23251100.7044
     -3989.6724
   3383146.11949   2605844.81347  23772260.9894   23772260.7864
     -4952.7814
   1763678.23249   1358879.38048  21051783.6144   21051777.2124
     -2704.4534
   -356887.71249   -279480.89848  22384895.5284   22384893.1654
       431.8134
 04  9  2 20 56 45.0010000  0  8G 1G 3G 8G13G16G20G23G27
   2698392.64749   2079923.94247  23505213.4814   23505212.0284
     -3911.7194
   -602476.92849   -469765.49447  23965761.7084   23965761.4744
       714.8284
  -1169083.36349   -907322.06447  24259204.2554   24259204.2434
      1588.8284
     45385.08549     31414.78048  20769021.4354   20769017.0634
      -206.2344
   2715395.46849   2094508.61347  23262501.2244   23262497.9074
     -3995.6254
   3457458.11949   2663750.19547  23786403.2004   23786402.0564
     -4955.2194
   1804295.35849   1390529.07548  21059512.8494   21059506.5754
     -2710.8754
   -363339.82249   -284508.48848  22383667.4504   22383664.8764
       428.7344
 04  9  2 20 57  0.0010000  0  8G 1G 3G 8G13G16G20G23G27
   2757092.76149   2125664.23647  23516383.7084   23516382.4354
     -3915.0624
   -613158.46649   -478088.73647  23963729.2164   23963728.3134
       709.2814
  -1192900.93749   -925881.18847  24254671.9664   24254671.2594
      1586.8594
     48518.82749     33856.67348  20769617.6304   20769613.1264
      -211.7664
   2775371.42549   2141243.11447  23273914.1064   23273911.0134
     -4001.2974
   3531801.56749   2721680.09647  23800551.0054   23800549.2904
     -4957.3124
   1845004.24049   1422250.27248  21067259.3494   21067253.1964
     -2717.0004
   -369749.79049   -289503.25548  22382447.8254   22382445.0834
       425.9064
 04  9  2 20 57 15.0010000  0  8G 1G 3G 8G13G16G20G23G27
   2815849.57749   2171448.70247  23527564.5914   23527564.1654
     -3919.0314
   -623753.11849   -486344.26947  23961714.0284   23961712.7944
       703.4064
  -1216683.22349   -944412.75347  24250146.0284   24250145.8374
      1584.1884
     51740.04249     36366.71148  20770230.4894   20770226.5564
      -217.6724
   2835436.46949   2188047.02047  23285344.2314   23285341.3294
     -4007.2974
   3606181.26449   2779638.22147  23814703.9974   23814703.9544
     -4959.8284
   1885809.88349   1454046.88148  21075025.0524   21075018.3494
     -2723.6564
   -376112.39049   -294461.11648  22381236.9974   22381234.6774
       422.5634
 04  9  2 20 57 30.0010000  0  8G 1G 3G 8G13G16G20G23G27
   2874657.53249   2217273.03247  23538756.4274   23538754.6884
     -3922.3284
   -634265.99549   -494536.09647  23959712.4034   23959711.6814
       698.0634
  -1240435.81349   -962921.23947  24245626.7164   24245625.3214
      1582.3594
     55043.43149     38940.77848  20770858.9274   20770854.9314
      -223.0624
   2895584.87349   2234915.87847  23296790.3724   23296786.7714
     -4012.7504
   3680591.36049   2837620.02947  23828863.9504   23828863.6424
     -4961.7504
   1926706.83449   1485914.61848  21082806.7004   21082800.4544
     -2729.5944
   -382433.22349   -299386.42848  22380033.9584   22380031.3884
       419.9534
 04  9  2 20 57 45.0010000  0  8G 1G 3G 8G13G16G20G23G27
   2933517.71249   2263138.08447  23549956.4114   23549955.3374
     -3925.7194
   -644695.67949   -502663.07647  23957727.6854   23957727.2824
       692.5474
  -1264157.26049   -981405.43647  24241112.7784   24241111.8214
      1580.3914
     58430.28749     41579.90248  20771503.6144   20771499.3604
      -228.5944
   2955817.38649   2281850.31047  23308251.8494   23308248.4504
     -4018.2504
   3755032.64449   2895626.15947  23843029.8804   23843028.7124
     -4963.7194
   1967696.34049   1517854.48748  21090607.1774   21090600.6654
     -2735.7034
   -388711.11349   -304278.28048  22378839.8724   22378836.6534
       417.1254
 04  9  2 20 58  0.0010000  0  8G 1G 3G 8G13G16G20G23G27
   2992432.12949   2309045.38247  23561167.5284   23561166.0564
     -3929.1874
   -655039.56449   -510723.20747  23955759.5994   23955758.7124
       687.0004
  -1287845.40949   -999863.73147  24236604.6854   24236603.5674
      1578.3134
     61902.89049     44285.82448  20772164.4974   20772160.0954
      -234.1414
   3016135.80449   2328851.65047  23319730.5674   23319726.8844
     -4023.8444
   3829506.95049   2953658.03847  23857201.4744   23857200.5794
     -4965.7664
   2008780.44949   1549868.06548  21098425.3024   21098418.3294
     -2741.9064
   -394943.99349   -309135.05448  22377653.7004   22377650.5874
       414.2194
 04  9  2 20 58 15.0010000  0  8G 1G 3G 8G13G16G20G23G27
   3051398.77949   2354993.37447  23572388.5834   23572387.4704
     -3933.3124
   -665299.28949   -518717.76347  23953807.7164   23953806.4624
       680.7664
  -1311502.57349  -1018297.88147  24232103.6224   24232101.5954
      1575.6094
     65459.54349     47057.24848  20772841.2864   20772837.0014
      -240.4064
   3076537.87049   2375918.17647  23331224.8104   23331221.2824
     -4030.0474
   3904011.90249   3011713.75647  23871379.5284   23871378.8294
     -4968.5474
   2049957.11949   1581953.76648  21106260.6224   21106254.2864
     -2748.6094
   -401133.86149   -313958.31848  22376475.7394   22376472.6654
       410.8284
 04  9  2 20 58 30.0010000  0  8G 1G 3G 8G13G16G20G23G27
   3110420.72349   2400984.46647  23583619.5604   23583618.6104
     -3936.3594
   -675471.47249   -526644.07147  23951871.1854   23951870.9814
       675.4694
  -1335125.41049  -1036705.20147  24227607.8494   24227606.7394
      1573.9694
     69103.57749     49896.75848  20773534.6384   20773530.4504
      -245.6094
   3137026.36649   2423052.05347  23342734.8884   23342731.7904
     -4035.1724
   3978550.22849   3069795.48947  23885563.6144   23885563.1384
     -4970.1254
   2091229.51749   1614114.06448  21114114.5364   21114108.0484
     -2754.4224
   -407277.68049   -318745.68948  22375306.5364   22375303.6494
       408.3134
 04  9  2 20 58 45.0010000  0  8G 1G 3G 8G13G16G20G23G27
   3169495.32849   2447016.57247  23594861.5364   23594860.1464
     -3939.9224
   -685558.38349   -534504.01247  23949952.2314   23949950.8644
       669.7664
  -1358716.32049  -1055087.71647  24223117.9744   24223117.3564
      1571.9224
     72832.36849     52802.31348  20774244.1534   20774240.1574
      -251.2664
   3197598.27049   2470250.92447  23354262.2004   23354258.2284
     -4040.7664
   4053118.87949   3127900.84947  23899754.0674   23899753.3374
     -4972.1254
   2132594.93949   1646346.85948  21121986.2394   21121980.2354
     -2760.6414
   -413377.94449   -323499.12248  22374145.1694   22374142.8724
       405.4224
 04  9  2 20 59  0.0010000  0  8G 1G 3G 8G13G16G20G23G27
   3228624.21949   2493091.00947  23606114.2714   23606112.6104
     -3943.2974
   -695557.79849   -542295.71547  23948049.1614   23948048.2284
       664.1414
  -1382273.60549  -1073444.02147  24218635.5524   24218633.7004
      1569.8134
     76647.99849     55775.53448  20774970.1854   20774966.0564
      -256.8914
   3258255.16949   2517516.03547  23365804.2004   23365800.4974
     -4046.2504
   4127719.54549   3186031.18647  23913949.9974   23913948.9624
     -4974.0474
   2174055.28549   1678653.61848  21129875.7864   21129869.4114
     -2766.7344
   -419432.95349   -328217.29848  22372993.1304   22372990.5324
       402.5784
 04  9  2 20 59 15.0010000  0  8G 1G 3G 8G13G16G20G23G27
   3287803.51049   2539204.68847  23617375.0604   23617373.9354
     -3947.2504
   -705473.25349   -550021.97547  23946161.6854   23946161.3294
       657.9064
  -1405800.95249  -1091776.95847  24214158.5134   24214157.0834
      1567.2814
     80546.92349     58813.66448  20775712.4894   20775707.8884
      -262.9534
   3318992.86249   2564844.09347  23377362.0754   23377358.6534
     -4052.1254
   4202347.92649   3244183.07947  23928151.0524   23928150.3214
     -4976.4694
   2215606.62249   1711031.26948  21137782.8804   21137776.6734
     -2773.3914
   -425446.66349   -332903.29548  22371849.0754   22371846.1424
       399.2664
 04  9  2 20 59 30.0010000  0  8G 1G 3G 8G13G16G20G23G27
   3347034.40649   2585358.59447  23628646.0604   23628645.2394
     -3950.2664
   -715303.20449   -557681.65447  23944291.5214   23944290.8684
       652.5164
  -1429297.26749  -1110085.74647  24209687.2244   24209686.3764
      1565.5634
     84530.59149     61917.82848  20776470.2714   20776465.8214
      -268.2974
   3379812.23449   2612235.78647  23388936.0214   23388932.8764
     -4057.3124
   4277004.80049   3302357.19447  23942357.8564   23942357.2904
     -4977.9694
   2257250.30949   1743480.88448  21145707.2244   21145701.3964
     -2779.2504
   -431417.72449   -337556.05448  22370712.7554   22370709.7284
       396.6884
 04  9  2 20 59 45.0010000  0  8G 1G 3G 8G13G16G20G23G27
   3406315.21249   2631551.38547  23639927.2164   23639925.5674
     -3953.5624
   -725048.99949   -565275.74947  23942437.5994   23942436.5174
       647.1094
  -1452763.83049  -1128371.35647  24205221.4354   24205220.9584
      1563.5314
     88597.35149     65086.72648  20777244.3174   20777239.6304
      -273.7344
   3440711.33049   2659689.60247  23400524.6064   23400521.1464
     -4062.5004
   4351688.32749   3360552.05947  23956569.2394   23956568.8884
     -4979.6724
   2298984.68349   1776001.17348  21153649.2004   21153642.8334
     -2785.2344
   -437347.91449   -342176.96548  22369584.7164   22369582.1494
       394.1094
 04  9  2 21  0  0.0010000  0  8G 1G 3G 8G13G16G20G23G27
   3465646.12349   2677783.23047  23651217.8414   23651216.0524
     -3957.2504
   -734709.95649   -572803.71647  23940598.6464   23940597.8064
       640.9534
  -1476200.53549  -1146633.71547  24200761.6854   24200760.3134
      1561.3594
     92747.76949     68320.82848  20778033.7864   20778029.7084
      -279.7194
   3501690.11049   2707205.52347  23412128.5364   23412124.5634
     -4068.1254
   4426398.44749   3418767.65047  23970786.8804   23970786.3254
     -4981.7344
   2340809.89049   1808592.22848  21161607.9194   21161602.0244
     -2791.5784
   -443236.84249   -346765.72248  22368463.6774   22368461.5444
       391.0004
 04  9  2 21  0 15.0010000  0  8G 1G 3G 8G13G16G20G23G27
   3525032.79049   2724058.49947  23662518.8564   23662516.9194
     -3961.1254
   -744279.96449   -580260.85047  23938777.5754   23938776.8254
       634.8284
  -1499601.52649  -1164868.23947  24196308.6064   24196307.4814
      1558.7664
     96987.62749     71624.61848  20778840.9814   20778836.9584
      -285.7974
   3562753.98949   2754787.76247  23423748.7164   23423745.1464
     -4073.9374
   4501140.54649   3477008.18347  23985009.9814   23985009.1884
     -4984.0474
   2382731.69049   1841258.55748  21169586.2244   21169579.4664
     -2798.1254
   -449078.95349   -351318.00948  22367351.9974   22367349.2674
       387.7504
 04  9  2 21  0 30.0010000  0  8G 1G 3G 8G13G16G20G23G27
   3584475.11049   2770377.15747  23673829.6854   23673828.7474
     -3964.9694
   -753758.68349   -587646.81047  23936972.6304   23936972.4814
       628.5634
  -1522966.79449  -1183074.93147  24191862.1534   24191861.3214
      1556.2974
    101317.15949     74998.28148  20779664.3804   20779660.4624
      -291.9374
   3623902.65449   2802436.04147  23435385.1304   23435381.3844
     -4079.6874
   4575914.13749   3535273.23147  23999239.3334   23999237.6344
     -4986.2194
   2424750.09349   1874000.16548  21177581.7784   21177575.7204
     -2804.7344
   -454874.19049   -355833.76148  22366249.1534   22366246.7714
       384.5164
 04  9  2 21  0 45.0010000  0  8G 1G 3G 8G13G16G20G23G27
   3643972.43849   2816738.65747  23685151.9664   23685151.0404
     -3967.8124
   -763146.41049   -594961.88747  23935186.9504   23935185.7904
       623.3914
  -1546296.86049  -1201254.15047  24187423.5284   24187422.3884
      1554.5784
    105736.00049     78441.55048  20780505.6924   20780501.2674
      -297.1094
   3685135.15749   2850149.67447  23447036.4744   23447033.4074
     -4084.4064
   4650718.33249   3593562.16947  24013473.6694   24013472.5874
     -4987.5004
   2466864.37049   1906816.48348  21185595.6384   21185589.5014
     -2810.2974
   -460623.25749   -360313.54448  22365154.9274   22365151.8964
       382.2034
 04  9  2 21  1  0.0010000  0  8G 1G 3G 8G13G16G20G23G27
   3703521.32549   2863140.34347  23696483.6064   23696482.8104
     -3971.6254
   -772446.18649   -602208.42347  23933417.2474   23933416.4034
       617.1414
  -1569595.14849  -1219408.64347  24182988.7634   24182987.4274
      1552.2034
    110240.90449     81951.84948  20781362.5604   20781358.7124
      -303.2194
   3746447.74249   2897925.69547  23458703.5604   23458701.1494
     -4090.1564
   4725549.47649   3651872.05747  24027713.8024   24027713.3494
     -4989.6414
   2509071.22749   1939704.93048  21193627.3884   21193620.8534
     -2816.8284
   -466329.50849   -364759.95648  22364069.2004   22364066.0994
       379.0314
 04  9  2 21  1 15.0010000  0  8G 1G 3G 8G13G16G20G23G27
   3763120.45049   2909581.16347  23707824.8564   23707824.3294
     -3975.0474
   -781658.83649   -609387.05947  23931665.0914   23931663.4504
       611.1564
  -1592862.70549  -1237539.15347  24178561.6064   24178560.3564
      1549.9844
    114830.84549     85528.44248  20782236.2944   20782232.0174
      -308.9844
   3807838.90949   2945762.94547  23470386.7714   23470383.4034
     -4095.5314
   4800405.90749   3710201.64547  24041958.5994   24041957.9744
     -4991.3754
   2551369.44949   1972664.58448  21201676.7474   21201670.2314
     -2823.0784
   -471994.27549   -369174.05448  22362991.5674   22362987.9424
       376.1564
 04  9  2 21  1 30.0010000  0  8G 1G 3G 8G13G16G20G23G27
   3822768.06049   2956059.78447  23719175.3334   23719175.1734
     -3978.2504
   -790785.84749   -616498.96247  23929927.5994   23929926.7434
       605.5474
  -1616101.42649  -1255647.24847  24174140.2474   24174138.5094
      1548.1724
    119504.42349     89170.19648  20783125.5214   20783121.6494
      -314.5004
   3869306.60649   2993659.83547  23482083.4274   23482080.1774
     -4100.5624
   4875285.60749   3768549.40147  24056207.9584   24056207.1734
     -4992.8754
   2593757.19749   2005693.97648  21209742.6464   21209736.0364
     -2828.9534
   -477619.20349   -373557.09848  22361920.6224   22361918.2864
       373.5164
 04  9  2 21  1 45.0010000  0  8G 1G 3G 8G13G16G20G23G27
   3882468.10849   3002579.24547  23730536.2314   23730535.6144
     -3981.8594
   -799822.83049   -623540.73747  23928208.3564   23928206.4504
       599.2974
  -1639307.13449  -1273729.61647  24169723.3414   24169722.0634
      1545.7504
    124265.62949     92880.23248  20784031.7634   20784027.4744
      -320.5004
   3930854.37949   3041619.13547  23493795.5364   23493792.4504
     -4106.0474
   4950192.21349   3826918.08047  24070461.9894   24070461.8804
     -4994.8444
   2636238.58049   2038796.35548  21217826.5054   21217820.3254
     -2835.4064
   -483200.31949   -377906.01348  22360859.0914   22360855.9464
       370.4064
 04  9  2 21  2  0.0010000  0  8G 1G 3G 8G13G16G20G23G27
   3942221.02249   3049139.91447  23741906.4814   23741905.8174
     -3985.4224
   -808768.91649   -630511.66247  23926505.6064   23926504.5094
       593.1564
  -1662479.33349  -1291785.82447  24165313.7244   24165312.4194
      1543.4844
    129115.18349     96659.10248  20784954.4974   20784950.0484
      -326.4374
   3992482.63949   3089641.11947  23505523.1464   23505519.9504
     -4111.4224
   5025125.82149   3885307.86647  24084721.8884   24084721.0244
     -4996.6414
   2678814.09349   2071972.06748  21225928.2714   21225922.0634
     -2841.6874
   -488737.17849   -382220.43048  22359805.2864   22359802.6464
       367.4694
 04  9  2 21  2 15.0010000  0  8G 1G 3G 8G13G16G20G23G27
   4002025.58549   3095740.83647  23753287.5994   23753286.4234
     -3988.3754
   -817624.77849   -637412.27347  23924820.6304   23924818.8294
       587.6564
  -1685618.88949  -1309816.62247  24160910.8724   24160909.2594
      1541.8754
    134052.27749    100506.19648  20785893.7084   20785889.8104
      -331.8284
   4054189.90449   3137724.69947  23517265.7244   23517261.8534
     -4116.1874
   5100085.04849   3943717.57747  24098986.0604   24098985.3564
     -4997.8754
   2721482.59149   2105220.24248  21234047.9274   21234041.3604
     -2847.4064
   -494230.88249   -386501.23148  22358759.4584   22358756.3104
       365.0784
 04  9  2 21  2 30.0010000  0  8G 1G 3G 8G13G16G20G23G27
   4061877.97049   3142379.01647  23764676.8724   23764676.4384
     -3992.0624
   -826393.90049   -644245.31947  23923151.4354   23923150.2164
       581.4694
  -1708729.51149  -1327824.85947  24156513.0444   24156511.9934
      1539.4694
    139073.24249    104418.63948  20786849.5214   20786845.3134
      -337.8594
   4115972.01349   3185866.57747  23529022.2634   23529019.3644
     -4121.6254
   5175065.77049   4002144.01847  24113254.1854   24113253.4744
     -4999.7814
   2764240.25249   2138537.87548  21242184.8724   21242178.1694
     -2853.7974
   -499685.18449   -390751.31748  22357721.5364   22357719.1884
       362.0004
 04  9  2 21  2 45.0010000  0  8G 1G 3G 8G13G16G20G23G27
   4121783.71849   3189058.75847  23776077.0994   23776076.8684
     -3995.4374
   -835070.33349   -651006.13847  23921500.1614   23921499.0324
       575.3134
  -1731805.68749  -1345806.27147  24152121.3334   24152120.4354
      1537.2814
    144183.81549    108400.90648  20787822.0674   20787818.0634
      -343.7344
   4177834.21849   3234070.88747  23540794.6304   23540791.6774
     -4126.7974
   5250073.24349   4060591.31447  24127527.8024   24127526.9504
     -5001.5004
   2807092.73549   2171929.42048  21250338.9974   21250332.5874
     -2860.0314
   -505094.59049   -394966.42248  22356692.3804   22356689.7904
       359.1414
 04  9  2 21  3  0.0010000  0  8G 1G 3G 8G13G16G20G23G27
   4181744.09349   3235781.08547  23787486.4034   23787486.2944
     -3998.7974
   -843652.60349   -657693.57647  23919867.0604   23919866.1184
       569.2974
  -1754846.25349  -1363759.93647  24147736.6694   24147735.7164
      1535.1254
    149385.63249    112454.27848  20788811.7864   20788807.7824
      -349.5004
   4239777.56349   3282338.41647  23552582.3414   23552579.2674
     -4131.9694
   5325108.37949   4119060.18147  24141806.1614   24141806.2084
     -5003.0004
   2850041.19549   2205395.74248  21258511.8724   21258505.5094
     -2866.0944
   -510457.83149   -399145.56448  22355671.6384   22355669.1424
       356.3594
 04  9  2 21  3 15.0010000  0  8G 1G 3G 8G13G16G20G23G27
   4241758.18249   3282545.26047  23798907.5524   23798906.1304
     -4002.9844
   -852141.12449   -664307.96947  23918251.7474   23918250.5284
       562.5314
  -1777851.87949  -1381686.36847  24143359.3174   24143357.8534
      1532.3134
    154677.92049    116578.15048  20789818.5834   20789814.8564
      -356.0624
   4301800.89849   3330668.26147  23564384.9664   23564381.5994
     -4137.7974
   5400170.16049   4177549.80547  24156090.3884   24156090.3334
     -5005.2504
   2893084.86049   2238936.25348  21266702.7784   21266696.5174
     -2872.9064
   -515775.70749   -403289.35248  22354659.4034   22354656.4274
       352.7664
 04  9  2 21  3 30.0010000  0  8G 1G 3G 8G13G16G20G23G27
   4301822.24149   3329348.37747  23810336.9504   23810336.1264
     -4005.9374
   -860539.19849   -670851.89047  23916653.5444   23916652.5094
       556.7814
  -1800826.04649  -1399588.31347  24138987.1144   24138986.1304
      1530.4694
    160057.26349    120769.84048  20790842.4894   20790838.4744
      -361.5784
   4363900.28149   3379057.35847  23576201.9664   23576198.7314
     -4142.4064
   5475254.56849   4236057.07147  24170378.1774   24170377.8454
     -5006.4534
   2936220.18049   2272548.17348  21274911.2944   21274904.9384
     -2878.8594
   -521051.85249   -407400.62448  22353656.0834   22353653.2744
       350.2814
 04  9  2 21  3 45.0010000  0  8G 1G 3G 8G13G16G20G23G27
   4361939.47049   3376192.93547  23821777.4114   23821776.5524
     -4009.5474
   -868843.19349   -677322.48947  23915072.9814   23915071.6494
       550.4534
  -1823765.29949  -1417463.03847  24134622.2244   24134621.0874
      1528.1564
    165527.14049    125032.08548  20791883.5284   20791879.0524
      -367.5474
   4426078.55149   3427507.95647  23588034.1694   23588030.6064
     -4147.8594
   5550364.36849   4294584.05947  24184671.4974   24184671.1534
     -5008.0944
   2979450.21649   2306233.90248  21283137.5994   21283131.0834
     -2885.0784
   -526283.10549   -411476.91348  22352660.3024   22352657.3334
       347.3134
 04  9  2 21  4  0.0010000  0  8G 1G 3G 8G13G16G20G23G27
   4422107.48449   3423077.04047  23833226.6534   23833225.8494
     -4012.9844
   -877055.09349   -683721.36247  23913510.8724   23913509.6734
       544.2034
  -1846672.10249  -1435312.45447  24130262.8494   24130261.5524
      1525.9064
    171085.45849    129363.26748  20792941.1854   20792936.8134
      -373.6254
   4488333.14649   3476018.00747  23599880.4194   23599877.4974
     -4152.9694
   5625497.00149   4353128.92147  24198968.6854   24198968.4894
     -5009.6724
   3022772.80849   2339991.75948  21291381.8494   21291375.5284
     -2891.3594
   -531471.85849   -415520.08948  22351672.6614   22351669.9384
       344.3284
 04  9  2 21  4 15.0010000  0  8G 1G 3G 8G13G16G20G23G27
   4482327.36349   3470001.56947  23844685.9424   23844685.4664
     -4016.1874
   -885173.32749   -690047.20247  23911965.7864   23911965.1184
       538.2814
  -1869545.11849  -1453135.56747  24125911.0054   24125909.2864
      1523.9534
    176733.46049    133764.29948  20794016.0754   20794011.4034
      -379.3444
   4550664.94749   3524588.23047  23611741.8334   23611738.9504
     -4157.8444
   5700653.32449   4411692.19447  24213271.6924   24213270.1184
     -5011.0004
   3066189.03449   2373822.57448  21299643.9114   21299637.7044
     -2897.3444
   -536616.73349   -419529.06048  22350693.8334   22350691.3964
       341.6414
 04  9  2 21  4 30.0010000  0  8G 1G 3G 8G13G16G20G23G27
   4542597.76749   3516965.47747  23856154.8564   23856154.6534
     -4019.8444
   -893198.90649   -696300.86247  23910438.3564   23910438.2744
       531.7814
  -1892385.79449  -1470933.46547  24121563.8564   24121562.6034
      1521.4064
    182470.01449    138234.34048  20795107.6304   20795103.3604
      -385.5474
   4613072.20949   3573217.23847  23623618.0604   23623614.3024
     -4163.1414
   5775831.68949   4470272.64747  24227576.1694   24227576.0994
     -5012.8124
   3109697.59749   2407725.34248  21307922.8414   21307916.7594
     -2903.8124
   -541719.24649   -423505.02348  22349722.9274   22349719.8924
       338.6414
 04  9  2 21  4 45.0010000  0  8G 1G 3G 8G13G16G20G23G27
   4602918.29349   3563968.44147  23867634.2084   23867633.4584
     -4023.0784
   -901131.82349   -702482.31247  23908928.6854   23908928.0244
       525.7504
  -1915194.16349  -1488706.18647  24117223.9584   24117222.4354
      1519.5004
    188294.99249    142773.29048  20796215.6144   20796211.7864
      -391.2034
   4675554.38149   3621904.63147  23635507.9584   23635504.5244
     -4167.9224
   5851031.32049   4528869.69147  24241886.1924   24241885.9424
     -5013.9694
   3153298.12349   2441699.76148  21316219.6224   21316213.3294
     -2909.7034
   -546779.67449   -427448.21348  22348759.8494   22348756.6924
       336.0474
 04  9  2 21  5  0.0010000  0  8G 1G 3G 8G13G16G20G23G27
   4663289.79249   3611011.10447  23879123.1144   23879121.3174
     -4026.5314
   -908970.83249   -708590.59147  23907437.2634   23907436.5484
       519.4534
  -1937969.36649  -1506453.07947  24112890.1694   24112888.7864
      1517.1414
    194209.68049    147382.14448  20797341.5054   20797337.3534
      -397.3754
   4738112.00849   3670650.81747  23647411.8414   23647408.9154
     -4173.1094
   5926252.98749   4587483.89847  24256200.3724   24256200.3564
     -5015.5004
   3196991.53549   2475746.57348  21324534.4034   21324528.1614
     -2916.0474
   -551797.15449   -431357.93448  22347805.0834   22347802.1884
       333.0314
 04  9  2 21  5 15.0010000  0  8G 1G 3G 8G13G16G20G23G27
   4723712.50449   3658093.70347  23890620.0994   23890619.4974
     -4029.8594
   -916715.23249   -714625.13447  23905963.8334   23905962.4974
       513.2034
  -1960711.15349  -1524173.92747  24108562.4504   24108560.8564
      1514.9694
    200214.51349    152061.23848  20798484.0054   20798479.8994
      -403.3284
   4800745.21349   3719455.87947  23659330.5364   23659326.7984
     -4178.0314
   6001496.58449   4646115.16647  24270519.7314   24270519.3174
     -5016.9224
   3240778.20149   2509866.03948  21332866.7244   21332860.9464
     -2922.2344
   -556771.29449   -435233.88048  22346858.5364   22346856.0404
       330.1884
 04  9  2 21  5 30.0010000  0  8G 1G 3G 8G13G16G20G23G27
   4784187.04249   3705216.68747  23902128.3804   23902127.7044
     -4032.6564
   -924364.11349   -720585.25847  23904508.1464   23904507.0014
       507.4384
  -1983418.82649  -1541868.18847  24104241.1224   24104239.2314
      1513.3444
    206310.24349    156811.15548  20799643.9114   20799639.9934
      -408.7814
   4863454.20149   3768320.03447  23671264.0524   23671260.4784
     -4182.4064
   6076762.33549   4704763.71147  24284842.2004   24284841.7514
     -5017.8444
   3284658.55849   2544058.51848  21341216.6464   21341210.3494
     -2927.8284
   -561701.57849   -439075.64248  22345920.4814   22345917.2744
       327.8754
 04  9  2 21  5 45.0010000  0  8G 1G 3G 8G13G16G20G23G27
   4844713.49649   3752380.09847  23913645.5754   23913645.3294
     -4037.1564
   -931916.93549   -726470.55847  23903070.9664   23903069.1614
       499.8914
  -2006091.96149  -1559535.55247  24099926.6224   24099924.9384
      1510.0164
    212497.18249    161632.16148  20800821.4114   20800817.4314
      -415.8914
   4926238.94849   3817243.19047  23683211.0364   23683208.7634
     -4188.5164
   6152050.16049   4763429.45247  24299168.7314   24299169.2904
     -5020.2814
   3328632.86349   2578324.19248  21349585.1224   21349578.7044
     -2935.1094
   -566587.78549   -442883.06348  22344990.4894   22344987.6424
       323.8914
 04  9  2 21  6  0.0010000  0  8G 1G 3G 8G13G16G20G23G27
   4905291.08249   3799583.36647  23925173.4664   23925172.4584
     -4040.1414
   -939374.03749   -732281.24347  23901651.9114   23901650.2634
       493.9694
  -2028731.23849  -1577176.52747  24095618.2944   24095616.9114
      1508.2344
    218774.95749    166523.93548  20802015.9744   20802011.8134
      -421.4694
   4989098.27449   3866224.46047  23695172.5444   23695170.0914
     -4192.8914
   6227358.99349   4822111.56947  24313499.1694   24313500.2004
     -5021.2664
   3372700.43849   2612662.55548  21357970.5834   21357964.5634
     -2940.8754
   -571430.67149   -446656.74248  22344069.1064   22344066.2514
       321.4534
 04  9  2 21  6 15.0010000  0  8G 1G 3G 8G13G16G20G23G27
   4965916.52049   3846823.93247  23936710.3334   23936709.8534
     -4043.0474
   -946738.26749   -738019.56847  23900250.7314   23900249.1224
       488.1564
  -2051339.98949  -1594793.70347  24091316.2004   24091314.9234
      1506.5314
    225140.38849    171484.01248  20803227.4974   20803223.1064
      -426.9694
   5052028.71749   3915261.14547  23707148.5524   23707145.0604
     -4197.4694
   6302685.33049   4880807.35347  24327833.7084   24327834.4424
     -5022.1414
   3416858.05149   2647071.07248  21366373.4354   21366367.7824
     -2946.6094
   -576233.47749   -450399.16948  22343154.9194   22343152.3414
       319.1884
 04  9  2 21  6 30.0010000  0  8G 1G 3G 8G13G16G20G23G27
   5026593.83849   3894104.89947  23948256.3024   23948255.8534
     -4047.0004
   -954005.20249   -743682.11247  23898867.2314   23898866.2004
       481.0944
  -2073914.01849  -1612383.81247  24087020.3414   24087019.0134
      1503.6414
    231597.92049    176515.86148  20804455.9274   20804451.8494
      -433.7664
   5115034.16149   3964356.29647  23719137.9424   23719134.8604
     -4203.0004
   6378032.95349   4939519.65947  24342172.4664   24342171.8414
     -5023.9534
   3461109.85849   2681552.98748  21374794.3724   21374788.3724
     -2953.3914
   -580992.02349   -454107.11748  22342249.3414   22342246.6734
       315.6414
 04  9  2 21  6 45.0010000  0  8G 1G 3G 8G13G16G20G23G27
   5087323.88749   3941426.97247  23959813.9194   23959813.0134
     -4050.5314
   -961173.66449   -749267.87547  23897503.4744   23897502.2314
       474.5004
  -2096452.34249  -1629946.14847  24082731.2944   24082729.8104
      1501.0944
    238148.60149    181620.28948  20805702.9354   20805698.7784
      -440.0314
   5178115.15049   4013510.29847  23731141.4194   23731138.7044
     -4208.0784
   6453402.41549   4998249.03247  24356514.2084   24356514.6144
     -5025.5164
   3505456.68149   2716108.94248  21383233.4584   21383227.5094
     -2959.7504
   -585705.53649   -457779.96748  22341352.3724   22341349.6264
       312.5314
 04  9  2 21  7  0.0010000  0  8G 1G 3G 8G13G16G20G23G27
   5148108.89349   3988791.86847  23971380.4274   23971380.1494
     -4054.4064
   -968240.90849   -754774.79247  23896158.7084   23896157.7394
       467.5164
  -2118952.59149  -1647478.77447  24078449.7864   24078448.1224
      1498.5004
    244794.86649    186799.19348  20806967.6304   20806963.4664
      -446.4534
   5241273.60149   4062724.65047  23743159.9894   23743157.6034
     -4213.2974
   6528795.74349   5056997.00347  24370860.9814   24370861.2204
     -5027.2034
   3549900.76949   2750740.69248  21391690.6224   21391684.8994
     -2966.3124
   -590371.60949   -461415.85948  22340464.6224   22340461.9744
       309.2814
 04  9  2 21  7 15.0020000  0  8G 1G 3G 8G13G16G20G23G27
   5208950.04349   4036200.52347  23982958.5334   23982957.6464
     -4057.2664
   -975209.89549   -760205.12747  23894832.4244   23894831.4754
       461.4694
  -2141418.88549  -1664984.96447  24074174.1744   24074173.0614
      1496.6094
    251534.76749    192051.06948  20808250.3144   20808245.9084
      -452.1874
   5304510.69349   4112000.28447  23755194.2134   23755191.0024
     -4217.6874
   6604214.69949   5115764.94747  24385213.8774   24385213.3774
     -5027.9534
   3594442.40249   2785448.43848  21400166.7134   21400160.9554
     -2972.0784
   -594993.45649   -465017.29048  22339585.3464   22339582.3614
       306.8754
 04  9  2 21  7 30.0020000  0  8G 1G 3G 8G13G16G20G23G27
   5269838.38549   4083645.92247  23994544.4794   23994544.6664
     -4061.1094
   -982080.18449   -765558.55347  23893524.8694   23893524.1074
       454.5164
  -2163849.04149  -1682462.97947  24069906.5254   24069904.7444
      1493.9064
    258366.63849    197374.60448  20809550.2524   20809545.6864
      -458.7194
   5367816.86649   4161329.76547  23767241.4474   23767237.4824
     -4223.0164
   6679648.18749   5174544.16047  24399568.3224   24399567.8734
     -5029.6564
   3639074.74149   2820226.87348  21408660.2914   21408654.1504
     -2978.7974
   -599571.08349   -468584.25748  22338714.0884   22338710.8854
       303.5314
 04  9  2 21  7 45.0020000  0  8G 1G 3G 8G13G16G20G23G27
   5330782.43549   4131134.73047  24006141.7214   24006141.6934
     -4065.0164
   -988847.32549   -770831.62847  23892236.4714   23892236.2054
       447.5314
  -2186239.97349  -1699910.46347  24065645.1194   24065643.8074
      1491.2974
    265295.55849    202773.77348  20810868.8774   20810864.6074
      -465.2974
   5431200.57549   4210719.64047  23779302.4634   23779299.2094
     -4228.3444
   6755105.45449   5233341.94447  24413927.8934   24413927.7174
     -5031.3754
   3683805.35349   2855081.88948  21417172.1044   21417166.2564
     -2985.4534
   -604100.52249   -472113.68748  22337851.9244   22337848.7604
       300.2664
 04  9  2 21  8  0.0020000  0  8G 1G 3G 8G13G16G20G23G27
   5391776.40849   4178662.44747  24017748.9244   24017748.1234
     -4068.3444
   -995516.69449   -776028.49247  23890968.3934   23890966.2994
       440.9534
  -2208597.25949  -1717331.67947  24061390.8224   24061389.7094
      1489.0634
    272316.13349    208244.35648  20812205.1434   20812200.3774
      -471.5004
   5494655.80449   4260165.24447  23791377.6504   23791374.4594
     -4233.0624
   6830580.49749   5292153.54047  24428289.6194   24428289.6234
     -5032.5944
   3728628.53049   2890009.03548  21425701.3774   21425695.0884
     -2991.7034
   -608587.29549   -475609.85848  22336998.2834   22336994.8464
       297.3134
 04  9  2 21  8 15.0020000  0  8G 1G 3G 8G13G16G20G23G27
   5452822.27249   4226230.61947  24029365.7684   24029364.8384
     -4071.5624
  -1002085.89949   -781147.32247  23889717.7914   23889716.8574
       434.5634
  -2230918.69749  -1734724.95947  24057143.3464   24057141.6504
      1486.7664
    279430.68349    213788.16848  20813558.6044   20813554.1824
      -477.4844
   5558184.23249   4309667.91147  23803466.2834   23803463.2604
     -4237.7344
   6906074.94949   5350980.30847  24442655.4864   24442655.1154
     -5033.6874
   3773546.20649   2925009.82448  21434249.0804   21434243.1434
     -2997.7194
   -613029.47349   -479071.28148  22336152.7834   22336149.6044
       294.5784
 04  9  2 21  8 30.0020000  0  8G 1G 3G 8G13G16G20G23G27
   5513920.34649   4273839.46347  24040992.0024   24040991.0064
     -4074.8124
  -1008554.41949   -786187.69547  23888486.9244   23888485.5254
       427.9534
  -2253204.16149  -1752090.23347  24052902.1504   24052901.1194
      1484.6254
    286639.67849    219405.56948  20814930.7754   20814926.1624
      -483.5944
   5621785.92749   4359227.65147  23815569.1194   23815566.4394
     -4242.3594
   6981588.76249   5409822.15547  24457025.8224   24457025.7684
     -5034.7664
   3818558.72349   2960084.49848  21442814.4794   21442808.5764
     -3003.7504
   -617426.75749   -482497.73048  22335316.1434   22335313.3504
       291.8594
 04  9  2 21  8 45.0020000  0  8G 1G 3G 8G13G16G20G23G27
   5575069.89349   4321488.41647  24052628.3384   24052628.0844
     -4078.2664
  -1014922.44749   -791149.74247  23887275.1584   23887274.1074
       421.1884
  -2275454.12249  -1769427.84247  24048668.3464   24048666.6544
      1482.2344
    293942.62049    225096.17448  20816320.0494   20816315.6464
      -489.9534
   5685459.94649   4408843.77047  23827686.9634   23827683.4474
     -4247.2194
   7057121.18249   5468678.48147  24471399.2914   24471399.0724
     -5036.1094
   3863665.45949   2995232.57848  21451398.0884   21451392.0924
     -3010.2974
   -621779.66049   -485889.58248  22334487.7444   22334484.6464
       288.7194
 04  9  2 21  9  0.0020000  0  8G 1G 3G 8G13G16G20G23G27
   5636268.68149   4369175.71547  24064273.8934   24064274.2294
     -4082.0474
  -1021191.72249   -796034.84147  23886081.9474   23886080.5844
       414.0784
  -2297670.76449  -1786739.49847  24044440.7754   24044438.7644
      1479.5474
    301337.40049    230858.33748  20817727.3384   20817722.7794
      -496.6094
   5749203.78649   4458514.26847  23839816.6274   23839813.6784
     -4252.4224
   7132669.62949   5527547.31747  24485776.1044   24485775.6584
     -5037.5944
   3908864.08849   3030452.28548  21459999.3224   21459993.1004
     -3016.8284
   -626090.53449   -489248.68648  22333667.3074   22333664.2714
       285.4694
 04  9  2 21  9 15.0020000  0  8G 1G 3G 8G13G16G20G23G27
   5697521.47449   4416905.11247  24075930.3144   24075929.9474
     -4085.4064
  -1027357.09349   -800839.00947  23884908.4554   23884907.3814
       407.4384
  -2319849.08449  -1804021.25647  24040219.9944   24040217.9674
      1477.1564
    308829.28349    236696.18148  20819153.0884   20819148.6464
      -502.7974
   5813021.99949   4508242.73547  23851960.6824   23851957.7094
     -4257.1254
   7208238.58949   5586432.15947  24500155.4474   24500156.2174
     -5038.6564
   3954159.63949   3065747.51048  21468618.5254   21468612.8384
     -3023.0624
   -630354.38349   -492571.16248  22332855.6114   22332852.9474
       282.5314
 04  9  2 21  9 30.0020000  0  8G 1G 3G 8G13G16G20G23G27
   5758827.53149   4464676.00647  24087597.2684   24087596.0724
     -4088.4844
  -1033418.92949   -805562.46647  23883755.8224   23883754.3184
       400.9534
  -2341989.73749  -1821273.68347  24036007.2524   24036005.6154
      1475.1724
    316417.74949    242609.27448  20820597.2604   20820592.6864
      -508.7344
   5876913.61149   4558028.37747  23864118.9324   23864115.5254
     -4261.5314
   7283826.99449   5645332.10147  24514539.2914   24514539.8894
     -5039.4374
   3999551.36349   3101117.67848  21477256.5334   21477250.5294
     -3028.9844
   -634571.96149   -495857.57348  22332053.4164   22332050.4984
       279.9694
 04  9  2 21  9 45.0020000  0  8G 1G 3G 8G13G16G20G23G27
   5820182.65949   4512485.16347  24099272.0414   24099271.8654
     -4092.6094
  -1039381.01949   -810208.24347  23882620.4944   23882619.3694
       393.5314
  -2364096.82849  -1838499.95947  24031800.1824   24031799.2054
      1472.0634
    324098.74149    248594.45948  20822058.4944   20822054.1784
      -515.6874
   5940874.16249   4607867.74947  23876290.4324   23876287.2444
     -4266.8754
   7359430.49349   5704243.77747  24528927.0884   24528926.8074
     -5041.3594
   4045035.02249   3136559.47248  21485911.4794   21485905.8544
     -3035.8444
   -638747.40449   -499111.14448  22331258.7134   22331256.1044
       276.3914
 04  9  2 21 10  0.0020000  0  8G 1G 3G 8G13G16G20G23G27
   5881589.25449   4560334.38047  24110956.7214   24110957.2484
     -4095.2814
  -1045240.63749   -814774.12347  23881504.8384   23881504.3774
       387.3284
  -2386167.78349  -1855698.05247  24027600.3464   24027598.6234
      1470.3134
    331875.05649    254653.93348  20823538.5334   20823533.8854
      -521.3754
   6004905.75649   4657762.49347  23888474.6824   23888471.3894
     -4270.9694
   7435051.17149   5763168.92047  24543316.8544   24543317.7604
     -5041.7194
   4090613.17649   3172074.89948  21494584.8464   21494579.1004
     -3041.5004
   -642878.26649   -502329.98748  22330472.8304   22330469.6584
       274.0784
 04  9  2 21 10 15.0020000  0  8G 1G 3G 8G13G16G20G23G27
   5943049.29749   4608225.27247  24122653.1044   24122653.3964
     -4098.9224
  -1050995.44749   -819258.36147  23880410.1044   23880409.2874
       380.2034
  -2408200.51149  -1872866.40247  24023406.6974   24023405.9594
      1467.6884
    339748.87249    260789.37448  20825036.7754   20825032.8224
      -528.0164
   6069010.11949   4707713.91247  23900674.0804   23900670.7094
     -4275.9064
   7510690.73349   5822108.73046  24557710.8224   24557711.0184
     -5043.1254
   4136287.79749   3207665.51548  21503276.4394   21503270.3344
     -3048.0784
   -646962.49349   -505512.48948  22329695.5494   22329692.5804
       270.9064
 04  9  2 21 10 30.0020000  0  8G 1G 3G 8G13G16G20G23G27
   6004560.54249   4656156.06147  24134358.7214   24134357.6934
     -4102.4374
  -1056647.20249   -823662.27547  23879334.5964   23879332.9944
       373.3444
  -2430197.09749  -1890006.57547  24019221.6274   24019220.1864
      1465.1094
    347718.17549    266999.22348  20826553.0644   20826549.1664
      -534.5004
   6133184.84649   4757720.16447  23912886.4394   23912881.9084
     -4280.6414
   7586346.63549   5881061.28746  24572107.3384   24572107.9824
     -5044.2504
   4182056.65749   3243329.54648  21511985.7054   21511980.0684
     -3054.4374
   -651002.39149   -508660.44848  22328926.9324   22328923.7714
       267.6884
 04  9  2 21 10 45.0020000  0  8G 1G 3G 8G13G16G20G23G27
   6066123.87949   4704127.43747  24146074.0024   24146072.7524
     -4105.9844
  -1062194.69049   -827984.95747  23878279.0494   23878277.9244
       366.3134
  -2452156.62549  -1907117.85947  24015042.8224   24015040.7484
      1462.7814
    355784.09049    273284.35548  20828087.9944   20828083.9474
      -541.0004
   6197430.45049   4807781.64947  23925110.8384   23925107.6044
     -4285.3914
   7662019.53849   5940027.10947  24586507.9324   24586507.7174
     -5045.4064
   4227920.67149   3279067.72148  21520713.5724   21520707.9394
     -3060.7974
   -654997.03149   -511773.13648  22328166.9394   22328163.5374
       264.7034
 04  9  2 21 11  0.0020000  0  8G 1G 3G 8G13G16G20G23G27
   6127734.38249   4752135.56447  24157797.7134   24157796.6044
     -4108.5784
  -1067642.47049   -832229.93447  23877242.9084   23877241.3934
       360.2194
  -2474083.96949  -1924204.05347  24010869.8774   24010868.4794
      1461.1414
    363941.88849    279641.09148  20829640.5494   20829636.3074
      -546.5314
   6261741.90049   4857894.45147  23937349.3304   23937346.0414
     -4289.2504
   7737704.34849   5999002.16346  24600910.6744   24600910.2324
     -5045.7034
   4273874.93549   3314876.22848  21529458.6274   21529452.8774
     -3066.2344
   -658951.10249   -514854.22248  22327414.0574   22327411.1274
       262.6724
 04  9  2 21 11 15.0020000  0  8G 1G 3G 8G13G16G20G23G27
   6189389.94749   4800178.83447  24169530.6194   24169529.6744
     -4111.5314
  -1072992.11049   -836398.45847  23876224.5494   23876223.2404
       353.6564
  -2495980.87449  -1941266.56347  24006703.2444   24006701.7294
      1459.1094
    372189.84649    286068.06348  20831209.4324   20831205.6894
      -552.5474
   6326116.80449   4908056.69147  23949599.7604   23949595.8814
     -4293.4374
   7813398.56149   6057984.55946  24615314.2444   24615314.7834
     -5046.3284
   4319917.45949   3350753.51548  21538220.2684   21538214.2404
     -3072.1094
   -662866.80149   -517905.39248  22326669.1664   22326666.1354
       260.1724
 04  9  2 21 11 30.0020000  0  8G 1G 3G 8G13G16G20G23G27
   6251092.34749   4848258.54547  24181271.7294   24181272.1434
     -4115.1254
  -1078241.48049   -840488.85947  23875225.5494   23875224.1934
       346.5784
  -2517845.49549  -1958303.93347  24002543.1974   24002541.0064
      1456.5634
    380530.10349    292566.98148  20832797.1664   20832792.3964
      -559.1564
   6390556.67549   4958269.57547  23961862.3934   23961859.0184
     -4298.1874
   7889103.86549   6116975.61546  24629720.6974   24629721.2604
     -5047.3914
   4366050.13349   3386701.03748  21546998.6354   21546992.8074
     -3078.5314
   -666742.15049   -520925.13048  22325931.6354   22325928.5924
       256.9844
 04  9  2 21 11 45.0020000  0  8G 1G 3G 8G13G16G20G23G27
   6312846.44749   4896378.57347  24193023.0574   24193023.4634
     -4118.8754
  -1083385.38549   -844497.04547  23874246.7444   23874245.4984
       339.2034
  -2539673.00749  -1975312.33447  23998389.1824   23998387.4714
      1453.6094
    388967.56349    299141.61348  20834402.9474   20834398.2834
      -566.0164
   6455066.15649   5008536.67147  23974137.3774   23974135.1044
     -4303.2504
   7964824.64849   6175978.72447  24644130.8304   24644130.7444
     -5048.7664
   4412277.84349   3422722.61648  21555795.5884   21555789.7794
     -3085.1874
   -670572.31049   -523909.65948  22325202.9864   22325199.7834
       253.5634
 04  9  2 21 12  0.0020000  0  8G 1G 3G 8G13G16G20G23G27
   6374647.77349   4944535.38547  24204784.2214   24204783.7874
     -4121.4224
  -1088427.85049   -848426.19047  23873287.2214   23873285.9284
       333.0784
  -2561467.77649  -1992295.23947  23994242.0184   23994239.8694
      1452.0944
    397497.98749    305788.70648  20836026.0884   20836022.0494
      -571.4694
   6519640.62749   5058854.41447  23986426.4714   23986423.4634
     -4306.9064
   8040556.29649   6234990.24347  24658541.1824   24658542.0574
     -5048.8754
   4458596.09749   3458814.73648  21564609.7054   21564604.0334
     -3090.6564
   -674361.68649   -526862.40548  22324481.9004   22324478.9594
       251.5164
 04  9  2 21 12 15.0020000  0  8G 1G 3G 8G13G16G20G23G27
   6436493.79749   4992727.02947  24216552.6664   24216552.4124
     -4124.9064
  -1093370.91749   -852277.88647  23872346.6044   23872344.8854
       325.9844
  -2583231.90149  -2009254.26647  23990099.3854   23990098.0214
      1449.6414
    406119.31049    312506.62148  20837666.2754   20837662.0254
      -578.0784
   6584277.19149   5109220.54047  23998725.6194   23998723.2954
     -4311.4694
   8116296.06349   6294008.18046  24672954.0184   24672954.7404
     -5049.8594
   4505002.46749   3494975.53448  21573440.7604   21573434.5924
     -3097.0474
   -678112.70549   -529785.25948  22323767.5414   22323764.8934
       248.4694
 04  9  2 21 12 30.0020000  0  8G 1G 3G 8G13G16G20G23G27
   6498388.83549   5040956.87947  24228331.5184   24228330.9284
     -4127.9534
  -1098210.00649   -856048.58847  23871425.7364   23871424.2444
       319.0634
  -2604960.98749  -2026185.99547  23985965.4324   23985963.1464
      1447.3594
    414836.02849    319298.86848  20839325.4004   20839320.8264
      -584.2814
   6648979.92849   5159638.22447  24011038.1114   24011035.3504
     -4315.6874
   8192048.07049   6353035.62147  24687369.6974   24687370.1584
     -5050.7194
   4551501.30349   3531208.37848  21582289.1894   21582283.2994
     -3103.0004
   -681821.03249   -532674.85248  22323062.1044   22323058.9714
       245.7504
 04  9  2 21 12 45.0020000  0  8G 1G 3G 8G13G16G20G23G27
   6560331.57449   5089223.89147  24240118.2754   24240117.8224
     -4130.9064
  -1102946.00849   -859738.95947  23870523.7914   23870522.6894
       312.4534
  -2626656.40149  -2043091.49547  23981835.9864   23981834.7754
      1445.3914
    423647.14249    326164.67548  20841002.0724   20840997.2214
      -590.4374
   6713747.45649   5210106.44147  24023363.3544   24023359.8694
     -4319.9224
   8267810.68449   6412071.31646  24701786.5884   24701786.4864
     -5051.0314
   4598091.31749   3567512.27448  21591154.4004   21591148.9904
     -3108.8754
   -685487.83249   -535532.08548  22322364.1354   22322361.5644
       243.1724
 04  9  2 21 13  0.0020000  0  8G 1G 3G 8G13G16G20G23G27
   6622323.57849   5137529.29747  24251915.4004   24251914.9984
     -4134.5164
  -1107576.98949   -863347.47747  23869643.1114   23869641.9754
       305.1564
  -2648316.32749  -2059969.32847  23977714.7364   23977713.5294
      1442.7034
    432554.36449    333105.36648  20842696.9004   20842692.5414
      -597.1564
   6778580.97549   5260626.04147  24035701.1194   24035697.8344
     -4324.5164
   8343585.23249   6471116.34747  24716206.7914   24716207.0294
     -5052.2194
   4644774.14349   3603888.48448  21600038.2684   21600032.8614
     -3115.3914
   -689111.48549   -538355.69548  22321674.5574   22321671.4364
       240.0314
 04  9  2 21 13 15.0020000  0  8G 1G 3G 8G13G16G20G23G27
   6684364.04149   5185872.44847  24263721.3304   24263720.8504
     -4137.4064
  -1112103.35249   -866874.47347  23868781.0964   23868780.9284
       298.4844
  -2669941.40549  -2076820.03047  23973599.3934   23973598.2754
      1440.8134
    441557.29249    340120.63648  20844410.0884   20844405.9714
      -603.0784
   6843479.42849   5311196.23747  24048050.9474   24048047.4864
     -4328.4224
   8419370.73549   6530169.83946  24730628.0334   24730628.2874
     -5052.5004
   4691549.03649   3640336.43548  21608939.2134   21608933.5574
     -3121.1254
   -692692.79549   -541146.32148  22320993.3224   22320990.3464
       237.5314
 04  9  2 21 13 30.0020000  0  8G 1G 3G 8G13G16G20G23G27
   6746448.95949   5234250.22847  24275535.4394   24275535.1274
     -4140.9064
  -1116528.61949   -870322.70047  23867939.4474   23867938.6434
       291.2194
  -2691535.43249  -2093646.52547  23969490.2994   23969488.7754
      1438.0164
    450652.17949    347207.55948  20846140.9004   20846136.3384
      -609.8594
   6908438.75549   5361813.86547  24060412.5334   24060409.2134
     -4333.1094
   8495162.92549   6589228.58946  24745051.1504   24745051.4984
     -5053.5164
   4738412.13649   3676853.12748  21617856.6044   21617851.2174
     -3127.6414
   -696235.63349   -543906.95648  22320319.0804   22320316.2014
       234.4694
 04  9  2 21 13 45.0020000  0  8G 1G 3G 8G13G16G20G23G27
   6808585.35949   5282668.16747  24287359.9474   24287359.5184
     -4144.5004
  -1120845.43949   -873686.42447  23867117.8074   23867116.3814
       283.8754
  -2713091.45749  -2110443.38047  23965387.9864   23965386.8184
      1435.5474
    459846.21349    354371.75748  20847890.6894   20847886.1074
      -616.5314
   6973465.51349   5412484.05547  24072786.1974   24072783.3114
     -4337.6094
   8570968.50949   6648297.77446  24759476.2054   24759477.0804
     -5054.4224
   4785370.29349   3713443.88448  21626792.7754   21626787.3774
     -3134.0004
   -699732.94449   -546632.11848  22319653.6434   22319650.2954
       231.4384
 04  9  2 21 14  0.0020000  0  8G 1G 3G 8G13G16G20G23G27
   6870777.83049   5331129.76947  24299194.4634   24299194.5534
     -4147.4694
  -1125048.87149   -876961.78947  23866317.9244   23866317.0964
       277.0314
  -2734604.82449  -2127207.01647  23961294.4554   23961292.8184
      1433.2814
    469144.31349    361617.01848  20849660.0964   20849655.5534
      -622.7974
   7038564.19549   5463210.26947  24085173.4394   24085171.0534
     -4341.6724
   8646791.81549   6707380.73946  24773905.5024   24773905.8934
     -5054.9374
   4832428.33849   3750112.47348  21635747.5414   21635742.3504
     -3140.0004
   -703180.12149   -549318.22548  22318997.3694   22318994.3424
       228.7034
 04  9  2 21 14 15.0020000  0  7G 1G 3G 8G13G16G23G27
   6933011.47449   5379623.49547  24311037.1114   24311037.2054
     -4150.4694
  -1129153.39349   -880160.07147  23865536.8224   23865535.6744
       270.1414
  -2756090.17849  -2143948.82747  23957205.8614   23957204.3694
      1431.3134
    478531.76949    368931.91648  20851446.3074   20851441.8934
      -628.9534
   7103719.69649   5513980.77847  24097572.5254   24097569.5214
     -4345.6874
   4879571.42049   3786847.33348  21644718.6824   21644713.1274
     -3145.8124
   -706591.86549   -551976.71648  22318348.4634   22318345.3814
       226.1414
 04  9  2 21 14 30.0020000  0  7G 1G 3G 8G13G16G23G27
   6995291.79549   5428153.55147  24322888.3224   24322888.8774
     -4153.7194
  -1133153.06649   -883276.69947  23864775.1974   23864774.2174
       263.0004
  -2777541.86249  -2160664.40047  23953123.4944   23953121.5724
      1428.7974
    488014.29549    376320.91048  20853250.8544   20853246.7484
      -635.5164
   7168937.08449   5564799.51247  24109982.4324   24109979.5684
     -4350.0164
   4926804.99449   3823652.70248  21653707.4164   21653701.1584
     -3152.1724
   -709962.78349   -554603.38948  22317706.3774   22317704.0534
       223.1564
 04  9  2 21 14 45.0020000  0  7G 1G 3G 8G13G16G23G27
   7057625.35749   5476725.10247  24334749.9634   24334750.4284
     -4156.9534
  -1137040.79049   -886306.04747  23864036.4554   23864034.7174
       255.7664
  -2798953.33549  -2177348.66347  23949049.4004   23949047.8544
      1426.4694
    497598.97349    383789.48348  20855074.5494   20855070.2094
      -642.0164
   7234222.85849   5615671.50747  24122406.4394   24122403.5024
     -4354.2814
   4974135.70649   3860533.74848  21662713.5494   21662708.3614
     -3158.2034
   -713286.16449   -557193.02748  22317074.2444   22317071.3614
       220.3594
 04  9  2 21 15  0.0020000  0  7G 1G 3G 8G13G16G23G27
   7120006.55649   5525333.76447  24346620.8934   24346621.0414
     -4159.9224
  -1140821.83649   -889252.27447  23863315.8614   23863315.1824
       248.7974
  -2820329.86949  -2194005.67247  23944980.8144   23944979.3224
      1424.2034
    507280.27249    391333.35548  20856917.0024   20856912.3774
      -648.2504
   7299571.29249   5666592.33847  24134841.9394   24134839.2134
     -4358.2194
   5021558.04749   3897486.21648  21671737.9714   21671732.3504
     -3164.2034
   -716567.48749   -559749.89448  22316449.9164   22316446.8694
       217.7034
 04  9  2 21 15 15.0020000  0  7G 1G 3G 8G13G16G23G27
   7182435.38749   5573979.51747  24358500.9244   24358500.7564
     -4163.2504
  -1144495.82049   -892115.08347  23862617.7214   23862616.1314
       241.4384
  -2841671.28749  -2210635.31247  23940920.9324   23940918.7754
      1421.6884
    517058.44849    398952.71748  20858777.3304   20858773.1234
      -654.9844
   7364982.00749   5717561.71947  24147289.7684   24147286.2684
     -4362.6564
   5069072.02949   3934510.08448  21680779.2364   21680773.7214
     -3170.5004
   -719806.65149   -562273.90348  22315833.5804   22315830.7324
       214.6414
 04  9  2 21 15 30.0020000  0  7G 1G 3G 8G13G16G23G27
   7244915.36049   5622665.17747  24370391.2994   24370390.7134
     -4167.2194
  -1148058.96449   -894891.54047  23861939.3074   23861937.9244
       233.6884
  -2862973.97949  -2227234.77947  23936866.2604   23936865.3074
      1418.7194
    526937.37749    406650.58248  20860657.4794   20860653.0534
      -662.0784
   7430458.28649   5768582.16847  24159748.8384   24159746.0574
     -4367.4844
   5116681.20249   3971608.10748  21689839.4004   21689834.0574
     -3177.2974
   -723000.08949   -564762.28348  22315225.7684   22315222.9004
       211.2034
 04  9  2 21 15 45.0020000  0  7G 1G 3G 8G13G16G23G27
   7307445.32249   5671389.73747  24382289.3304   24382290.1624
     -4170.2034
  -1151511.98049   -897582.19747  23861281.8694   23861280.7604
       226.8444
  -2884238.98649  -2243804.90947  23932819.6354   23932818.3034
      1416.7034
    536916.08149    414426.20148  20862556.3304   20862552.1354
      -668.3444
   7495998.81149   5819652.67447  24172220.8614   24172218.1704
     -4371.2974
   5164384.49849   4008779.50348  21698916.8384   21698911.1074
     -3183.2344
   -726149.01049   -567215.98848  22314626.5024   22314623.5644
       208.6254
 04  9  2 21 16  0.0020000  0  7G 1G 3G 8G13G16G23G27
   7370021.40849   5720150.28947  24394198.1744   24394198.1744
     -4173.0624
  -1154858.25849   -900189.65347  23860645.3544   23860643.8854
       219.8134
  -2905470.07349  -2260348.60147  23928779.9004   23928777.9864
      1414.6094
    546991.11349    422276.87148  20864473.7214   20864468.9284
      -674.5784
   7561599.49349   5870770.06847  24184704.3464   24184701.5884
     -4375.0474
   5212178.01349   4046021.18548  21708011.8384   21708006.0614
     -3189.0004
   -729257.03649   -569637.81848  22314035.1584   22314032.2364
       206.1414
 04  9  2 21 16 15.0020000  0  7G 1G 3G 8G13G16G23G27
   7432646.17949   5768948.76347  24406114.8074   24406115.4554
     -4176.3124
  -1158094.95049   -902711.71747  23860030.1974   23860027.9084
       212.4064
  -2926664.37649  -2276863.60147  23924746.5574   23924745.2874
      1412.0164
    557165.15849    430204.70448  20866409.4324   20866405.2794
      -681.2814
   7627262.59849   5921936.10147  24197199.5494   24197197.0104
     -4379.2974
   5260064.33549   4083335.18148  21717124.4864   21717118.7404
     -3195.2344
   -732321.64249   -572025.81248  22313452.2994   22313448.8344
       203.0944
 04  9  2 21 16 30.0020000  0  7G 1G 3G 8G13G16G23G27
   7495317.15049   5817783.23247  24418040.7054   24418041.1464
     -4179.8284
  -1161224.20449   -905150.02247  23859433.7834   23859431.8144
       204.8444
  -2947824.62849  -2293352.09147  23920720.1114   23920718.4984
      1409.4694
    567435.87649    438207.86548  20868363.9944   20868359.8854
      -688.0314
   7692985.47749   5973148.71047  24209706.2754   24209703.2834
     -4383.7034
   5308041.07249   4120719.64648  21726253.2684   21726248.4514
     -3201.5314
   -735345.26449   -574381.87948  22312876.6974   22312873.7524
       200.0944
 04  9  2 21 16 45.0020000  0  7G 1G 3G 8G13G16G23G27
   7558041.37149   5866659.16947  24429976.4554   24429976.6824
     -4183.2344
  -1164238.49549   -907498.85747  23858860.7754   23858858.9904
       197.2034
  -2968943.37949  -2309808.22747  23916701.0254   23916699.0494
      1406.7504
    577810.63749    446292.09948  20870338.6354   20870334.0294
      -694.9374
   7758774.92549   6024413.18747  24222225.5414   24222222.6664
     -4388.0784
   5356115.34549   4158180.11148  21735402.2524   21735396.4674
     -3208.0314
   -738320.73249   -576700.41848  22312310.4554   22312307.3814
       196.8754
 04  9  2 21 17  0.0020000  0  7G 1G 3G 8G13G16G23G27
   7620813.18349   5915572.23147  24441922.3694   24441922.1074
     -4186.4374
  -1167143.16749   -909762.20047  23858307.9164   23858306.1044
       190.0474
  -2990026.46449  -2326236.58047  23912689.1194   23912687.4394
      1404.3134
    588284.18549    454453.29248  20872331.3854   20872326.9594
      -701.5474
   7824624.96149   6075724.89447  24234756.2914   24234753.3464
     -4392.1094
   5404281.48349   4195712.13848  21744567.7684   21744562.0024
     -3214.1874
   -741253.75449   -578985.87348  22311751.9474   22311748.9794
       194.0474
 04  9  2 21 17 15.0020000  0  7G 1G 3G 8G13G16G23G27
   7683635.49649   5964524.61347  24453876.7294   24453877.1544
     -4189.7504
  -1169934.77549   -911937.44147  23857776.2914   23857774.7524
       182.4534
  -3011070.61949  -2342634.59147  23908684.0804   23908683.3934
      1401.8134
    598859.69849    462693.94748  20874343.5724   20874339.3774
      -708.2664
   7890538.33549   6127085.92247  24247299.1584   24247296.4944
     -4396.1874
   5452542.61949   4233318.20148  21753751.8774   21753746.3074
     -3220.4534
   -744141.23349   -581235.84248  22311202.8774   22311199.5254
       191.1564
 04  9  2 21 17 30.0020000  0  7G 1G 3G 8G13G16G23G27
   7746508.39849   6013516.39147  24465840.7444   24465841.2444
     -4192.8914
  -1172612.92049   -914024.29347  23857266.2754   23857265.3304
       174.9844
  -3032075.44749  -2359001.98147  23904688.0574   23904685.4794
      1399.2504
    609537.58049    471014.38348  20876375.6664   20876371.4474
      -715.0474
   7956514.93249   6178496.24247  24259854.3544   24259851.7604
     -4400.2504
   5500898.80949   4270998.33548  21762953.8544   21762948.0254
     -3226.6564
   -746982.86049   -583450.10048  22310662.1894   22310659.1894
       188.1724
 04  9  2 21 17 45.0020000  0  7G 1G 3G 8G13G16G23G27
   7809429.73549   6062545.97547  24477814.8304   24477814.8654
     -4196.0784
  -1175179.56249   -916024.23647  23856778.4084   23856776.2794
       167.7344
  -3053043.17749  -2375340.45047  23900697.4084   23900695.2994
      1397.0164
    620315.73249    479412.94048  20878426.9394   20878422.1274
      -721.5944
   8022552.24449   6229953.86947  24272421.0644   24272418.0184
     -4404.1414
   5549347.85049   4308750.82548  21772173.4864   21772167.7324
     -3232.7504
   -749781.01349   -585630.47548  22310129.6584   22310126.8654
       185.4064
 04  9  2 21 18  0.0020000  0  7G 1G 3G 8G13G16G23G27
   7872396.83249   6111611.17647  24489796.4554   24489797.2214
     -4199.2974
  -1177636.76949   -917938.93247  23856311.1354   23856309.0884
       160.0944
  -3073976.29649  -2391651.93647  23896713.7994   23896712.2404
      1394.3284
    631191.81749    487887.82048  20880496.1504   20880492.3034
      -728.4224
   8088647.51549   6281456.68047  24284998.6894   24284995.8934
     -4408.3284
   5597887.15449   4346573.64648  21781410.1274   21781403.8614
     -3239.0314
   -752538.04949   -587778.80348  22309604.7834   22309601.9474
       182.3914
 04  9  2 21 18 15.0020000  0  7G 1G 3G 8G13G16G23G27
   7935412.46349   6160714.21947  24501789.1274   24501788.4674
     -4202.2344
  -1179981.32949   -919765.82947  23855864.6974   23855862.3344
       152.9384
  -3094871.84049  -2407934.15247  23892737.5494   23892735.6504
      1392.1564
    642168.84349    496441.34148  20882585.2134   20882580.8224
      -734.7814
   8154803.32049   6333006.63847  24297587.4324   24297584.2874
     -4412.0164
   5646519.62049   4384469.06848  21790664.4004   21790658.7054
     -3244.9374
   -755251.22349   -589892.95548  22309088.4084   22309085.9674
       179.7344
 04  9  2 21 18 30.0020000  0  7G 1G 3G 8G13G16G23G27
   7998472.75149   6209852.05347  24513788.3934   24513788.6504
     -4205.5624
  -1182216.74849   -921507.68847  23855438.9864   23855437.1664
       145.1884
  -3115733.53849  -2424189.99347  23888767.4324   23888765.6584
      1389.4844
    653243.30649    505070.80448  20884692.8854   20884688.6664
      -741.6874
   8221015.50149   6384600.49847  24310187.4714   24310184.4864
     -4416.2504
   5695241.30149   4422434.00548  21799935.7604   21799929.9474
     -3251.2344
   -757924.29949   -591975.86448  22308580.0574   22308576.4944
       176.7194
 04  9  2 21 18 45.0020000  0  7G 1G 3G 8G13G16G23G27
   8061581.67649   6259027.76447  24525797.7364   24525798.0884
     -4208.7194
  -1184338.80349   -923161.22247  23855035.0574   23855033.4124
       137.8284
  -3136557.19449  -2440416.20047  23884805.1664   23884803.0644
      1387.0944
    664419.27249    513779.34248  20886819.4244   20886815.1824
      -748.3754
   8287287.82249   6436241.24347  24322798.3304   24322795.6074
     -4420.0164
   5744056.15849   4460471.53448  21809225.3384   21809218.9284
     -3257.2664
   -760553.31849   -594024.44548  22308079.6044   22308076.7254
       173.9064
 04  9  2 21 19  0.0020000  0  7G 1G 3G 8G13G16G23G27
   8124739.43749   6308241.51747  24537816.5574   24537816.8894
     -4212.0944
  -1186346.91049   -924725.93047  23854652.8694   23854651.2714
       130.1884
  -3157342.62649  -2456612.62547  23880849.7444   23880847.8464
      1384.6094
    675697.28449    522567.40848  20888965.7754   20888961.2174
      -755.1094
   8353620.24649   6487928.83247  24335421.4084   24335418.0214
     -4423.9694
   5792964.53149   4498581.93648  21818532.2054   21818526.1824
     -3263.5474
   -763137.97249   -596038.44248  22307587.9864   22307584.9984
       170.9064
 04  9  2 21 19 15.0020000  0  7G 1G 3G 8G13G16G23G27
   8187944.71749   6357492.35447  24549843.9554   24549844.2834
     -4215.4694
  -1188242.00949   -926202.63547  23854292.3694   23854290.8224
       122.3754
  -3178091.16849  -2472780.28147  23876901.2524   23876899.6114
      1381.7504
    687076.33049    531434.19548  20891130.8074   20891126.8464
      -762.1874
   8420011.16449   6539661.99147  24348054.6194   24348052.2914
     -4428.1094
   5841965.05849   4536764.14648  21827856.3544   21827850.2294
     -3269.9534
   -765679.47449   -598018.83448  22307104.2054   22307101.2014
       167.7974
 04  9  2 21 19 30.0020000  0  7G 1G 3G 8G13G16G23G27
   8251198.50849   6406780.97447  24561880.3614   24561881.1274
     -4218.6254
  -1190022.65149   -927590.11847  23853953.3464   23853952.0804
       114.8594
  -3198801.47949  -2488918.16047  23872960.6744   23872958.7444
      1379.2974
    698557.70349    540380.72548  20893315.4084   20893311.2684
      -768.9064
   8486461.42549   6591441.39247  24360699.7914   24360696.9554
     -4431.9844
   5891058.84849   4575019.04248  21837199.1744   21837192.7254
     -3276.1094
   -768176.74649   -599964.75648  22306628.9324   22306626.0254
       165.0314
 04  9  2 21 19 45.0020000  0  7G 1G 3G 8G13G16G23G27
   8314495.52249   6456103.25847  24573925.6664   24573925.8114
     -4221.3914
  -1191693.81249   -928892.30747  23853635.6044   23853634.2254
       107.5314
  -3219478.76449  -2505030.29847  23869025.8144   23869024.0334
      1377.1884
    710136.25949    549402.96248  20895518.8544   20895514.5214
      -775.3124
   8552965.62349   6643262.84147  24373354.6274   24373352.4634
     -4435.6564
   5940240.73249   4613342.57148  21846558.1504   21846552.2404
     -3281.9374
   -770634.97349   -601880.24648  22306161.2994   22306158.0374
       162.3754
 04  9  2 21 20  0.0020000  0  7G 1G 3G 8G13G16G23G27
   8377842.37349   6505464.39847  24585980.0104   24585981.0614
     -4224.9224
  -1193248.39449   -930103.63147  23853340.2364   23853338.6154
        99.5944
  -3240116.07249  -2521111.29947  23865098.6894   23865096.0414
      1374.3134
    721818.97349    558506.39148  20897742.4164   20897738.0924
      -782.4534
   8619530.12249   6695131.23247  24386021.7294   24386019.1044
     -4439.7504
   5989517.28949   4651739.88348  21855934.6974   21855928.7524
     -3288.4064
   -773047.47949   -603760.10948  22305702.0334   22305698.6274
       159.1724
 04  9  2 21 20 15.0020000  0  7G 1G 3G 8G13G16G23G27
   8441239.29949   6554864.49647  24598044.3854   24598045.2834
     -4227.9224
  -1194685.84149   -931223.71747  23853066.4394   23853065.2684
        92.0784
  -3260713.20649  -2537160.98547  23861178.8854   23861177.3034
      1372.0314
    733606.27449    567691.29548  20899985.1824   20899981.0724
      -789.1254
   8686154.91049   6747046.64047  24398700.2684   24398697.9364
     -4443.4374
   6038888.78449   4690211.16248  21865330.0964   21865324.1974
     -3294.4374
   -775414.00349   -605604.14848  22305251.9004   22305248.5924
       156.3594
 04  9  2 21 20 30.0020000  0  7G 1G 3G 8G13G16G23G27
   8504682.81749   6604300.95047  24610117.8614   24610118.6544
     -4230.8914
  -1196009.16149   -932254.84247  23852814.4164   23852812.8734
        84.6094
  -3281273.48949  -2553181.96747  23857266.2444   23857264.1464
      1369.6254
    745495.08349    576955.29548  20902247.6434   20902243.1894
      -795.8124
   8752836.21049   6799006.06947  24411389.6504   24411386.9904
     -4447.2034
   6088351.88149   4728753.81348  21874742.7604   21874736.4164
     -3300.3754
   -777737.83849   -607414.91548  22304809.5024   22304806.4394
       153.6884
 04  9  2 21 20 45.0020000  0  7G 1G 3G 8G13G16G23G27
   8568173.91549   6653774.47747  24622199.2524   24622200.3034
     -4234.2504
  -1197217.05049   -933196.03147  23852584.4004   23852582.7294
        76.6884
  -3301795.74049  -2569173.30147  23853361.3694   23853358.5294
      1367.0004
    757486.54249    586299.29748  20904529.8384   20904525.4394
      -802.8914
   8819574.83249   6851010.17047  24424089.9554   24424087.1784
     -4451.1564
   6137907.46849   4767368.54748  21884172.8224   21884166.7404
     -3306.7664
   -780018.00249   -609191.65348  22304375.3774   22304372.6464
       150.5634
 04  9  2 21 21  0.0020000  0  7G 1G 3G 8G13G16G23G27
   8631713.05049   6703285.41047  24634290.7294   24634290.6584
     -4237.7664
  -1198308.78749   -934046.70847  23852376.3224   23852375.1784
        68.7194
  -3322279.41949  -2585134.57147  23849462.8614   23849461.0184
      1363.9384
    769581.23749    595723.74148  20906831.1044   20906826.9864
      -810.0314
   8886370.88049   6903059.01947  24436800.1894   24436797.5924
     -4455.2344
   6187556.11749   4806055.79348  21893620.1434   21893614.8814
     -3313.3124
   -782253.98749   -610933.97148  22303949.9554   22303947.2834
       147.3134
 04  9  2 21 21 15.0020000  0  7G 1G 3G 8G13G16G23G27
   8695299.23749   6752833.02347  24646390.6824   24646391.2794
     -4240.1874
  -1199284.73649   -934807.15847  23852190.8464   23852189.0334
        61.6414
  -3342725.52749  -2601066.59847  23845572.2214   23845570.2214
      1362.2344
    781778.62049    605228.19848  20909152.2994   20909148.2714
      -816.1564
   8953223.21249   6955151.71847  24449522.0644   24449518.8184
     -4458.1874
   6237296.88249   4844814.81648  21903085.6504   21903080.3344
     -3318.6564
   -784446.58449   -612642.47148  22303532.9004   22303529.7604
       145.1414
 04  9  2 21 21 30.0020000  0  7G 1G 3G 8G13G16G23G27
   8758930.45149   6802415.75947  24658499.9474   24658499.6974
     -4243.4844
  -1200146.70149   -935478.79247  23852026.6434   23852025.0644
        53.7034
  -3363135.81249  -2616970.68547  23841688.3614   23841686.3224
      1359.5164
    794077.01649    614811.35548  20911492.8694   20911488.2484
      -823.2344
   9020129.73249   7007286.66447  24462253.9554   24462250.9824
     -4462.2814
   6287127.78349   4883644.06948  21912568.3384   21912562.1624
     -3325.0004
   -786597.83949   -614318.76248  22303123.7684   22303120.5294
       142.1414
 04  9  2 21 21 45.0020000  0  7G 1G 3G 8G13G16G23G27
   8822606.51949   6852033.37747  24670616.2834   24670617.1394
     -4246.6874
  -1200894.37749   -936061.37247  23851884.5024   23851883.4434
        45.9384
  -3383510.16949  -2632846.78747  23837811.6504   23837809.2564
      1356.9384
    806476.27849    624473.12048  20913852.0334   20913847.7054
      -830.0474
   9087089.98949   7059463.45247  24474995.6194   24474993.4864
     -4465.9374
   6337048.58649   4922543.39148  21922068.0724   21922061.8734
     -3331.1094
   -788707.93449   -615962.98548  22302721.7994   22302718.9944
       139.2344
 04  9  2 21 22  0.0020000  0  7G 1G 3G 8G13G16G23G27
   8886327.70449   6901686.17547  24682742.6664   24682743.3934
     -4249.7194
  -1201527.25549   -936554.48147  23851763.7364   23851763.0844
        38.1884
  -3403848.25649  -2648694.62447  23833941.3074   23833938.6824
      1354.5164
    818977.04749    634213.98748  20916231.0414   20916226.5724
      -836.8754
   9154104.04749   7111682.17947  24487748.5644   24487745.5844
     -4469.5624
   6387059.65549   4961513.04048  21931584.8544   21931578.8814
     -3337.2974
   -790776.35649   -617574.72848  22302328.5024   22302324.9984
       136.3754
 04  9  2 21 22 15.0020000  0  7G 1G 3G 8G13G16G23G27
   8950093.96349   6951374.13747  24694876.3544   24694876.8774
     -4252.8444
  -1202044.95949   -936957.87747  23851665.1194   23851664.1464
        30.4064
  -3424150.16849  -2664514.26447  23830078.0184   23830076.4634
      1352.0164
    831579.46249    644034.05048  20918629.0184   20918624.8934
      -843.8444
   9221171.67249   7163942.64047  24500511.1044   24500508.3964
     -4473.1724
   6437160.96949   5000553.01848  21941118.9004   21941113.1464
     -3343.3444
   -792803.12949   -619154.02648  22301942.7604   22301939.3384
       133.4844
 04  9  2 21 22 30.0020000  0  7G 1G 3G 8G13G16G23G27
   9013910.28949   7001101.09946  24707019.8304   24707021.1194
     -4255.7194
  -1202442.16549   -937267.34747  23851590.2754   23851588.7754
        22.7974
  -3444410.73949  -2680301.69747  23826221.5184   23826220.5064
      1349.6094
    844288.89849    653937.50248  20921047.4634   20921042.9044
      -850.5314
   9288297.59449   7216248.52847  24513284.6114   24513282.1664
     -4476.7034
   6487357.58249   5039667.24448  21950670.8144   21950665.0414
     -3349.2664
   -794783.11749   -620696.85848  22301565.6504   22301562.9394
       130.7974
 04  9  2 21 22 45.0020000  0  7G 1G 3G 8G13G16G23G27
   9077771.33449   7050862.87647  24719171.8144   24719173.3934
     -4258.9064
  -1202723.82949   -937486.80447  23851536.3074   23851534.7294
        14.8914
  -3464635.18149  -2696060.99147  23822373.5494   23822371.8544
      1347.2194
    857100.15749    663920.30248  20923485.2134   20923480.9474
      -857.4374
   9355476.18249   7268595.44347  24526068.1194   24526065.7444
     -4480.3284
   6537644.19349   5078851.61848  21960240.1434   21960234.2254
     -3355.4224
   -796721.65749   -622207.39148  22301196.8304   22301193.7294
       127.9064
 04  9  2 21 23  0.0020000  0  6G 3G 8G13G16G23G27
  -1202890.60249   -937616.72647  23851503.8694   23851503.3224
         7.0004
  -3484824.04449  -2711792.54447  23818531.7214   23818529.7994
      1344.4534
    870012.55849    673981.91648  20925942.7524   20925938.2174
      -864.4694
   9422706.27149   7320982.51247  24538861.5884   24538859.5294
     -4483.9694
   6588019.90149   5118105.40248  21969826.3694   21969820.7294
     -3361.6564
   -798619.65049   -623686.33848  22300835.6504   22300832.7754
       124.8754
 04  9  2 21 23 15.0020000  0  6G 3G 8G13G16G23G27
  -1202936.37749   -937652.36747  23851495.3774   23851494.5374
        -0.6724
  -3504971.61349  -2727491.93247  23814697.4084   23814695.9864
      1342.0634
    883032.08849    684127.00648  20928420.1824   20928415.9674
      -871.2974
   9489993.34149   7373413.97747  24551666.0804   24551663.1864
     -4487.3914
   6638490.37649   5157433.01648  21979430.5414   21979424.4594
     -3367.5784
   -800471.27349   -625129.14948  22300483.3774   22300480.5924
       122.1564
 04  9  2 21 23 30.0020000  0  6G 3G 8G13G16G23G27
  -1202866.45349   -937597.85947  23851509.5884   23851507.7914
        -8.4374
  -3525083.51849  -2743163.52347  23810870.7604   23810869.0254
      1339.6414
    896153.33649    694351.35348  20930916.6354   20930912.7174
      -878.1254
   9557331.49449   7425885.28947  24564479.7444   24564476.8814
     -4490.8594
   6689049.94749   5196830.07748  21989051.7994   21989045.8144
     -3373.5944
   -802282.20749   -626540.26148  22300138.8224   22300135.9284
       119.4064
 04  9  2 21 23 45.0020000  0  6G 3G 8G13G16G23G27
  -1202681.55649   -937453.75947  23851544.3224   23851542.6784
       -16.1094
  -3545161.01449  -2758808.29247  23807050.0964   23807047.7294
      1337.4694
    909375.39149    704654.25648  20933433.0964   20933428.7914
      -884.7194
   9624719.36849   7478395.27447  24577303.7134   24577301.1234
     -4493.9694
   6739697.53349   5236295.71348  21998689.4324   21998683.8814
     -3379.3124
   -804053.44549   -627920.43348  22299801.8304   22299798.8264
       116.8754
 04  9  2 21 24  0.0020000  0  6G 3G 8G13G16G23G27
  -1202381.42949   -937219.85147  23851600.9944   23851599.2444
       -23.4224
  -3565203.73249  -2774425.98647  23803236.1354   23803234.2484
      1335.4224
    922698.40549    715035.83248  20935968.3854   20935964.5414
      -891.1874
   9692156.75949   7530943.86647  24590136.6114   24590133.5064
     -4497.0784
   6790433.07549   5275829.88448  22008344.1744   22008338.4944
     -3384.9534
   -805784.97549   -629269.66948  22299472.2604   22299468.9904
       114.5634
 04  9  2 21 24 15.0020000  0  6G 3G 8G13G16G23G27
  -1201962.91449   -936893.71547  23851681.1434   23851679.1044
       -31.8754
  -3585208.66549  -2790014.21447  23799429.3144   23799426.7294
      1332.3444
    936125.41249    725498.43748  20938523.4394   20938519.0884
      -898.6094
   9759646.21349   7583533.02947  24602979.5414   24602976.6624
     -4501.0624
   6841259.47249   5315434.86148  22018016.1354   22018010.5294
     -3391.4844
   -807473.97449   -630585.76448  22299150.6504   22299147.4794
       111.1564
 04  9  2 21 24 30.0020000  0  6G 3G 8G13G16G23G27
  -1201422.09949   -936472.27247  23851783.7364   23851782.6744
       -39.7814
  -3605171.95449  -2805570.01247  23795630.3614   23795628.1704
      1329.7814
    949660.27749    736045.08948  20941099.2364   20941094.5294
      -905.6414
   9827191.00349   7636165.31047  24615832.9864   24615830.1194
     -4504.6414
   6892180.27249   5355113.39248  22027706.0724   22027700.0494
     -3397.6094
   -809116.79649   -631865.86948  22298838.2054   22298834.8894
       108.2034
 04  9  2 21 24 45.0020000  0  6G 3G 8G13G16G23G27
  -1200762.74849   -935958.47447  23851909.3224   23851907.9594
       -48.1414
  -3625098.06949  -2821096.82947  23791838.0964   23791836.0254
      1326.8444
    963299.12349    746672.75648  20943694.3224   20943690.0924
      -913.0164
   9894786.72549   7688837.30647  24628695.2834   24628693.6154
     -4508.4694
   6943191.38349   5394862.28648  22037413.3614   22037407.2564
     -3404.1254
   -810717.43249   -633113.11548  22298533.1664   22298530.6274
       105.0004
 04  9  2 21 25  0.0020000  0  6G 3G 8G13G16G23G27
  -1199977.18949   -935346.30547  23852058.8074   23852056.9084
       -56.3124
  -3644979.21049  -2836588.59047  23788055.2754   23788053.1194
      1324.1884
    977049.59649    757387.40948  20946311.1354   20946306.7014
      -920.1724
   9962440.75849   7741554.64646  24641569.0964   24641567.5454
     -4511.8914
   6994300.26849   5434687.37148  22047138.7684   22047133.1584
     -3410.2814
   -812268.40049   -634321.64448  22298238.3464   22298235.1394
       101.9844
 04  9  2 21 25 15.0020000  0  6G 3G 8G13G16G23G27
  -1199074.08749   -934642.58247  23852230.6504   23852229.4044
       -63.8284
  -3664824.49149  -2852052.43447  23784278.7294   23784277.2914
      1322.0474
    990902.90849    768182.18548  20948947.2444   20948943.1974
      -926.6874
  10030143.67949   7794310.18847  24654453.5724   24654450.4594
     -4514.9064
   7045497.77349   5474581.50448  22056881.5964   22056875.8964
     -3415.8284
   -813778.78849   -635498.56348  22297951.1044   22297948.2834
        99.6094
 04  9  2 21 25 30.0020000  0  7G19G 3G 8G13G16G23G27
    -58651.23659    -42381.88757  24897560.4554   24897557.9794
      1414.0314
  -1198056.26849   -933849.44247  23852424.1504   23852423.2134
       -71.6874
  -3684636.72749  -2867490.50947  23780508.3854   23780507.0884
      1319.7194
   1004856.06649    779054.79648  20951602.2524   20951598.2714
      -933.5314
  10097892.16249   7847101.19046  24667345.5334   24667342.7294
     -4518.0474
   7096780.83649   5514542.33548  22066640.4084   22066634.6744
     -3421.7504
   -815251.55149   -636646.16348  22297670.5494   22297668.2134
        96.9534
 04  9  2 21 25 45.0020000  0  7G19G 3G 8G13G16G23G27
    -79841.25449    -58893.51547  24893527.7054   24893526.3034
      1411.7504
  -1196918.31649   -932962.67247  23852641.0494   23852639.7254
       -79.6254
  -3704410.87849  -2882898.90647  23776745.3934   23776743.2484
      1317.2814
   1018914.42149    790009.35048  20954277.6584   20954273.2174
      -940.4694
  10165691.08549   7899931.50746  24680246.5884   24680245.0414
     -4521.4064
   7148154.59449   5554573.82148  22076416.3544   22076410.5064
     -3427.6414
   -816681.67149   -637760.53648  22297398.7754   22297395.2444
        94.1724
 04  9  2 21 26  0.0020000  0  7G19G 3G 8G13G16G23G27
   -100997.64549    -75378.95447  24889501.7524   24889500.1234
      1409.0944
  -1195661.61449   -931983.42647  23852879.9394   23852878.1974
       -87.8444
  -3724148.58949  -2898278.91747  23772989.5104   23772987.8074
      1314.4694
   1033076.54049    801044.77948  20956972.4634   20956967.9634
      -947.7814
  10233538.48149   7952799.57347  24693158.1664   24693155.1354
     -4524.9534
   7199617.25849   5594674.58348  22086209.4634   22086204.3504
     -3433.9844
   -818070.74349   -638842.91948  22297134.0724   22297131.3614
        91.0784
 04  9  2 21 26 15.0020000  0  7G19G 3G 8G13G16G23G27
   -122119.54949    -91837.50747  24885482.5574   24885479.7214
      1407.1884
  -1194285.43449   -930911.06647  23853141.8074   23853139.8184
       -95.6414
  -3743849.01649  -2913629.86747  23769240.5574   23769238.8814
      1312.2344
   1047342.98549    812161.48148  20959687.5024   20959683.4124
      -954.5004
  10301434.49149   8005705.52347  24706078.5414   24706075.1354
     -4527.8754
   7251169.23549   5634844.93948  22096019.3694   22096013.9044
     -3439.6724
   -819418.30149   -639892.95948  22296877.5574   22296874.5064
        88.5474
 04  9  2 21 26 30.0020000  0  7G19G 3G 8G13G16G23G27
   -143207.91849   -108269.92247  24881469.3774   24881466.9124
      1404.4064
  -1192790.81149   -929746.36947  23853425.2214   23853424.6934
      -103.9374
  -3763513.84249  -2928953.09247  23765498.5964   23765496.6004
      1309.4384
   1061712.48049    823358.50248  20962422.1824   20962417.6974
      -961.7974
  10369377.52049   8058648.16447  24719007.4164   24719004.9984
     -4531.4534
   7302809.06349   5675083.75348  22105846.2914   22105840.5414
     -3445.9534
   -820725.73649   -640911.72148  22296629.0254   22296626.0844
        85.4844
 04  9  2 21 26 45.0020000  0  7G19G 3G 8G13G16G23G27
   -164261.75649   -124675.45047  24877463.0724   24877460.4124
      1402.3754
  -1191176.85149   -928488.73147  23853733.4324   23853732.2324
      -111.5784
  -3783142.22049  -2944247.89347  23761763.3384   23761761.5294
      1307.3914
   1076185.95049    834636.52848  20965176.1194   20965171.5924
      -968.3754
  10437367.73149   8111627.47747  24731945.7444   24731942.8734
     -4534.2034
   7354537.32849   5715391.48148  22115689.6114   22115684.0254
     -3451.4694
   -821992.35849   -641898.70148  22296387.5254   22296384.2644
        83.1094
 04  9  2 21 27  0.0020000  0  7G19G 3G 8G13G16G23G27
   -185281.22649   -141054.19147  24873463.1354   24873460.6044
      1400.0314
  -1189444.04449   -927138.46847  23854062.9084   23854061.4004
      -119.6874
  -3802734.90249  -2959514.89547  23758035.0334   23758032.4554
      1304.8754
   1090762.91449    845995.20048  20967949.9004   20967945.0644
      -975.3594
  10505404.31049   8164643.01946  24744892.6114   24744890.0214
     -4537.4534
   7406353.37949   5755767.60148  22125550.4864   22125544.5494
     -3457.4844
   -823218.93649   -642854.47148  22296154.3774   22296151.4204
        80.2664
 04  9  2 21 27 15.0020000  0  7G19G 3G 8G13G16G23G27
   -206264.63049   -157404.81447  24869470.0254   24869467.7014
      1397.4694
  -1187590.69749   -925694.29647  23854415.3224   23854414.0534
      -127.8124
  -3822290.35949  -2974752.88847  23754314.1504   23754311.5214
      1302.2344
   1105444.81949    857435.64348  20970743.7684   20970739.1974
      -982.5314
  10573488.12449   8217695.29746  24757848.5574   24757845.4434
     -4540.6724
   7458258.44349   5796213.09148  22135427.1664   22135421.5494
     -3463.5314
   -824404.08949   -643777.96548  22295929.0724   22295925.6394
        77.4694
 04  9  2 21 27 30.0020000  0  7G19G 3G 8G13G16G23G27
   -227210.89349   -173726.51147  24865483.4554   24865481.7444
      1395.1094
  -1185615.89949   -924155.45447  23854791.9164   23854789.9824
      -135.7344
  -3841807.79649  -2989961.24747  23750599.4164   23750597.6504
      1299.8444
   1120232.44649    868958.46348  20973557.9394   20973553.7324
      -989.4064
  10641619.59749   8270784.75446  24770813.7444   24770810.4004
     -4543.7034
   7510253.07649   5836728.37448  22145321.6974   22145315.6154
     -3469.3444
   -825547.26349   -644668.73948  22295711.6114   22295708.0334
        74.7504
 04  9  2 21 27 45.0020000  0  7G19G 3G 8G13G16G23G27
   -248120.97349   -190020.02147  24861504.3934   24861502.1434
      1392.7664
  -1183520.77049   -922522.87247  23855189.8614   23855188.9904
      -143.7504
  -3861288.78249  -3005141.21847  23746893.0494   23746890.5764
      1297.5164
   1135124.48849    880562.65848  20976391.5884   20976387.5884
      -996.3124
  10709797.01449   8323909.97046  24783786.5494   24783784.1004
     -4546.7034
   7562335.71949   5877312.24448  22155232.4944   22155226.3894
     -3475.1414
   -826649.76849   -645527.83048  22295501.2524   22295498.6274
        72.1254
 04  9  2 21 28  0.0030000  0  7G19G 3G 8G13G16G23G27
   -268996.73849   -206286.75647  24857531.9914   24857529.9484
      1390.4384
  -1181305.63249   -920796.74447  23855611.3434   23855610.1364
      -151.6564
  -3880735.23949  -3020294.25647  23743191.7574   23743190.1904
      1295.2194
   1150121.54649    892248.68648  20979245.2494   20979240.8514
     -1003.1564
  10778023.95749   8377073.82546  24796770.6014   24796767.2804
     -4549.6414
   7614509.26649   5917966.94248  22165160.9134   22165155.2654
     -3480.8594
   -827712.36949   -646355.82948  22295299.2414   22295296.3154
        69.5314
 04  9  2 21 28 15.0030000  0  7G19G 3G 8G13G16G23G27
   -289839.19349   -222527.57047  24853565.6714   24853563.0934
      1388.1414
  -1178974.85049   -918980.51447  23856054.4914   23856053.5264
      -159.5784
  -3900148.91949  -3035421.74647  23739497.9214   23739495.9684
      1292.9064
   1165217.40949    904011.68848  20982118.0304   20982113.6634
     -1010.0314
  10846286.71049   8430265.52946  24809760.4764   24809757.9954
     -4552.4374
   7666762.30649   5958683.57248  22175104.2654   22175098.9874
     -3486.6254
   -828739.38049   -647156.08148  22295103.8664   22295101.1124
        67.0004
 04  9  2 21 28 30.0030000  0  7G19G 3G 8G13G16G23G27
   -310641.77449   -238737.29447  24849607.3194   24849604.8744
      1385.6414
  -1176520.30549   -917067.87647  23856522.1474   23856520.5934
      -167.6564
  -3919523.21249  -3050518.59147  23735811.3044   23735808.5774
      1290.4384
   1180420.83049    915858.50448  20985011.4054   20985006.9644
     -1017.0164
  10914597.30149   8483494.53846  24822759.8584   24822757.2144
     -4555.5314
   7719105.93149   5999470.80348  22185064.9764   22185059.3544
     -3492.4064
   -829723.11749   -647922.62048  22294917.0544   22294913.5694
        64.2974
 04  9  2 21 28 45.0030000  0  7G19G 3G 8G13G16G23G27
   -331408.48349   -254919.06047  24845654.6714   24845653.2414
      1383.1724
  -1173946.35249   -915062.16447  23857011.8664   23857010.3824
      -175.6414
  -3938862.27149  -3065587.96147  23732130.6244   23732128.7414
      1288.0314
   1195727.63349    927785.88048  20987924.2414   20987919.4954
     -1023.9534
  10982950.97649   8536757.14346  24835766.3354   24835764.3154
     -4558.3594
   7771535.60249   6040325.06948  22195042.1164   22195036.4254
     -3498.1724
   -830667.95649   -648658.85848  22294737.2414   22294733.9684
        61.6724
 04  9  2 21 29  0.0030000  0  7G19G 3G 8G13G16G23G27
   -352138.20349   -271072.02947  24841710.8584   24841709.0774
      1380.8134
  -1171251.88749   -912962.54847  23857524.8824   23857523.2024
      -183.5784
  -3958165.55349  -3080629.44647  23728456.9764   23728455.5544
      1285.7504
   1211138.67449    939794.47948  20990856.5304   20990852.3664
     -1030.8754
  11051347.99049   8590053.50446  24848782.2264   24848779.3624
     -4561.2504
   7824051.98549   6081246.90748  22205035.2264   22205029.6754
     -3503.9064
   -831573.24649   -649364.26748  22294564.4214   22294561.5194
        59.0784
 04  9  2 21 29 15.0030000  0  7G19G 3G 8G13G16G23G27
   -372831.77149   -287196.80947  24837772.7184   24837770.3904
      1377.8594
  -1168437.81149   -910769.76647  23858060.6014   23858058.9874
      -192.0474
  -3977434.45049  -3095644.14647  23724790.6324   23724789.0624
      1283.0314
   1226652.90749    951883.49648  20993808.8274   20993804.6324
     -1038.1414
  11119786.93049   8643382.52146  24861805.8124   24861803.1284
     -4564.4534
   7876653.94749   6122235.44348  22215045.3744   22215039.5344
     -3510.0624
   -832440.19649   -650039.81048  22294399.4134   22294396.4794
        56.0784
 04  9  2 21 29 30.0030000  0  7G19G 3G 8G13G16G23G27
   -393487.57849   -303292.18247  24833841.9294   24833839.6444
      1375.7194
  -1165502.75249   -908482.66747  23858618.9374   23858616.9874
      -199.7034
  -3996667.38749  -3110630.82647  23721130.9764   23721128.8084
      1280.9534
   1242271.78349    964054.05848  20996781.3274   20996776.8044
     -1044.7974
  11188268.77949   8696744.97646  24874837.3274   24874835.0974
     -4566.9374
   7929342.58449   6163291.51348  22225071.4834   22225066.1044
     -3515.5004
   -833267.44249   -650684.41048  22294242.1014   22294239.3154
        53.7974
 04  9  2 21 29 45.0030000  0  7G19G 3G 8G13G16G23G27
   -414102.31349   -319355.54547  24829919.6874   24829916.9014
      1372.8754
  -1162443.60749   -906098.88047  23859200.6014   23859198.9014
      -208.0944
  -4015861.61449  -3125587.34447  23717477.9834   23717476.1204
      1278.3754
   1257998.32349    976308.49048  20999773.5384   20999769.2534
     -1052.0164
  11256796.09149   8750142.85846  24887877.7884   24887874.6284
     -4569.8284
   7982120.58049   6204417.18548  22235114.8904   22235109.5974
     -3521.5314
   -834052.18249   -651295.88448  22294092.8664   22294089.9174
        50.9064
 04  9  2 21 30  0.0030000  0  7G19G 3G 8G13G16G23G27
   -434678.23849   -335388.65447  24826003.5854   24826001.2294
      1370.2814
  -1159262.71849   -903620.24747  23859806.0384   23859804.4724
      -216.2664
  -4035019.67349  -3140515.67447  23713832.5304   23713830.3744
      1275.8134
   1273829.89549    988644.78748  21002786.2804   21002782.2694
     -1059.0944
  11325365.89349   8803573.84946  24900926.5304   24900923.4994
     -4572.8284
   8034985.36149   6245610.51948  22245174.7104   22245169.2654
     -3527.3594
   -834797.16049   -651876.38148  22293951.3904   22293947.9334
        48.2504
 04  9  2 21 30 15.0030000  0  7G19G 3G 8G13G16G23G27
   -455209.59649   -351387.05347  24822096.6164   24822093.8744
      1367.5474
  -1155954.46549   -901042.36447  23860435.5854   23860434.0344
      -224.5314
  -4054136.13249  -3155411.57047  23710194.7104   23710192.5074
      1273.3594
   1289772.13149   1001067.29548  21005820.3124   21005815.8004
     -1066.2344
  11393983.26449   8857041.92746  24913983.7264   24913981.5774
     -4575.7504
   8087942.04149   6286875.43848  22255252.3584   22255246.9254
     -3533.2814
   -835496.99849   -652421.69848  22293817.9294   22293814.6904
        45.4384
 04  9  2 21 30 30.0030000  0  7G19G 3G 8G13G16G23G27
   -475699.75749   -367353.33647  24818197.3664   24818194.6514
      1364.5004
  -1152522.34149   -898367.93947  23861088.6714   23861087.0034
      -233.0784
  -4073214.77649  -3170278.02247  23706564.1714   23706562.2144
      1270.5314
   1305821.50849   1013573.30448  21008874.1874   21008869.7414
     -1073.6564
  11462644.25949   8910543.98346  24927049.5154   24927047.2964
     -4578.9534
   8140986.92249   6328209.09248  22265346.3274   22265340.6084
     -3539.3754
   -836155.45349   -652934.76948  22293692.6554   22293689.4604
        42.3754
 04  9  2 21 30 45.0030000  0  7G19G 3G 8G13G16G23G27
   -496151.09049   -383289.41247  24814305.6874   24814302.7694
      1362.4694
  -1148968.72449   -895598.87547  23861765.1404   23861763.0344
      -240.7664
  -4092258.17549  -3185117.01047  23702940.3354   23702938.0814
      1268.6094
   1321975.34749   1026160.72148  21011948.0544   21011943.9404
     -1080.1254
  11531345.74949   8964077.56346  24940122.5774   24940120.7724
     -4581.1254
   8194117.25849   6369609.34348  22275456.8194   22275451.3434
     -3544.6254
   -836775.12149   -653417.62548  22293574.5854   22293571.3544
        40.2194
 04  9  2 21 31  0.0030000  0  7G19G 3G 8G13G16G23G27
   -516564.28749   -399195.70347  24810420.4524   24810417.9214
      1359.6724
  -1145294.64049   -892735.92447  23862464.1634   23862462.4404
      -248.9064
  -4111267.51549  -3199929.46347  23699322.7724   23699320.7334
      1266.2504
   1338232.53149   1038828.65148  21015041.7334   21015037.7374
     -1087.1874
  11600086.33249   9017641.64946  24953203.6404   24953201.9134
     -4584.0004
   8247331.67849   6411075.11248  22285583.1404   22285577.8044
     -3550.2664
   -837357.22349   -653871.20348  22293463.7884   22293460.7264
        37.6884
 04  9  2 21 31 15.0030000  0  7G19G 3G 8G13G16G23G27
   -536932.60749   -415067.07747  24806544.6164   24806542.5224
      1356.5314
  -1141493.51949   -889773.99247  23863187.5854   23863186.1164
      -257.5314
  -4130236.19149  -3214710.21847  23695713.6944   23695710.9724
      1263.3594
   1354599.66349   1051582.25348  21018156.4764   21018151.9564
     -1094.7504
  11668871.95149   9071240.80146  24966293.7884   24966290.8044
     -4587.0784
   8300636.51749   6452611.32348  22295726.7414   22295721.2924
     -3556.6414
   -837895.55749   -654290.67548  22293361.5464   22293358.2064
        34.4844
 04  9  2 21 31 30.0030000  0  7G19G 3G 8G13G16G23G27
   -557260.19449   -430906.69647  24802677.1714   24802674.4604
      1353.5314
  -1137569.58249   -886716.35447  23863934.1164   23863932.3234
      -265.9844
  -4149168.90549  -3229462.97347  23692110.6794   23692108.2184
      1260.6724
   1371072.40549   1064418.16348  21021291.0544   21021286.4914
     -1102.0314
  11737697.85849   9124871.35446  24979390.2414   24979387.9724
     -4590.0944
   8354027.18449   6494214.43348  22305886.4684   22305880.7654
     -3562.5164
   -838394.55949   -654679.51448  22293266.4604   22293263.3824
        31.6414
 04  9  2 21 31 45.0030000  0  7G19G 3G 8G13G16G23G27
   -577547.00049   -446714.51547  24798816.4524   24798813.5544
      1351.0634
  -1133522.95249   -883563.10647  23864704.1794   23864701.8624
      -273.9534
  -4168065.80349  -3244187.80347  23688514.1014   23688512.3784
      1258.6094
   1387650.49349   1077336.14848  21024445.5464   21024441.4954
     -1108.7974
  11806563.35549   9178532.75246  24992494.6164   24992491.9954
     -4592.2504
   8407503.15749   6535884.00948  22316062.7964   22316056.8474
     -3567.9374
   -838854.53949   -655037.92648  22293179.3584   22293175.6904
        29.3594
 04  9  2 21 32  0.0030000  0  7G19G 3G 8G13G16G23G27
   -597791.75249   -462489.62847  24794963.6474   24794961.1834
      1348.4844
  -1129352.52949   -880313.40747  23865497.7654   23865496.2224
      -281.9534
  -4186926.20949  -3258884.20047  23684924.7964   23684923.0774
      1256.3284
   1404334.99649   1090337.05748  21027620.9444   21027616.6944
     -1115.6874
  11875469.02849   9232225.50046  25005607.7334   25005605.3084
     -4594.9694
   8461065.36349   6577620.76748  22326255.4054   22326249.8514
     -3573.5004
   -839274.69349   -655365.30548  22293099.1874   22293095.7264
        26.9064
 04  9  2 21 32 15.0030000  0  7G19G 3G 8G13G16G23G27
   -617992.37549   -478230.27347  24791119.6794   24791116.5384
      1345.1254
  -1125056.38549   -876965.73147  23866315.7024   23866313.2024
      -290.6564
  -4205748.10949  -3273550.59547  23681343.2494   23681341.6474
      1253.4534
   1421127.83849   1103422.39048  21030816.2494   21030811.8514
     -1123.1874
  11944416.43249   9285950.69346  25018727.4444   25018725.7024
     -4597.9224
   8514715.41749   6619425.99548  22336464.5624   22336458.7374
     -3579.6564
   -839653.20949   -655660.24548  22293026.9524   22293023.9334
        23.7814
 04  9  2 21 32 30.0030000  0  7G19G 3G 8G13G16G23G27
   -638146.18549   -493934.50147  24787283.8584   24787281.4524
      1342.4384
  -1120631.89549   -873518.07547  23867157.3274   23867155.2454
      -298.7504
  -4224529.27549  -3288185.24847  23677769.6554   23677767.7574
      1251.1564
   1438031.47349   1116594.04748  21034032.9834   21034027.9604
     -1130.1414
  12013407.50549   9339709.95546  25031856.3744   25031853.6124
     -4600.3914
   8568455.65249   6661301.47648  22346691.1404   22346685.5344
     -3585.2344
   -839987.85749   -655921.00648  22292963.6014   22292960.5774
        21.3444
 04  9  2 21 32 45.0030000  0  7G19G 3G 8G13G16G23G27
   -658261.08249   -509608.36347  24783457.0384   24783453.7104
      1339.3134
  -1116087.12349   -869976.65747  23868022.2574   23868020.4764
      -307.3284
  -4243277.80449  -3302794.47647  23674202.2964   23674199.7844
      1248.4694
   1455037.79649   1129845.72948  21037269.0854   21037264.4764
     -1137.5164
  12082433.60549   9393496.58546  25044990.6084   25044989.1944
     -4603.1724
   8622277.61749   6703240.64948  22356933.1874   22356927.1554
     -3591.1874
   -840286.90449   -656154.01848  22292906.7654   22292902.7924
        18.4064
 04  9  2 21 33  0.0030000  0  7G19G 3G 8G13G16G23G27
   -678325.47749   -525242.92947  24779637.8514   24779635.8004
      1336.2504
  -1111410.54149   -866332.54847  23868912.1944   23868910.1444
      -315.8284
  -4261982.42549  -3317369.47447  23670642.8194   23670640.7104
      1245.8284
   1472157.96249   1143186.10348  21040527.2964   21040522.5894
     -1144.8284
  12151505.96949   9447319.13646  25058135.1554   25058132.2294
     -4606.0314
   8676192.48049   6745252.21248  22367193.1014   22367186.8944
     -3597.0624
   -840539.07749   -656350.50648  22292858.5464   22292855.1714
        15.5944
 04  9  2 21 33 15.0030000  0  7G19G 3G 8G13G16G23G27
   -698345.66549   -540843.01647  24775829.4684   24775826.4874
      1333.4534
  -1106608.84749   -862590.92947  23869825.9134   23869823.7264
      -324.0624
  -4280650.07449  -3331915.66847  23667090.5224   23667088.5194
      1243.5784
   1489385.60749   1156610.24148  21043805.2884   21043800.8394
     -1151.9064
  12220617.23149   9501172.03446  25071288.0224   25071284.6834
     -4608.3754
   8730193.39049   6787330.82048  22377468.8514   22377463.1674
     -3602.7344
   -840751.24049   -656515.82548  22292818.0384   22292814.9794
        13.1094
 04  9  2 21 33 30.0030000  0  7G19G 3G 8G13G16G23G27
   -718321.67049   -556408.67047  24772027.3434   24772024.7494
      1330.5004
  -1101682.22849   -858751.99647  23870763.0934   23870761.8154
      -332.2664
  -4299281.04449  -3346433.29247  23663545.0694   23663542.7534
      1241.0944
   1506720.36049   1170117.84448  21047103.9054   21047099.5344
     -1158.8914
  12289766.63149   9555054.70846  25084445.7724   25084443.4134
     -4611.0004
   8784279.75449   6829476.03048  22387761.1014   22387755.3514
     -3608.3124
   -840923.84149   -656650.30548  22292785.2574   22292782.0814
        10.4384
 04  9  2 21 33 45.0030000  0  7G19G 3G 8G13G16G23G27
   -738250.28449   -571937.39347  24768235.1244   24768231.9524
      1327.0004
  -1096627.68949   -854813.37047  23871724.7724   23871723.2494
      -341.1414
  -4317872.40449  -3360920.05347  23660007.0854   23660004.8864
      1238.1254
   1524165.03149   1183711.09448  21050423.5624   21050419.0304
     -1166.6254
  12358956.72649   9608969.00046  25097610.9524   25097610.3194
     -4614.0164
   8838454.35049   6871689.98048  22398069.9134   22398064.1594
     -3614.5164
   -841054.00849   -656751.71948  22292760.4994   22292756.9294
         7.2664
 04  9  2 21 34  0.0030000  0  7G19G 3G 8G13G16G23G27
   -758131.88949   -587429.49647  24764451.9374   24764449.5544
      1323.7974
  -1091445.73149   -850775.46847  23872711.0624   23872709.1474
      -349.7344
  -4336424.98849  -3375376.58647  23656476.6634   23656474.5814
      1235.5004
   1541719.10049   1197389.58248  21053763.9294   21053759.7024
     -1173.9844
  12428186.44449   9662914.20846  25110785.8904   25110784.3544
     -4616.8444
   8892716.30449   6913971.99748  22408396.4524   22408390.3974
     -3620.3594
   -841142.51749   -656820.69248  22292743.7104   22292740.5074
         4.5004
 04  9  2 21 34 15.0030000  0  7G19G 3G 8G13G16G23G27
   -777968.21649   -602886.30847  24760676.7104   24760673.7144
      1321.0784
  -1086138.20849   -846639.71147  23873721.2884   23873719.5344
      -357.8594
  -4354941.15949  -3389804.75347  23652953.3664   23652950.8584
      1233.4224
   1559380.53649   1211151.74048  21057125.1404   21057120.6634
     -1180.7974
  12497453.33349   9716888.40046  25123966.9834   25123964.9214
     -4618.8914
   8947063.32249   6956320.31648  22418737.8584   22418732.4484
     -3625.7664
   -841191.68349   -656858.99948  22292734.1944   22292730.9334
         2.2034
 04  9  2 21 34 30.0030000  0  6G19G 3G 8G13G23G27
   -797758.49249   -618307.26347  24756910.4604   24756908.0584
      1317.3594
  -1080704.52849   -842405.63247  23874754.5304   23874753.1984
      -366.8284
  -4373419.94149  -3404203.77947  23649436.7964   23649434.5504
      1230.2974
   1577150.03249   1224998.09648  21060505.9054   21060502.1204
     -1188.6254
   9001495.71549   6998735.14548  22429096.0074   22429090.5934
     -3632.0784
   -841200.90549   -656866.18248  22292732.0694   22292729.3974
        -1.1094
 04  9  2 21 34 45.0030000  0  6G19G 3G 8G13G23G27
   -817500.68749   -633690.71547  24753154.0624   24753152.0074
      1314.4694
  -1075142.80249   -838071.81947  23875813.1324   23875811.9444
      -375.0944
  -4391859.80149  -3418572.48147  23645928.0624   23645926.3584
      1227.9534
   1595029.38749   1238930.05748  21063908.8194   21063904.5854
     -1195.6874
   9056015.30849   7041217.93548  22439470.8974   22439465.3584
     -3637.5474
   -841168.36249   -656840.82048  22292738.8434   22292735.6044
        -3.6254
 04  9  2 21 35  0.0030000  0  6G19G 3G 8G13G23G27
   -837192.50849   -649034.92447  24749407.2654   24749404.2294
      1311.2194
  -1069450.86249   -833636.52447  23876896.5774   23876894.6674
      -383.7034
  -4410258.68749  -3432909.26447  23642426.9294   23642424.6794
      1225.2344
   1613020.57449   1252949.17248  21067332.3904   21067328.1944
     -1203.0944
   9110623.73449   7083769.94248  22449862.5304   22449856.6634
     -3643.4844
   -841092.40849   -656781.62448  22292753.3434   22292749.8744
        -6.4534
 04  9  2 21 35 15.0030000  0  6G19G 3G 8G13G23G27
   -856836.26849   -664341.67847  24745668.2024   24745666.3124
      1307.6254
  -1063631.23549   -829101.73247  23878004.2964   23878001.6474
      -392.6254
  -4428619.39949  -3447216.29247  23638933.1474   23638931.1284
      1222.4224
   1631120.94549   1267053.34848  21070776.8434   21070772.3354
     -1210.7194
   9165318.25749   7126389.02248  22460270.6634   22460264.9644
     -3649.5624
   -840975.70149   -656690.68048  22292775.3904   22292772.5114
        -9.5474
 04  9  2 21 35 30.0030000  0  6G19G 3G 8G13G23G27
   -876426.52549   -679606.75047  24741941.3194   24741937.6874
      1304.6094
  -1057678.65849   -824463.35147  23879136.9294   23879134.2374
      -400.8444
  -4446936.65749  -3461489.44747  23635446.9054   23635444.5464
      1220.2194
   1649335.80749   1281246.74148  21074243.0464   21074238.4724
     -1217.7194
   9220103.77849   7169079.02348  22470695.9524   22470689.9954
     -3654.8914
   -840813.10449   -656563.96448  22292805.9294   22292803.0114
       -11.9694
 04  9  2 21 35 45.0030000  0  6G19G 3G 8G13G23G27
   -895968.69749   -694834.36447  24738222.0464   24738219.1904
      1300.6724
  -1051598.67549   -819725.67747  23880293.4834   23880291.5774
      -410.1094
  -4465216.33449  -3475733.34047  23631968.3194   23631966.0264
      1216.8134
   1667659.35249   1295524.83048  21077729.6554   21077724.9564
     -1225.7664
   9274974.44049   7211835.36348  22481137.2654   22481131.3084
     -3661.4844
   -840610.58049   -656406.15448  22292845.1634   22292841.5224
       -15.4374
 04  9  2 21 36  0.0030000  0  6G19G 3G 8G13G23G27
   -915456.91749   -710019.95147  24734512.8974   24734510.4334
      1297.6564
  -1045385.54349   -814884.26047  23881475.6554   23881473.4914
      -418.4534
  -4483452.87249  -3489943.60847  23628498.5544   23628496.4054
      1214.6094
   1686097.39249   1309892.13948  21081238.5624   21081233.9644
     -1232.7814
   9329935.76849   7254662.36348  22491596.3664   22491590.2224
     -3666.8594
   -840362.48849   -656212.83048  22292891.8974   22292888.8194
       -17.8444
 04  9  2 21 36 15.0030000  0  6G19G 3G 8G13G23G27
   -934895.78349   -725167.06747  24730813.9684   24730811.1944
      1294.2664
  -1039044.09149   -809942.83147  23882682.7334   23882681.1084
      -427.0004
  -4501651.38749  -3504124.26047  23625035.3124   23625032.5034
      1212.0314
   1704644.92549   1324344.75348  21084767.9764   21084763.2334
     -1240.1094
   9384982.58249   7297555.95248  22502071.2104   22502065.7184
     -3672.5944
   -840073.98149   -655988.01948  22292947.1794   22292943.6944
       -20.5314
 04  9  2 21 36 30.0030000  0  6G19G 3G 8G13G23G27
   -954282.91249   -740273.85047  24727124.0694   24727122.1014
      1291.1254
  -1032572.08249   -804899.70347  23883913.8124   23883912.8084
      -435.4374
  -4519809.98249  -3518273.79947  23621579.5934   23621577.7534
      1209.6564
   1723304.09849   1338884.37948  21088318.8904   21088314.2964
     -1247.2814
   9440116.67849   7340517.56948  22512563.2414   22512557.5814
     -3678.1414
   -839742.99949   -655730.11448  22293010.1244   22293006.4994
       -23.1254
 04  9  2 21 36 45.0030000  0  6G19G 3G 8G13G23G27
   -973620.65349   -755342.19247  24723445.4134   24723442.3154
      1287.1884
  -1025972.05149   -799756.80547  23885169.7574   23885168.2144
      -444.7034
  -4537931.03049  -3532394.07347  23618131.4684   23618128.8234
      1206.3594
   1742072.38149   1353509.00948  21091890.2264   21091885.6044
     -1255.3284
   9495335.28549   7383545.03348  22523070.9834   22523065.0814
     -3684.4224
   -839372.29149   -655441.24048  22293080.1944   22293077.4604
       -26.3914
 04  9  2 21 37  0.0030000  0  6G19G 3G 8G13G23G27
   -992902.57649   -770366.99947  24719775.6944   24719773.0154
      1283.4224
  -1019237.84049   -794509.35747  23886451.1944   23886449.4834
      -453.6414
  -4556008.57749  -3546480.45547  23614691.4134   23614689.0854
      1203.5164
   1760955.89949   1368223.43648  21095483.4374   21095479.1044
     -1262.9844
   9550644.34049   7426642.98648  22533595.7184   22533590.1794
     -3690.5004
   -838955.83849   -655116.73248  22293159.7264   22293156.6324
       -29.5474
 04  9  2 21 37 15.0030000  0  6G19G 3G 8G13G23G27
  -1012131.18449   -785350.27447  24716116.6404   24716113.8354
      1280.0634
  -1012372.15449   -789159.44247  23887758.1794   23887756.4214
      -462.1414
  -4574045.54449  -3560535.21447  23611259.3354   23611256.4644
      1201.0474
   1779951.74449   1383025.39048  21099098.2964   21099093.9794
     -1270.2194
   9606040.89649   7469809.11748  22544137.5624   22544131.4644
     -3696.0784
   -838496.50849   -654758.80948  22293247.0694   22293243.9604
       -32.1564
 04  9  2 21 37 30.0030000  0  6G19G 3G 8G13G23G27
  -1031308.09749   -800293.26847  24712466.9834   24712464.5654
      1276.5004
  -1005376.72749   -783708.43047  23889089.0544   23889087.3624
      -470.8594
  -4592043.67549  -3574559.70647  23607833.6324   23607831.4174
      1198.4384
   1799058.27049   1397913.58248  21102733.8664   21102729.5194
     -1277.6724
   9661522.83749   7513041.77348  22554695.2724   22554689.6324
     -3701.8284
   -837996.25149   -654368.98248  22293342.0624   22293338.9294
       -34.9374
 04  9  2 21 37 45.0030000  0  6G19G 3G 8G13G23G27
  -1050431.59849   -815194.64047  24708828.7264   24708825.5264
      1273.2194
   -998250.05449   -778155.16747  23890445.4684   23890443.7024
      -479.3444
  -4610001.67649  -3588552.93847  23604416.4684   23604414.4374
      1195.9534
   1818276.84449   1412889.08748  21106391.2024   21106386.8084
     -1284.8444
   9717091.40149   7556341.94048  22565269.0774   22565263.7534
     -3707.2974
   -837453.78849   -653946.28148  22293445.4684   22293442.0264
       -37.3754
 04  9  2 21 38  0.0030000  0  6G19G 3G 8G13G23G27
  -1069500.46949   -830053.43547  24705198.9524   24705196.5384
      1269.3284
   -990990.92749   -772498.70047  23891826.9914   23891824.7454
      -488.4534
  -4627918.46049  -3602514.04447  23601006.9914   23601005.2224
      1193.0164
   1837608.53849   1427952.74448  21110069.9214   21110065.5694
     -1292.5624
   9772747.52649   7599710.33248  22575860.3664   22575855.2224
     -3713.3284
   -836868.17249   -653489.95348  22293557.1324   22293553.7454
       -40.5314
 04  9  2 21 38 15.0030000  0  6G19G 3G 8G13G23G27
  -1088517.10049   -844871.53947  24701580.5304   24701577.4724
      1266.0634
   -983602.04049   -766741.11547  23893233.1084   23893230.8824
      -496.9064
  -4645796.95049  -3616445.32647  23597604.7884   23597602.2144
      1190.6884
   1857050.63449   1443102.43148  21113769.8044   21113765.1554
     -1299.7814
   9828488.08149   7643144.49948  22586467.9834   22586461.9604
     -3718.7974
   -836242.34449   -653002.30548  22293675.8514   22293672.8784
       -43.0944
 04  9  2 21 38 30.0030000  0  6G19G 3G 8G13G23G27
  -1107478.97149   -859646.97747  24697972.2414   24697968.7844
      1262.4694
   -976081.07149   -760880.58947  23894664.2494   23894662.1474
      -505.6094
  -4663635.04149  -3630345.10147  23594210.1794   23594208.3824
      1188.0314
   1876605.45949   1458339.96148  21117490.8434   21117486.2534
     -1307.2344
   9884315.17649   7686646.12748  22597091.3824   22597085.6594
     -3724.5004
   -835574.18049   -652481.65048  22293802.8274   22293799.7764
       -45.7344
 04  9  2 21 38 45.0030000  0  6G19G 3G 8G13G23G27
  -1126388.87349   -874381.89947  24694374.0224   24694371.0154
      1259.3284
   -968431.08049   -754919.53447  23896120.5694   23896117.2654
      -513.8284
  -4681435.85949  -3644215.84447  23590822.9914   23590821.0304
      1185.9534
   1896269.84849   1473662.85648  21121232.8904   21121228.7224
     -1314.1564
   9940225.48149   7730212.58448  22607730.9604   22607724.8234
     -3729.6724
   -834866.87049   -651930.49048  22293937.7804   22293934.6324
       -48.0314
 04  9  2 21 39  0.0030000  0  6G19G 3G 8G13G23G27
  -1145242.70449   -889073.11447  24690785.7884   24690782.7334
      1254.3444
   -960647.97949   -748854.77647  23897600.7494   23897599.1364
      -524.1094
  -4699195.56649  -3658054.54247  23587443.2414   23587441.1944
      1181.8754
   1916047.64349   1489074.11748  21124996.5934   21124991.8514
     -1323.0314
   9996222.78649   7773846.81648  22618386.7964   22618380.9994
     -3736.8124
   -834116.54749   -651345.81748  22294080.7574   22294077.4524
       -52.2344
 04  9  2 21 39 15.0030000  0  6G19G 3G 8G13G23G27
  -1164037.61249   -903718.47747  24687209.4214   24687206.2414
      1251.2344
   -952729.17549   -742684.27247  23899107.8744   23899105.7144
      -532.2974
  -4716911.95349  -3671859.49647  23584071.9604   23584069.8514
      1179.8754
   1935941.44849   1504575.78348  21128782.1014   21128777.8154
     -1329.9064
  10052309.28649   7817550.56348  22629059.6634   22629053.8974
     -3741.9374
   -833320.84449   -650725.79148  22294231.7414   22294229.0154
       -54.3914
 04  9  2 21 39 30.0030000  0  6G19G 3G 8G13G23G27
  -1182776.35749   -918320.02447  24683643.3744   24683640.6874
      1246.9844
   -944677.73549   -736410.39747  23900639.8124   23900637.7654
      -541.6254
  -4734587.77049  -3685632.84347  23580708.3974   23580706.4404
      1176.5784
   1955948.24649   1520165.50348  21132589.3434   21132585.0424
     -1338.0474
  10108481.75549   7861321.30048  22639748.6634   22639743.2494
     -3748.1874
   -832483.00049   -650072.92248  22294391.6244   22294388.0654
       -57.6874
 04  9  2 21 39 45.0030000  0  6G19G 3G 8G13G23G27
  -1201457.04449   -932876.34447  24680088.9684   24680085.6554
      1243.5314
   -936491.89949   -730031.79747  23902197.2414   23902195.7844
      -550.0474
  -4752221.60149  -3699373.46047  23577353.0544   23577351.0854
      1174.3754
   1976069.65349   1535844.50648  21136418.1944   21136413.5974
     -1345.1724
  10164741.57649   7905160.09048  22650454.8354   22650449.3354
     -3753.4064
   -831601.39149   -649385.94848  22294558.8904   22294555.9954
       -60.0944
 04  9  2 21 40  0.0030000  0  6G19G 3G 8G13G23G27
  -1220082.19849   -947389.41447  24676544.6014   24676541.3194
      1239.8284
   -928174.32949   -723550.57347  23903780.4834   23903777.8974
      -559.0314
  -4769816.17849  -3713083.50247  23574004.4994   23574002.0154
      1171.5944
   1996303.03149   1551610.77948  21140268.5934   21140264.1284
     -1352.7344
  10221085.84249   7949064.70148  22661176.4834   22661171.2574
     -3759.2504
   -830678.96549   -648667.17548  22294734.9524   22294731.5194
       -62.9224
 04  9  2 21 40 15.0030000  0  6G19G 3G 8G13G23G27
  -1238647.14149   -961855.55247  24673011.4684   24673008.2294
      1235.9384
   -919720.41849   -716963.07947  23905389.3744   23905386.3434
      -567.8124
  -4787367.15149  -3726759.56847  23570664.6474   23570662.8314
      1168.9694
   2016652.81049   1567467.75248  21144141.3514   21144136.8004
     -1360.2034
  10277518.75449   7993038.37348  22671915.1944   22671909.6244
     -3764.8124
   -829711.40749   -647913.22848  22294918.4604   22294915.6754
       -65.6254
 04  9  2 21 40 30.0030000  0  6G19G 3G 8G13G23G27
  -1257157.44349   -976279.10747  24669489.3274   24669486.0504
      1231.6564
   -911136.08649   -710273.98347  23907022.3124   23907020.6754
      -577.1564
  -4804880.58349  -3740406.37847  23567331.8124   23567330.0424
      1165.7814
   2037113.01349   1583410.76448  21148034.6084   21148029.9014
     -1368.2194
  10334034.20249   8037076.37148  22682670.0854   22682664.0154
     -3770.9844
   -828704.59049   -647128.68848  22295109.8124   22295106.9994
       -68.9534
 04  9  2 21 40 45.0030000  0  6G19G 3G 8G13G23G27
  -1275606.83049   -990655.18247  24665978.6244   24665975.0154
      1228.1254
   -902415.32449   -703478.55347  23908682.2494   23908679.0584
      -585.7034
  -4822350.62149  -3754019.35747  23564007.5544   23564005.5584
      1163.3914
   2057689.59049   1599444.46248  21151950.1714   21151945.8944
     -1375.4064
  10390637.87549   8081183.10548  22693440.8434   22693435.1944
     -3776.2974
   -827652.84849   -646309.14148  22295310.3584   22295307.1904
       -71.3284
 04  9  2 21 41  0.0030000  0  6G19G 3G 8G13G23G27
  -1294001.27349  -1004988.45247  24662477.7184   24662475.0304
      1224.3754
   -893564.07349   -696581.45347  23910365.9444   23910363.8044
      -594.5164
  -4839783.20249  -3767603.17447  23560690.5464   23560688.2264
      1160.7974
   2078376.47649   1615564.10348  21155886.8194   21155882.0264
     -1382.9534
  10447323.58749   8125353.76148  22704228.1474   22704222.6794
     -3781.8594
   -826562.26849   -645459.33948  22295517.8744   22295514.2374
       -74.1564
 04  9  2 21 41 15.0030000  0  6G19G 3G 8G13G23G27
  -1312339.74749  -1019278.12747  24658988.2884   24658985.0154
      1220.8444
   -884581.60949   -689582.10547  23912075.6634   23912073.6554
      -603.0314
  -4857178.04249  -3781157.56947  23557380.3744   23557377.9444
      1158.5314
   2099174.35649   1631770.24948  21159844.4834   21159839.8544
     -1390.0474
  10504091.73049   8169588.65548  22715030.5224   22715025.1754
     -3787.2034
   -825432.33149   -644578.86848  22295733.1404   22295730.0774
       -76.4844
 04  9  2 21 41 30.0030000  0  6G19G 3G 8G13G23G27
  -1330622.51049  -1033524.38247  24655508.7494   24655505.6514
      1217.2974
   -875468.56049   -682480.99747  23913810.2574   23913807.6204
      -611.7034
  -4874535.63349  -3794682.93647  23554076.8194   23554074.8824
      1156.1564
   2120082.61849   1648062.39648  21163822.8274   21163818.7294
     -1397.2974
  10560941.37249   8213887.05048  22725849.0854   22725843.5114
     -3792.3914
   -824263.76949   -643668.29248  22295955.4054   22295952.1204
       -78.9694
 04  9  2 21 41 45.0030000  0  6G19G 3G 8G13G23G27
  -1348844.62849  -1047723.37047  24652041.2884   24652038.2414
      1212.5004
   -866220.15249   -675274.44047  23915569.3904   23915567.1164
      -621.3594
  -4891851.27149  -3808175.63847  23550782.0224   23550779.3704
      1152.7194
   2141105.99249   1664444.25448  21167823.6714   21167819.2144
     -1405.6724
  10617877.13749   8258252.56848  22736683.3824   22736677.5854
     -3798.8284
   -823052.02849   -642724.08548  22296186.0464   22296182.7574
       -82.4844
 04  9  2 21 42  0.0030000  0  6G19G 3G 8G13G23G27
  -1367010.21449  -1061878.31147  24648584.7414   24648581.9134
      1208.3914
   -856840.51449   -667965.59247  23917354.8354   23917352.9014
      -630.5004
  -4909129.48549  -3821639.15147  23547494.2184   23547491.7144
      1149.9064
   2162240.30549   1680912.54348  21171845.3434   21171841.0114
     -1413.4374
  10674894.45649   8302681.62848  22747533.6244   22747527.8354
     -3804.6874
   -821801.55149   -641749.67448  22296424.1164   22296420.3624
       -85.3914
 04  9  2 21 42 15.0030000  0  6G19G 3G 8G13G23G27
  -1385113.10949  -1075984.38747  24645139.4054   24645136.7804
      1205.0944
   -847323.74349   -660549.91047  23919165.4054   23919163.3744
      -638.7034
  -4926364.42649  -3835068.95147  23544214.3824   23544211.8864
      1147.8754
   2183491.12849   1697471.61148  21175889.4294   21175885.3354
     -1420.3754
  10731998.82549   8347178.50348  22758400.0774   22758394.5154
     -3809.5784
   -820506.50449   -640740.53148  22296670.5854   22296667.0774
       -87.5474
 04  9  2 21 42 30.0030000  0  6G19G 3G 8G13G23G27
  -1403157.18649  -1090044.66647  24641706.5624   24641702.7964
      1200.5784
   -837674.09649   -653030.68447  23921001.3584   23920999.3474
      -648.1564
  -4943560.30049  -3848468.31347  23540942.1014   23540939.6124
      1144.7194
   2204854.41249   1714118.33548  21179954.8434   21179950.2374
     -1428.3444
  10789185.94749   8391739.87748  22769282.7574   22769277.0344
     -3815.6094
   -819171.31249   -639700.12648  22296924.6164   22296921.1444
       -90.7344
 04  9  2 21 42 45.0030000  0  6G19G 3G 8G13G23G27
  -1421140.74849  -1104057.77447  24638283.6634   24638279.9174
      1196.7814
   -827889.91349   -645406.62747  23922862.9994   23922861.9294
      -656.7504
  -4960715.73049  -3861836.15147  23537677.2414   23537675.2924
      1142.2974
   2226331.62549   1730853.81948  21184041.8974   21184037.1794
     -1435.6724
  10846457.13249   8436366.75348  22780180.7724   22780175.4564
     -3820.8914
   -817794.59449   -638627.34348  22297186.3664   22297182.9404
       -93.1254
 04  9  2 21 43  0.0030000  0  6G19G 3G 8G13G23G27
  -1439064.13849  -1118023.99447  24634872.7414   24634869.7264
      1193.2974
   -817971.79649   -637678.20647  23924750.8044   23924749.2494
      -665.2344
  -4977831.66349  -3875173.21747  23534420.2804   23534418.1324
      1140.1564
   2247922.17249   1747677.61848  21188150.3434   21188145.8584
     -1442.7034
  10903811.57749   8481058.50148  22791095.1014   22791089.6754
     -3825.9844
   -816376.91649   -637522.65248  22297456.1714   22297452.8944
       -95.4534
 04  9  2 21 43 15.0030000  0  6G19G 3G 8G13G23G27
  -1456926.87249  -1131942.93747  24631473.0624   24631470.7924
      1188.8134
   -807919.42449   -629845.16147  23926663.5854   23926662.0344
      -674.6414
  -4994907.82149  -3888479.30947  23531170.7964   23531168.3354
      1137.0784
   2269626.37349   1764589.99048  21192280.4214   21192275.6754
     -1450.7344
  10961249.18349   8525815.07648  22802025.1324   22802019.2064
     -3831.9844
   -814918.20849   -636385.99048  22297733.8744   22297730.5894
       -98.6414
 04  9  2 21 43 30.0030000  0  6G19G 3G 8G13G23G27
  -1474723.61549  -1145810.46947  24628087.4604   24628084.0654
      1184.1254
   -797727.66549   -621903.51747  23928602.8124   23928601.1634
      -684.2344
  -5011939.17749  -3901750.47547  23527929.8974   23527927.7224
      1133.8284
   2291449.19649   1781594.77948  21196433.0154   21196428.5344
     -1458.9534
  11018774.76349   8570640.16848  22812971.9764   22812966.2334
     -3838.0944
   -813413.66949   -635213.62348  22298019.9914   22298016.6124
      -101.9374
 04  9  2 21 43 45.0030000  0  6G19G 3G 8G13G23G27
  -1492460.52049  -1159631.39347  24624712.0154   24624708.8354
      1180.6724
   -787402.86449   -613858.20647  23930567.4524   23930565.6874
      -692.5624
  -5028931.93549  -3914991.56247  23524696.4444   23524693.9014
      1131.7814
   2313384.26949   1798687.04648  21200607.3124   21200602.7494
     -1465.8914
  11076381.74749   8615528.72048  22823934.4524   22823928.8394
     -3843.0004
   -811869.62449   -634010.46048  22298313.8354   22298310.5654
      -104.0944
 04  9  2 21 44  0.0030000  0  6G19G 3G 8G13G23G27
  -1510139.98549  -1173407.53547  24621347.3194   24621344.7374
      1176.5944
   -776947.71149   -605711.30047  23932557.1944   23932555.0034
      -701.4694
  -5045889.05249  -3928204.87647  23521469.3584   23521466.6984
      1129.1564
   2335428.81549   1815864.60348  21204802.4524   21204797.7924
     -1473.4064
  11134067.09349   8660478.30448  22834911.8124   22834906.1904
     -3848.4534
   -810289.08049   -632778.86248  22298614.4994   22298611.2534
      -106.6874
 04  9  2 21 44 15.0030000  0  6G19G 3G 8G13G23G27
  -1527764.52849  -1187140.88847  24617994.1014   24617990.6044
      1173.2504
   -766364.87349   -597464.91547  23934571.0694   23934569.0974
      -709.6094
  -5062813.44049  -3941392.70047  23518248.8824   23518246.2374
      1127.4534
   2357580.14249   1833125.38148  21209017.1554   21209012.6794
     -1480.1094
  11191827.92549   8705486.73348  22845902.7024   22845897.7694
     -3853.0624
   -808674.80449   -631520.97448  22298921.9444   22298918.9334
      -108.5944
 04  9  2 21 44 30.0030000  0  6G19G 3G 8G13G23G27
  -1545326.67249  -1200825.60747  24614651.5544   24614648.0584
      1168.7504
   -755647.17249   -589113.43447  23936610.4834   23936608.5504
      -719.0164
  -5079698.01349  -3954549.48547  23515035.7104   23515033.6634
      1124.3594
   2379845.33449   1850474.88448  21213254.5384   21213249.6674
     -1488.0944
  11249671.19349   8750559.37548  22856909.7104   22856904.7294
     -3858.9534
   -807019.79649   -630231.34648  22299236.9294   22299233.3234
      -111.6874
 04  9  2 21 44 45.0030000  0  6G19G 3G 8G13G23G27
  -1562828.60449  -1214463.41547  24611321.3194   24611317.8974
      1164.9064
   -744796.91049   -580658.68147  23938675.4914   23938673.0424
      -727.6254
  -5096545.04849  -3967677.03547  23511829.9684   23511827.8864
      1122.0634
   2402222.08249   1867911.30348  21217512.2804   21217507.9564
     -1495.3284
  11307594.28349   8795694.22048  22867932.3664   22867927.2414
     -3864.0164
   -805326.53149   -628911.91448  22299559.0624   22299555.9444
      -114.0004
 04  9  2 21 45  0.0030000  0  6G19G 3G 8G13G23G27
  -1580269.05049  -1228053.32847  24608002.2104   24607998.5694
      1160.8444
   -733813.08149   -572099.83247  23940765.3904   23940763.6834
      -736.5624
  -5113353.75949  -3980774.71047  23508631.7024   23508629.5344
      1119.5004
   2424711.38349   1885435.43748  21221791.7574   21221787.8434
     -1502.8914
  11365598.00749   8840891.89948  22878970.3904   22878965.3474
     -3869.4064
   -803594.09449   -627561.95248  22299888.8124   22299885.4524
      -116.5624
 04  9  2 21 45 15.0030000  0  6G19G 3G 8G13G23G27
  -1597645.60949  -1241593.45647  24604695.5694   24604692.2294
      1155.8284
   -722693.42749   -563435.15347  23942881.5464   23942879.3944
      -746.2344
  -5130122.19249  -3993841.00447  23505440.1794   23505438.1474
      1116.2504
   2447315.25349   1903048.83148  21226093.6084   21226089.2104
     -1511.1874
  11423684.09949   8886153.76948  22890023.5224   22890018.1514
     -3875.5944
   -801820.45649   -626179.89048  22300225.9134   22300222.6714
      -120.0314
 04  9  2 21 45 30.0030000  0  6G19G 3G 8G13G23G27
  -1614958.49349  -1255083.95047  24601401.4834   24601397.8004
      1151.7034
   -711438.44449   -554665.02147  23945023.5154   23945021.0384
      -755.2034
  -5146850.80149  -4006876.26047  23502257.0224   23502254.9874
      1113.5314
   2470033.28249   1920751.19448  21230416.5074   21230411.8394
     -1518.7034
  11481851.88549   8931479.29348  22901092.7654   22901086.9684
     -3880.8914
   -800006.23849   -624766.20348  22300571.3124   22300568.0694
      -122.6254
 04  9  2 21 45 45.0030000  0  6G19G 3G 8G13G23G27
  -1632206.67649  -1268524.04047  24598118.2804   24598116.0224
      1148.0474
   -700047.24749   -545788.73547  23947191.2574   23947188.8124
      -763.6874
  -5163538.86349  -4019879.92647  23499081.4134   23499079.3004
      1111.4224
   2492866.34349   1938543.17748  21234761.6634   21234757.0344
     -1525.8284
  11540102.06849   8976869.01448  22912177.5854   22912172.2144
     -3885.8914
   -798150.75549   -623320.36048  22300924.4214   22300921.3544
      -124.8284
 04  9  2 21 46  0.0030000  0  6G19G 3G 8G13G23G27
  -1649389.06949  -1281912.85847  24594848.5774   24594846.0074
      1143.2504
   -688519.11349   -536805.77047  23949385.2414   23949382.7104
      -773.0944
  -5180185.66849  -4032851.44647  23495913.1634   23495911.4954
      1108.4224
   2515815.01549   1956425.26448  21239128.6404   21239124.1044
     -1533.6564
  11598435.00149   9022323.21948  22923278.1474   22923272.6714
     -3891.5944
   -796253.41249   -621841.90248  22301285.5544   22301282.3584
      -127.9064
 04  9  2 21 46 15.0030000  0  6G19G 3G 8G13G23G27
  -1666505.06649  -1295249.94547  24591591.7574   24591588.5934
      1138.8594
   -676853.76149   -527715.87347  23951604.5304   23951602.7494
      -782.3124
  -5196790.88249  -4045790.55347  23492753.6794   23492751.4444
      1105.5474
   2538879.68349   1974397.72248  21243517.5074   21243513.2654
     -1541.5624
  11656850.91349   9067842.08948  22934394.1164   22934388.9954
     -3897.1724
   -794314.02649   -620330.67848  22301654.6084   22301651.2064
      -130.7504
 04  9  2 21 46 30.0030000  0  6G19G 3G 8G13G23G27
  -1683556.94849  -1308537.07347  24588346.8194   24588343.0194
      1134.1414
   -665053.55049   -518520.91047  23953850.1324   23953848.2294
      -791.6874
  -5213357.12949  -4058699.29947  23489601.2104   23489598.4054
      1102.6414
   2562057.82549   1992458.62448  21247928.3744   21247923.4994
     -1549.4534
  11715347.02649   9113423.46248  22945525.4684   22945520.1164
     -3902.9374
   -792335.10849   -618788.67148  22302031.1404   22302028.0624
      -133.7034
 04  9  2 21 46 45.0030000  0  6G19G 3G 8G13G23G27
  -1700542.38349  -1321772.45247  24585114.9834   24585111.1364
      1130.4534
   -653116.50549   -509219.30047  23956121.3974   23956119.3124
      -800.0944
  -5229882.53649  -4071576.23447  23486456.8124   23486454.0694
      1100.6254
   2585351.41649   2010609.45848  21252360.7884   21252356.5584
     -1556.4064
  11773925.10949   9159068.68648  22956672.3434   22956666.9174
     -3907.6254
   -790314.85449   -617214.43848  22302415.7104   22302412.0624
      -135.7664
 04  9  2 21 47  0.0030000  0  6G19G 3G 8G13G23G27
  -1717464.14749  -1334958.16647  24581894.5694   24581890.7184
      1125.3284
   -641045.38449   -499813.21547  23958418.9134   23958416.4214
      -809.8444
  -5246370.10449  -4084423.66047  23483319.1014   23483317.1674
      1097.2814
   2608757.55049   2028848.01248  21256814.8904   21256810.2224
     -1564.8284
  11832582.06149   9204775.38048  22967834.5854   22967829.0734
     -3913.6414
   -788256.26749   -615610.32948  22302807.3514   22302803.8704
      -139.1414
 04  9  2 21 47 15.0030000  0  6G19G 3G 8G13G23G27
  -1734314.64749  -1348088.37147  24578687.7414   24578684.6244
      1121.0944
   -628832.97949   -490297.02947  23960742.3354   23960740.6674
      -818.7504
  -5262812.61649  -4097235.99347  23480189.9834   23480187.8974
      1094.7974
   2632283.45749   2047179.88048  21261291.7654   21261287.5424
     -1572.2814
  11891324.74949   9250548.86948  22979013.1714   22979007.9914
     -3918.8754
   -786152.04449   -613970.67448  22303207.8044   22303204.2844
      -141.6724
 04  9  2 21 47 30.0030000  0  6G19G 3G 8G13G23G27
  -1751105.28549  -1361171.93947  24575492.7654   24575489.1554
      1117.4064
   -616490.77949   -480679.71547  23963091.3824   23963089.0224
      -827.0164
  -5279221.95849  -4110022.47347  23477067.4374   23477065.0424
      1092.8914
   2655917.64349   2065596.13448  21265789.1474   21265784.8664
     -1579.2194
  11950141.46149   9296380.05648  22990205.9294   22990200.3124
     -3923.5314
   -784014.10249   -612304.72948  22303614.3824   22303611.4564
      -143.6254
 04  9  2 21 47 45.0030000  0  6G19G 3G 8G13G23G27
  -1767829.13049  -1374203.45747  24572310.7574   24572306.6634
      1112.8594
   -604012.24849   -470956.17247  23965465.3664   23965463.2224
      -836.2974
  -5295591.44749  -4122777.90347  23473952.6404   23473950.7104
      1090.0634
   2679666.55549   2084101.78548  21270308.4444   21270304.3664
     -1586.9694
  12009038.46249   9342273.79348  23001413.4684   23001408.2334
     -3928.9694
   -781835.92949   -610607.43848  22304029.1634   22304025.8624
      -146.5164
 04  9  2 21 48  0.0030000  0  6G19G 3G 8G13G23G27
  -1784486.14449  -1387182.91647  24569140.2884   24569136.8514
      1108.1254
   -591397.53149   -461126.51847  23967866.1714   23967864.5264
      -845.6094
  -5311921.24549  -4135502.40347  23470845.3044   23470843.2884
      1087.2194
   2703529.89649   2102696.59548  21274849.5074   21274844.9014
     -1594.8124
  12068015.39649   9388229.83148  23012636.0544   23012630.5304
     -3934.5784
   -779617.77249   -608879.00248  22304451.2724   22304448.0114
      -149.3444
 04  9  2 21 48 15.0030000  0  6G19G 3G 8G13G23G27
  -1801073.82849  -1400108.31947  24565984.1084   24565980.8084
      1103.7194
   -578644.28049   -451188.92047  23970293.2334   23970291.1984
      -854.6724
  -5328209.16049  -4148194.26547  23467745.7104   23467743.7064
      1084.7194
   2727510.11349   2121382.46448  21279412.6244   21279407.7574
     -1602.3594
  12127074.30749   9434249.72948  23023875.4684   23023869.7224
     -3939.7974
   -777357.55349   -607117.78648  22304881.2104   22304878.2534
      -151.8444
 04  9  2 21 48 30.0030000  0  6G19G 3G 8G13G23G27
  -1817592.04249  -1412979.60947  24562840.6874   24562837.2224
      1098.8444
   -565752.60749   -441143.44647  23972746.0224   23972744.3704
      -864.1564
  -5344455.38749  -4160853.63547  23464654.0694   23464651.6124
      1081.6884
   2751606.89949   2140159.17948  21283998.2104   21283993.5504
     -1610.4064
  12186214.79249   9480333.19548  23035128.5854   23035123.7454
     -3945.4064
   -775055.44249   -605323.92448  22305319.0624   22305315.7964
      -154.9534
 04  9  2 21 48 45.0040000  0  6G19G 3G 8G13G23G27
  -1834047.38449  -1425801.89847  24559708.5664   24559705.4374
      1094.9534
   -552727.41849   -430993.94047  23975224.7854   23975222.8014
      -872.5474
  -5360666.85749  -4173485.93247  23461569.3554   23461566.7344
      1079.6414
   2775816.14249   2159023.51648  21288605.1994   21288600.8754
     -1617.4064
  12245434.74149   9526478.58048  23046397.8944   23046392.7814
     -3950.0624
   -772717.08349   -603501.81748  22305764.3014   22305760.8284
      -156.9064
 04  9  2 21 49  0.0040000  0  6G19G 3G 8G13G23G27
  -1850435.82949  -1438572.05947  24556590.4184   24556587.4454
      1090.5474
   -539568.76149   -420740.43347  23977728.9574   23977726.6724
      -881.5784
  -5376839.98249  -4186088.34247  23458491.1844   23458489.2154
      1077.1254
   2800136.26349   2177974.26148  21293233.0354   21293228.7504
     -1624.9064
  12304727.77349   9572680.91648  23057680.8714   23057675.7664
     -3955.2344
   -770341.37149   -601650.60548  22306216.2304   22306213.3284
      -159.4694
 04  9  2 21 49 15.0040000  0  6G19G 3G 8G13G23G27
  -1866753.10649  -1451286.77047  24553485.5664   24553482.2664
      1085.3134
   -526270.93349   -410378.47347  23980259.7934   23980257.9224
      -891.2194
  -5392970.98049  -4198657.94847  23455421.8554   23455418.9694
      1073.9534
   2824573.75649   2197016.46348  21297883.5434   21297878.6454
     -1633.1724
  12364102.42849   9618946.85448  23068979.6844   23068974.6874
     -3961.1094
   -767923.41649   -599766.48548  22306676.8164   22306673.1564
      -162.7034
 04  9  2 21 49 30.0040000  0  6G19G 3G 8G13G23G27
  -1883001.32249  -1463947.65847  24550393.0514   24550389.9844
      1080.5784
   -512836.12649   -399909.79547  23982816.3014   23982814.3594
      -900.4534
  -5409062.14149  -4211196.51347  23452359.7384   23452357.0314
      1071.1884
   2849126.36049   2216148.35348  21302555.5904   21302551.1644
     -1640.8914
  12423556.21649   9665274.46148  23080293.7694   23080288.9104
     -3966.4064
   -765465.53549   -597851.24248  22307144.2774   22307140.9064
      -165.4224
 04  9  2 21 49 45.0040000  0  6G19G 3G 8G13G23G27
  -1899182.66549  -1476556.44847  24547313.8094   24547310.5314
      1076.5314
   -499266.69649   -389336.19247  23985398.0594   23985395.8874
      -909.0164
  -5425116.04349  -4223706.01247  23449304.7154   23449301.7664
      1069.1254
   2873791.66749   2235368.08448  21307248.8794   21307245.2274
     -1648.0784
  12483086.51349   9711661.68248  23091621.8164   23091616.9844
     -3971.1414
   -762970.16049   -595906.78148  22307619.1134   22307615.6524
      -167.5314
 04  9  2 21 50  0.0040000  0  6G19G 3G 8G13G23G27
  -1915292.36649  -1489109.41347  24544248.7074   24544245.0234
      1071.7974
   -485558.11949   -378654.16047  23988006.7154   23988004.6094
      -918.4374
  -5441128.10249  -4236182.93747  23446257.8244   23446255.1214
      1066.1884
   2898574.07749   2254679.03748  21311964.9494   21311960.7384
     -1655.9694
  12542697.60749   9758111.85248  23102965.3714   23102960.1874
     -3976.7034
   -760432.96749   -593929.74448  22308101.8874   22308098.6054
      -170.4224
 04  9  2 21 50 15.0040000  0  6G19G 3G 8G13G23G27
  -1931332.57049  -1501608.21347  24541196.2304   24541193.0084
      1067.2194
   -471712.74649   -367865.54947  23990641.6294   23990639.1374
      -927.4374
  -5457100.85049  -4248629.22347  23443218.1374   23443215.9344
      1063.8134
   2923471.10449   2274079.32348  21316702.6524   21316698.5624
     -1663.4064
  12602386.85149   9804622.93448  23114324.3404   23114318.6764
     -3981.6564
   -757856.47249   -591922.07048  22308591.6764   22308588.6414
      -172.8284
 04  9  2 21 50 30.0040000  0  6G19G 3G 8G13G23G27
  -1947298.71149  -1514049.30247  24538157.7074   24538153.9574
      1062.0634
   -457726.23349   -356966.97347  23993302.9024   23993300.8364
      -937.1414
  -5473029.86049  -4261041.42547  23440186.8484   23440184.6094
      1060.5784
   2948487.16549   2293572.35648  21321463.3874   21321458.8954
     -1671.6254
  12662158.23149   9851198.00148  23125698.1764   23125692.5784
     -3987.3594
   -755236.33649   -589880.40748  22309090.6994   22309087.1954
      -175.9844
 04  9  2 21 50 45.0040000  0  6G19G 3G 8G13G23G27
  -1963197.58749  -1526437.98347  24535132.1524   24535129.0704
      1057.6254
   -443605.66449   -345963.90547  23995989.7154   23995987.5514
      -945.7504
  -5488922.42549  -4273425.21247  23437162.3484   23437160.6994
      1058.2034
   2973615.19249   2313152.63648  21326244.8714   21326240.5744
     -1678.9224
  12722004.54049   9897831.45648  23137086.0044   23137081.1914
     -3992.3124
   -752579.92349   -587810.46248  22309596.1294   22309593.2934
      -178.3444
 04  9  2 21 51  0.0040000  0  6G19G 3G 8G13G23G27
  -1979024.10349  -1538770.26747  24532120.3244   24532116.8554
      1052.6884
   -429346.22449   -334852.64047  23998703.7304   23998701.4454
      -955.2344
  -5504773.74849  -4285776.88247  23434146.3944   23434143.9654
      1055.3444
   2998859.85349   2332823.80948  21331048.7774   21331044.0664
     -1686.8444
  12781930.18149   9944526.73648  23148490.0824   23148484.0554
     -3997.6564
   -749882.45749   -585708.53448  22310109.4494   22310106.3754
      -181.1874
 04  9  2 21 51 15.0040000  0  6G19G 3G 8G13G23G27
  -1994780.58649  -1551047.98147  24529121.9964   24529118.8484
      1048.0944
   -414950.41849   -323635.13847  24001442.7234   24001440.4304
      -964.2504
  -5520586.38249  -4298098.39047  23431137.5354   23431135.0474
      1052.8594
   3024218.61649   2352583.87248  21335874.1844   21335869.6134
     -1694.4064
  12841932.53049   9991281.79348  23159908.1604   23159902.8594
     -4002.7344
   -747146.47249   -583576.59748  22310630.0904   22310626.4654
      -183.7194
 04  9  2 21 51 30.0040000  0  6G19G 3G 8G13G23G27
  -2010464.65349  -1563269.29747  24526138.3324   24526133.7194
      1043.1414
   -400416.29549   -312309.82347  24004209.0124   24004206.2664
      -973.6254
  -5536358.62849  -4310388.45047  23428135.9574   23428133.4454
      1050.1094
   3049693.41849   2372434.36448  21340722.3244   21340717.9104
     -1702.2974
  12902013.33249  10038097.95948  23171341.0744   23171335.2894
     -4008.0944
   -744370.16549   -581413.23648  22311157.9964   22311155.1054
      -186.4694
 04  9  2 21 51 45.0040000  0  6G19G 3G 8G13G23G27
  -2026077.65449  -1575435.19447  24523166.8484   24523162.2034
      1038.7974
   -385745.35249   -300877.89847  24007001.0744   24006998.6604
      -982.2974
  -5552091.94149  -4322648.14447  23425142.3404   23425139.5354
      1047.9224
   3075282.78249   2392374.12648  21345591.5274   21345587.2814
     -1709.5474
  12962170.75749  10084973.85348  23182788.6844   23182783.1094
     -4012.7974
   -741555.24449   -579219.77648  22311694.1374   22311690.9734
      -188.6564
 04  9  2 21 52  0.0040000  0  6G19G 3G 8G13G23G27
  -2041621.78249  -1587547.44547  24520208.8794   24520204.8404
      1033.5784
   -370940.03949   -289341.28547  24009817.4494   24009815.7664
      -991.8754
  -5567789.01149  -4334879.60547  23422154.9964   23422152.8164
      1044.8594
   3100984.27349   2412401.25948  21350482.6214   21350478.2384
     -1717.5944
  13022402.17349  10131907.40348  23194250.2304   23194245.2384
     -4018.2974
   -738704.28549   -576998.24348  22312236.4104   22312233.1094
      -191.6414
 04  9  2 21 52 15.0040000  0  6G19G 3G 8G13G23G27
  -2057090.98849  -1599601.32147  24517265.0984   24517261.3244
      1029.0634
   -355994.40049   -277695.32147  24012662.0274   24012659.9494
     -1000.7664
  -5583443.91749  -4347078.22247  23419175.5044   23419173.1094
      1042.5004
   3126803.61249   2432520.23048  21355395.6914   21355391.5234
     -1724.9534
  13082713.24549  10178903.01348  23205726.7934   23205722.1874
     -4023.0944
   -735811.39249   -574744.04248  22312786.9804   22312783.9614
      -193.9224
 04  9  2 21 52 30.0040000  0  6G19G 3G 8G13G23G27
  -2072483.89349  -1611595.74147  24514335.8164   24514332.1644
      1023.6254
   -340907.44349   -265939.23247  24015532.4654   24015530.5474
     -1010.5004
  -5599055.67049  -4359243.21047  23416204.8324   23416202.4734
      1039.3134
   3152741.90349   2452731.87848  21360331.7704   21360327.4574
     -1733.1874
  13143104.70349  10225961.25248  23217219.1294   23217213.9374
     -4028.8124
   -732875.59049   -572456.40048  22313345.9574   22313342.5124
      -197.1874
 04  9  2 21 52 45.0040000  0  6G19G 3G 8G13G23G27
  -2087803.85549  -1623533.31647  24511420.3944   24511416.8284
      1018.6884
   -325682.87849   -254075.92347  24018429.8634   24018427.7304
     -1019.7034
  -5614628.06449  -4371377.53147  23413241.7304   23413239.0314
      1036.6254
   3178795.39749   2473033.30448  21365289.7854   21365285.1564
     -1740.8914
  13203572.52649  10273079.01148  23228726.0044   23228720.5664
     -4033.9534
   -729900.84749   -570138.40148  22313911.9804   22313909.0394
      -199.8124
 04  9  2 21 53  0.0040000  0  6G19G 3G 8G13G23G27
  -2103047.00649  -1635411.03347  24508519.2854   24508515.8754
      1013.8444
   -310317.09949   -242102.58747  24021353.6914   24021351.7774
     -1028.7664
  -5630157.49749  -4383478.37647  23410286.2304   23410283.5904
      1034.0944
   3204967.72049   2493427.31948  21370270.0434   21370265.8484
     -1748.4844
  13264120.19049  10320258.98048  23240247.7154   23240242.5354
     -4038.9064
   -726883.48649   -567787.21748  22314486.1914   22314482.5274
      -202.3914
 04  9  2 21 53 15.0040000  0  6G19G 3G 8G13G23G27
  -2118218.27349  -1647232.75947  24505632.1994   24505629.1444
      1009.1884
   -294815.14349   -230023.11747  24024303.8874   24024301.4024
     -1037.8284
  -5645649.08049  -4395549.72947  23407338.5664   23407335.7504
      1031.6094
   3231253.76849   2513909.94148  21375272.0204   21375267.7664
     -1756.0624
  13324742.32349  10367496.97348  23251784.2774   23251779.0124
     -4043.7814
   -723828.77949   -565406.91348  22315067.2694   22315064.0744
      -204.7344
 04  9  2 21 53 30.0040000  0  6G19G 3G 8G13G23G27
  -2133318.20749  -1658998.86247  24502759.1524   24502756.0124
      1004.3284
   -279177.72849   -217838.13947  24027279.4884   24027277.3204
     -1047.0004
  -5661103.71949  -4407592.27347  23404397.4734   23404394.7814
      1029.1414
   3257652.59249   2534480.45348  21380295.4574   21380291.2974
     -1763.6094
  13385437.92749  10414792.21847  23263333.8484   23263328.6024
     -4048.7034
   -720737.72949   -562998.28748  22315655.6134   22315651.9844
      -207.2344
 04  9  2 21 53 45.0040000  0  6G19G 3G 8G13G23G27
  -2148350.99549  -1670712.67547  24499898.6684   24499895.3204
       999.5944
   -263409.41249   -205551.10547  24030280.1444   24030278.3484
     -1055.7974
  -5676525.93849  -4419609.57847  23401462.4494   23401460.2194
      1026.8594
   3284159.75149   2555135.39148  21385339.8554   21385335.2194
     -1770.9534
  13446202.35349  10462141.09548  23274896.8634   23274891.8834
     -4053.5944
   -717614.66049   -560564.71848  22316249.9184   22316246.3554
      -209.4844
 04  9  2 21 54  0.0040000  0  6G19G 3G 8G13G23G27
  -2163311.58749  -1682370.21947  24497051.0194   24497047.9414
       994.9534
   -247505.45949   -193158.41447  24033306.5824   24033304.4844
     -1064.7194
  -5691911.22749  -4431598.07847  23398534.8554   23398532.6914
      1024.5004
   3310779.97149   2575878.41548  21390405.4264   21390400.8014
     -1778.4844
  13507039.87649  10509546.94748  23286474.0594   23286468.7274
     -4058.3284
   -714455.13349   -558102.74148  22316850.8554   22316847.4144
      -211.9064
 04  9  2 21 54 15.0040000  0  6G19G 3G 8G13G23G27
  -2178200.04249  -1693971.55847  24494218.1294   24494214.0624
       990.2664
   -231466.09349   -180660.19547  24036358.5594   24036356.6414
     -1073.6564
  -5707259.63749  -4443557.84947  23395614.5194   23395611.8204
      1022.0634
   3337512.90049   2596709.26048  21395492.2304   21395488.1914
     -1785.8124
  13567950.13449  10557009.43247  23298064.5984   23298059.7074
     -4063.0004
   -711259.39149   -555612.54948  22317459.2624   22317455.9574
      -214.1094
 04  9  2 21 54 30.0040000  0  6G19G 3G 8G13G23G27
  -2193008.06349  -1705510.21047  24491399.8874   24491396.6414
       984.9694
   -215283.27149   -168050.20747  24039438.3714   24039435.8874
     -1083.2034
  -5722563.44449  -4455482.89147  23392702.1914   23392699.4654
      1019.2034
   3364366.74749   2617634.34448  21400602.3714   21400598.0744
     -1793.8594
  13628940.88849  10604534.67847  23309671.1764   23309665.5864
     -4068.3754
   -708019.49449   -553087.94948  22318075.9104   22318072.4304
      -217.0164
 04  9  2 21 54 45.0040000  0  6G19G 3G 8G13G23G27
  -2207743.61649  -1716992.40547  24488596.4414   24488592.6174
       980.3914
   -198965.33849   -155334.92147  24042542.8944   24042540.6294
     -1091.9374
  -5737830.99449  -4467379.65547  23389796.5744   23389794.0394
      1017.0164
   3391333.00549   2638647.00648  21405733.9574   21405729.3054
     -1801.0624
  13690003.67349  10652116.04147  23321291.0124   23321285.6524
     -4072.8444
   -704743.92849   -550535.55348  22318699.0594   22318695.8404
      -219.1094
 04  9  2 21 55  0.0040000  0  6G19G 3G 8G13G23G27
  -2222409.10549  -1728420.01547  24485804.9494   24485801.7234
       975.0474
   -182514.94849   -142516.43147  24045673.8094   24045671.4964
     -1101.2664
  -5753064.74949  -4479250.09447  23386897.5514   23386894.6644
      1014.2814
   3418409.06049   2659745.22948  21410886.3324   21410881.9654
     -1808.8754
  13751135.70149  10699751.36147  23332923.6994   23332918.5984
     -4078.0004
   -701435.31649   -547957.40148  22319328.6914   22319325.3914
      -221.8284
 04  9  2 21 55 15.0040000  0  6G19G 3G 8G13G23G27
  -2237002.33049  -1739791.31447  24483028.2234   24483024.2894
       970.2194
   -165929.97349   -129593.07047  24048830.1444   24048827.8634
     -1110.2974
  -5768262.72949  -4491092.65647  23384006.1684   23384003.2734
      1011.7814
   3445596.90249   2680930.55448  21416060.0124   21416055.8054
     -1816.4064
  13812338.50949  10747441.82247  23344570.1214   23344564.8554
     -4082.7034
   -698091.74249   -545352.01548  22319965.2074   22319961.2894
      -224.3124
 04  9  2 21 55 30.0040000  0  6G19G 3G 8G13G23G27
  -2251520.24049  -1751103.92547  24480265.6134   24480261.8364
       965.1414
   -149207.83849   -116562.82547  24052011.7934   24052009.8794
     -1119.5624
  -5783422.39349  -4502905.36447  23381121.0824   23381118.1724
      1009.1884
   3472899.14749   2702205.01748  21421255.7074   21421251.1954
     -1824.1564
  13873614.61649  10795189.41547  23356231.0434   23356225.8164
     -4087.6254
   -694710.69349   -542717.42548  22320608.2934   22320605.0594
      -226.7664
 04  9  2 21 55 45.0040000  0  6G19G 3G 8G13G23G27
  -2265962.13049  -1762357.29147  24477517.8794   24477513.6414
       960.1414
   -132348.08849   -103425.36547  24055220.8944   24055217.9454
     -1128.6874
  -5798543.41349  -4514687.95147  23378243.7774   23378240.4534
      1006.7344
   3500316.24249   2723568.99548  21426473.0044   21426468.5514
     -1831.7344
  13934964.36749  10842994.39748  23367905.5434   23367900.3054
     -4092.4534
   -691291.67549   -540053.25348  22321259.2074   22321255.7114
      -229.2814
 04  9  2 21 56  0.0040000  0  6G19G 3G 8G13G23G27
  -2280331.36849  -1773554.05547  24474783.2234   24474779.0314
       954.8754
   -115354.24949    -90183.40347  24058453.1684   24058451.7934
     -1137.9534
  -5813629.48749  -4526443.31347  23375372.4884   23375369.9064
      1003.9384
   3527844.57749   2745019.63948  21431711.4104   21431706.7734
     -1839.5784
  13996383.80549  10890853.66947  23379593.1214   23379587.7854
     -4097.5784
   -687838.42549   -537362.39048  22321915.8164   22321912.5044
      -231.9844
 04  9  2 21 56 15.0040000  0  6G19G 3G 8G13G23G27
  -2294624.12749  -1784691.24047  24472063.0904   24472059.1374
       950.2194
    -98222.91949    -76834.31547  24061714.3244   24061712.3324
     -1146.7814
  -5828677.21349  -4538168.79547  23372509.6054   23372506.3594
      1001.8594
   3555487.62049   2766559.67548  21436971.4414   21436967.3094
     -1846.7344
  14057876.15449  10938769.75547  23391294.5274   23391290.0164
     -4101.9534
   -684347.62049   -534642.27548  22322580.5664   22322577.2504
      -234.0314
 04  9  2 21 56 30.0040000  0  6G19G 3G 8G13G23G27
  -2308842.93049  -1795770.78147  24469357.0594   24469353.6844
       944.9064
    -80956.82749    -63380.22247  24064999.9574   24064997.9884
     -1156.1094
  -5843689.18849  -4549866.41047  23369652.8094   23369649.9264
       999.1564
   3583242.51549   2788186.86048  21442253.3874   21442249.1374
     -1854.5004
  14119438.41349  10986740.32347  23403009.8094   23403004.4454
     -4106.9844
   -680822.04849   -531895.07148  22323251.0744   22323247.6764
      -236.6724
 04  9  2 21 56 45.0040000  0  6G19G 3G 8G13G23G27
  -2322980.13549  -1806786.74647  24466666.9734   24466663.0354
       939.7194
    -63548.57649    -49815.34147  24068311.7544   24068309.9694
     -1165.2814
  -5858658.06949  -4561530.45347  23366804.1054   23366801.3244
       996.5634
   3611116.68949   2809906.99748  21447557.4104   21447553.7584
     -1862.2664
  14181077.67349  11034770.88547  23414738.9804   23414734.2544
     -4111.9064
   -677254.37849   -529115.06048  22323930.0514   22323926.6644
      -239.2344
 04  9  2 21 57  0.0040000  0  6G19G 3G 8G13G23G27
  -2337038.86149  -1817741.56347  24463991.7154   24463988.2854
       934.5784
    -46001.46349    -36142.26147  24071651.0194   24071649.0234
     -1174.3444
  -5873587.37649  -4573163.65147  23363962.6214   23363960.8054
       994.0634
   3639106.84149   2831717.50448  21452883.8554   21452879.6524
     -1869.8754
  14242790.60649  11082858.85247  23426483.0594   23426477.6214
     -4116.5944
   -673648.04249   -526304.92148  22324616.5664   22324612.8364
      -241.6874
 04  9  2 21 57 15.0040000  0  6G19G 3G 8G13G23G27
  -2351018.58949  -1828634.80347  24461331.1994   24461327.8094
       929.4534
    -28315.26049    -22360.81647  24075017.0824   24075014.8444
     -1183.6414
  -5888477.14449  -4584766.04147  23361129.3014   23361127.1804
       991.3914
   3667213.06149   2853618.45448  21458232.0904   21458227.9304
     -1877.4694
  14304577.13649  11131004.16847  23438240.6294   23438235.5124
     -4121.4534
   -670002.87149   -523464.52348  22325309.8014   22325306.6054
      -244.1724
 04  9  2 21 57 30.0040000  0  6G19G 3G 8G13G23G27
  -2364918.30949  -1839465.72947  24458686.5044   24458682.7694
       924.1254
    -10489.41849     -8470.55247  24078408.9734   24078407.3364
     -1192.9694
  -5903326.58049  -4596337.00647  23358303.7464   23358301.2424
       988.7034
   3695436.13549   2875610.45148  21463603.0664   21463598.3554
     -1885.3124
  14366437.61249  11179207.11047  23450012.2854   23450006.9144
     -4126.3594
   -666318.31249   -520593.43248  22326011.0124   22326007.6874
      -246.8444
 04  9  2 21 57 45.0040000  0  6G19G 3G 8G13G23G27
  -2378741.90349  -1850237.32747  24456056.2624   24456052.1334
       918.8754
      7472.01749      5525.38347  24081827.5044   24081825.1254
     -1202.1414
  -5918139.64449  -4607879.61948  23355484.9184   23355482.6094
       986.1564
   3723771.79349   2897690.18248  21468994.9574   21468990.6644
     -1892.9694
  14428367.66549  11227464.26547  23461797.0514   23461791.5554
     -4131.1874
   -662598.58449   -517694.92048  22326718.7694   22326715.6374
      -249.2814
 04  9  2 21 58  0.0040000  0  6G19G 3G 8G13G23G27
  -2392482.55449  -1860944.28047  24453441.0984   24453436.9144
       913.3594
     25575.64849     19632.10647  24085272.2384   24085269.8594
     -1211.5164
  -5932910.08349  -4619389.03147  23352673.7544   23352672.0004
       983.3284
   3752226.56049   2919862.71948  21474409.7774   21474405.5274
     -1900.9224
  14490373.71149  11275780.63747  23473596.2464   23473591.3054
     -4136.2504
   -658837.15749   -514763.94048  22327434.4804   22327431.1484
      -252.1094
 04  9  2 21 58 15.0040000  0  6G19G 3G 8G13G23G27
  -2406145.65249  -1871590.81147  24450840.8874   24450837.6804
       908.7034
     43815.80049     33845.21247  24088743.3014   24088740.6294
     -1220.1094
  -5947643.34949  -4630869.47747  23349870.2934   23349867.8794
       981.3754
   3780794.75749   2942123.64148  21479846.3324   21479841.4884
     -1907.9534
  14552449.82149  11324151.59247  23485409.2464   23485404.4734
     -4140.4064
   -655039.73449   -511804.90648  22328157.0984   22328153.6684
      -253.9694
 04  9  2 21 58 30.0040000  0  6G19G 3G 8G13G23G27
  -2419728.59049  -1882174.89047  24448256.0354   24448252.0784
       903.1414
     62194.91649     48166.59947  24092240.4654   24092238.5944
     -1229.6414
  -5962337.20349  -4642319.21647  23347074.4264   23347071.6874
       978.5474
   3809478.74149   2964474.80548  21485304.7384   21485300.1214
     -1915.9064
  14614598.01849  11372578.74547  23497235.6444   23497230.5624
     -4145.2814
   -651203.99349   -508816.00348  22328887.4024   22328884.0944
      -256.6724
 04  9  2 21 58 45.0040000  0  6G19G 3G 8G13G23G27
  -2433232.30749  -1892697.22747  24445686.2774   24445682.5624
       897.6414
     80711.54949     62595.14647  24095764.3324   24095762.1414
     -1239.0164
  -5976993.00649  -4653739.29547  23344285.0904   23344282.5434
       975.8134
   3838277.31749   2986915.25248  21490784.6294   21490780.4734
     -1923.6414
  14676816.97649  11421061.00547  23509075.2624   23509070.2854
     -4150.2664
   -647331.40249   -505798.39748  22329624.3244   22329620.9344
      -259.3444
 04  9  2 21 59  0.0040000  0  6G19G 3G 8G13G23G27
  -2446655.57549  -1903156.88347  24443131.8634   24443128.3444
       892.1094
     99366.60749     77131.54647  24099314.0984   24099312.3674
     -1248.2814
  -5991610.10249  -4665129.22547  23341503.7694   23341501.0394
       973.0784
   3867191.36249   3009445.67348  21496287.0514   21496282.5664
     -1931.5944
  14739107.23349  11469598.84547  23520928.9804   23520923.8554
     -4155.1874
   -643421.10049   -502751.40748  22330368.3244   22330364.9344
      -262.0474
 04  9  2 21 59 15.0040000  0  6G19G 3G 8G13G23G27
  -2459996.52449  -1913552.39647  24440593.6214   24440590.0664
       886.7504
    118161.69049     91777.08047  24102890.7234   24102888.4534
     -1257.5784
  -6006186.61649  -4676487.52347  23338730.0044   23338727.7344
       970.4384
   3896222.46849   3032067.30548  21501811.8014   21501807.0904
     -1939.2974
  14801470.30349  11518193.40147  23532795.8794   23532791.3124
     -4159.8754
   -639471.38649   -499673.70648  22331119.8874   22331116.6564
      -264.5784
 04  9  2 21 59 30.0040000  0  6G19G 3G 8G13G23G27
  -2473253.37649  -1923882.36947  24438070.5434   24438067.1254
       881.0164
    137098.42949    106532.98147  24106494.7624   24106492.4574
     -1267.1874
  -6020721.09749  -4687813.07647  23335964.4344   23335961.7194
       967.5474
   3925372.05249   3054781.26148  21507358.4804   21507353.5204
     -1947.2974
  14863907.39749  11566845.65747  23544677.7694   23544672.7114
     -4164.9694
   -635480.96649   -496564.27248  22331879.2694   22331875.7664
      -267.4064
 04  9  2 21 59 45.0040000  0  6G19G 3G 8G13G23G27
  -2486426.73249  -1934147.28947  24435563.8634   24435560.3324
       875.3284
    156175.87449    121398.51147  24110124.4654   24110122.4454
     -1276.7194
  -6035214.49449  -4699106.59647  23333206.1684   23333203.4454
       964.7344
   3954639.24349   3077586.86548  21512927.8014   21512923.3554
     -1955.2344
  14926417.38749  11615554.71247  23556572.9344   23556568.0824
     -4169.9224
   -631450.68049   -493423.78048  22332646.3404   22332642.9344
      -270.0624
 04  9  2 22  0  0.0040000  0  6G19G 3G 8G13G23G27
  -2499517.10349  -1944347.55147  24433073.3554   24433069.0864
       869.3284
    175393.42149    136373.24047  24113781.7154   24113779.0904
     -1286.5314
  -6049667.55749  -4710368.70847  23330456.1214   23330453.5554
       961.5474
   3984023.31049   3100483.53848  21518519.2544   21518514.9774
     -1963.4534
  14988999.34649  11664319.83747  23568482.0594   23568476.9654
     -4175.1724
   -627381.36849   -490252.88448  22333420.3244   22333417.1414
      -273.2194
 04  9  2 22  0 15.0040000  0  6G19G 3G 8G13G23G27
  -2512521.63049  -1954480.89847  24430597.7234   24430594.2114
       863.9224
    194753.52549    151459.03947  24117466.1444   24117463.1954
     -1295.5784
  -6064077.56549  -4721597.26347  23327713.6294   23327711.2274
       959.1094
   4013526.60649   3123473.11448  21524133.8094   21524129.2584
     -1970.8914
  15051655.66149  11713142.91047  23580405.4024   23580400.2624
     -4179.7194
   -623270.45749   -487049.56848  22334202.4884   22334199.3754
      -275.5784
 04  9  2 22  0 30.0040000  0  6G19G 3G 8G13G23G27
  -2525440.22849  -1964547.30347  24428140.0594   24428136.0984
       858.5314
    214256.03949    166655.82047  24121176.9494   24121174.6254
     -1304.7344
  -6078445.06349  -4732792.69448  23324979.4654   23324977.3404
       956.5004
   4043148.94349   3146555.45448  21529770.5904   21529766.3674
     -1978.6874
  15114385.84249  11762023.53447  23592342.1914   23592337.5514
     -4184.2974
   -619118.42449   -483814.21248  22334993.1994   22334989.6094
      -278.0944
 04  9  2 22  0 45.0040000  0  6G19G 3G 8G13G23G27
  -2538271.43249  -1974545.61247  24425697.4654   24425694.0474
       852.5784
    233902.03849    181964.38947  24124915.5664   24124913.2694
     -1314.4374
  -6092768.75849  -4743954.01148  23322254.0824   23322251.3124
       953.5474
   4072891.65649   3169731.60248  21535430.2694   21535425.9224
     -1986.7664
  15177190.96149  11810962.56747  23604293.8714   23604288.8674
     -4189.4064
   -614923.97149   -480545.80948  22335791.1374   22335787.6094
      -280.9534
 04  9  2 22  1  0.0040000  0  7G19G 3G 8G13G10G23G27
  -2551021.10649  -1984480.39547  24423271.2774   24423267.6524
       846.7664
    253685.30049    197379.93147  24128679.9414   24128677.8404
     -1323.8914
  -6107055.04649  -4755086.14747  23319535.5434   23319532.8554
       950.6884
   4102748.54549   3192996.70348  21541112.0354   21541107.2464
     -1994.7814
    -28775.27959    -19905.22557  25363640.3944   25363638.4304
       943.7344
  15240064.53849  11859954.94247  23616258.1764   23616253.1874
     -4194.3754
   -610693.33049   -477249.19048  22336596.1994   22336592.4884
      -283.7344
 04  9  2 22  1 15.0040000  0  7G19G 3G 8G13G10G23G27
  -2563685.05549  -1994348.36547  24420862.2074   24420858.0004
       841.6094
    273609.78149    212905.52547  24132471.7624   24132469.1604
     -1332.7504
  -6121299.98749  -4766186.09547  23316824.7544   23316821.1524
       948.4844
   4132723.45849   3216353.76248  21546816.0904   21546811.4884
     -2002.0784
    -42880.17749    -30896.03947  25360956.4734   25360954.4614
       936.7034
  15303010.28849  11909003.53247  23628236.1604   23628231.3714
     -4198.5944
   -606422.69649   -473921.41848  22337408.6524   22337405.4304
      -285.8124
 04  9  2 22  1 30.0040000  0  7G19G 3G 8G13G10G23G27
  -2576268.73649  -2004153.78347  24418467.6134   24418463.1874
       836.1884
    293669.84849    228536.74847  24136288.7854   24136286.7194
     -1341.9844
  -6135509.07649  -4777258.07847  23314120.7544   23314117.4694
       946.0004
   4162810.64849   3239798.33748  21552541.4184   21552537.3484
     -2009.6414
    -56877.87149    -41803.25146  25358292.5434   25358291.1684
       929.4534
  15366022.18549  11958103.69547  23640227.1844   23640222.3204
     -4203.1564
   -602117.72849   -470566.89048  22338227.9494   22338224.3834
      -288.2034
 04  9  2 22  1 45.0040000  0  7G19G 3G 8G13G10G23G27
  -2588768.61649  -2013893.91847  24416089.0274   24416084.4414
       830.3914
    313868.57249    244276.03347  24140132.3324   24140130.5194
     -1351.3124
  -6149679.26349  -4788299.76647  23311424.3554   23311421.2114
       943.2344
   4193013.30849   3263332.87548  21558288.7544   21558284.4304
     -2017.4844
    -70764.97549    -52624.37946  25355649.4104   25355648.6094
       921.9844
  15429103.27349  12007257.75647  23652231.2854   23652226.3524
     -4207.8284
   -597775.32949   -467183.19448  22339054.2544   22339050.6644
      -290.8444
 04  9  2 22  2  0.0040000  0  7G19G 3G 8G13G10G23G27
  -2601178.64249  -2023564.03747  24413726.8794   24413722.9774
       824.5314
    334211.81949    260127.92647  24144003.1684   24144001.4064
     -1360.8284
  -6163804.75749  -4799306.63647  23308736.2934   23308733.1644
       940.4064
   4223337.21349   3286961.89048  21564059.3714   21564055.4024
     -2025.4224
    -84535.42349    -63354.58047  25353029.7544   25353027.6054
       914.2664
  15492259.14649  12056470.08747  23664248.9024   23664244.5824
     -4212.6874
   -593389.78149   -463765.88048  22339888.5124   22339885.5314
      -293.6414
 04  9  2 22  2 15.0040000  0  7G19G 3G 8G13G10G23G27
  -2613504.57249  -2033168.59847  24411381.0274   24411377.6914
       818.8594
    354693.57349    276087.72847  24147901.2624   24147898.6874
     -1370.1414
  -6177891.56449  -4810283.34748  23306055.8554   23306052.5984
       937.8284
   4253776.44449   3310680.76548  21569851.3164   21569847.3484
     -2033.1564
    -98195.06649    -73998.44046  25350430.0434   25350428.6414
       906.9224
  15555483.51649  12105735.79447  23676280.6294   23676275.4734
     -4217.2974
   -588967.13049   -460319.65148  22340730.2624   22340726.9964
      -296.0944
 04  9  2 22  2 30.0040000  0  7G19G 3G 8G13G10G23G27
  -2625744.96049  -2042706.52747  24409051.9024   24409048.3524
       813.3134
    375314.99049    292156.39247  24151825.0664   24151822.6644
     -1379.2974
  -6191938.52849  -4821229.01447  23303382.5514   23303379.6524
       935.3134
   4284332.08349   3334490.34548  21575666.0434   21575661.7114
     -2040.8444
   -111742.57849    -84554.91247  25347851.8794   25347850.1564
       899.5314
  15618777.40949  12155055.68747  23688324.6524   23688320.0314
     -4221.7504
   -584506.19649   -456843.59348  22341579.2544   22341575.9924
      -298.5314
 04  9  2 22  2 45.0040000  0  7G19G 3G 8G13G10G23G27
  -2637900.60749  -2052178.42247  24406739.0274   24406735.4304
       807.5004
    396074.93149    308332.98447  24155775.8554   24155773.4454
     -1388.5784
  -6205947.00849  -4832144.69548  23300716.6994   23300714.0624
       932.6414
   4315002.89249   3358389.67948  21581502.5664   21581497.9734
     -2048.6254
   -125178.84549    -95024.70547  25345295.2544   25345293.8164
       892.1254
  15682139.44949  12204428.66347  23700382.4184   23700377.5984
     -4226.4064
   -580008.30549   -453338.74148  22342434.8944   22342431.8244
      -301.0004
 04  9  2 22  3  0.0040000  0  7G19G 3G 8G13G10G23G27
  -2649969.94249  -2061583.04047  24404442.1374   24404438.0784
       801.3134
    416974.65049    324618.49447  24159753.0824   24159750.6024
     -1398.3594
  -6219915.59449  -4843029.29448  23298058.6844   23298055.9024
       929.4694
   4345790.15749   3382379.75048  21587361.2854   21587357.0744
     -2056.7034
   -138502.39449   -105406.66647  25342760.0744   25342758.2114
       884.2504
  15745570.50449  12253855.42247  23712453.0594   23712448.1954
     -4231.3754
   -575472.04149   -449803.98348  22343298.2694   22343294.9064
      -304.0164
 04  9  2 22  3 15.0040000  0  7G19G 3G 8G13G10G23G27
  -2661949.75749  -2070917.91547  24402162.2234   24402158.3754
       795.3594
    438017.05149    341015.18147  24163757.3944   24163755.4654
     -1407.9224
  -6233841.20949  -4853880.40348  23295408.6524   23295406.1994
       926.6414
   4376696.81649   3406462.85548  21593242.4574   21593238.3714
     -2064.7194
   -151710.03649   -115698.34646  25340246.7854   25340244.7694
       876.4384
  15809073.45649  12303338.20647  23724537.2934   23724532.5904
     -4236.2034
   -570894.65549   -446237.18448  22344169.5274   22344166.3914
      -306.7974
 04  9  2 22  3 30.0040000  0  7G19G 3G 8G13G10G23G27
  -2673841.96249  -2080184.54447  24399899.6214   24399895.3874
       789.6254
    459199.90349    357521.32547  24167788.8554   24167786.0194
     -1417.1094
  -6247726.14749  -4864699.81448  23292766.8094   23292764.4344
       924.0634
   4407720.65849   3430637.28048  21599146.1684   21599141.6094
     -2072.3284
   -164803.75049   -125901.16447  25337755.1214   25337753.3364
       869.0004
  15872645.86949  12352875.12247  23736634.7694   23736629.7814
     -4240.7034
   -566278.29149   -442640.01948  22345047.9884   22345044.5354
      -309.2974
 04  9  2 22  3 45.0040000  0  7G19G 3G 8G13G10G23G27
  -2685645.47449  -2089382.03247  24397653.4884   24397649.1214
       783.9384
    480524.15249    374137.64147  24171845.5904   24171843.9614
     -1426.3124
  -6261569.67249  -4875486.95248  23290131.5824   23290129.8014
       921.4384
   4438862.51849   3454903.66548  21605072.2694   21605068.0314
     -2080.0944
   -177782.60449   -136014.58247  25335285.4024   25335283.4614
       861.3754
  15936288.48149  12402466.71647  23748745.5514   23748740.7384
     -4245.2194
   -561622.13849   -439011.83548  22345934.0044   22345930.5274
      -311.7974
 04  9  2 22  4  0.0040000  0  7G19G 3G 8G13G10G23G27
  -2697356.74049  -2098507.63947  24395424.6374   24395420.9144
       777.7664
    501992.86049    390866.53047  24175931.0904   24175929.0314
     -1435.9064
  -6275368.46549  -4886239.24648  23287506.1374   23287503.6484
       918.5474
   4470125.48649   3479264.41048  21611021.7304   21611017.0314
     -2088.1564
   -190643.26149   -146035.86146  25332837.5514   25332836.0784
       853.6564
  16000004.14449  12452115.27447  23760870.0354   23760865.0864
     -4250.0624
   -556923.15149   -435350.28148  22346828.1604   22346824.6524
      -314.5944
 04  9  2 22  4 15.0040000  0  7G19G 3G 8G13G10G23G27
  -2708977.47449  -2107562.73047  24393213.5124   24393208.8634
       771.5944
    523603.93849    407706.33547  24180044.0514   24180041.0624
     -1445.6094
  -6289124.86749  -4896958.51248  23284888.2934   23284885.6954
       915.5784
   4501507.63449   3503718.04248  21616993.3014   21616989.4304
     -2096.1724
   -203387.38249   -155966.30446  25330412.6294   25330411.1844
       845.5634
  16063790.80749  12501819.12747  23773008.2624   23773003.3914
     -4254.8914
   -552183.31349   -431656.89848  22347730.0514   22347726.6444
      -317.5004
 04  9  2 22  4 30.0040000  0  7G19G 3G 8G13G10G23G27
  -2720510.73649  -2116549.63147  24391018.7074   24391014.9344
       765.9844
    545353.94849    424654.42747  24184182.6214   24184180.6604
     -1454.6414
  -6302841.89949  -4907647.08948  23282278.4804   23282275.3054
       913.1884
   4533005.32849   3528261.68348  21622987.0594   21622983.0594
     -2103.6414
   -216018.22149   -165808.47346  25328008.7694   25328007.5044
       838.2974
  16127644.58749  12551575.27547  23785159.2464   23785154.8714
     -4259.1874
   -547406.10249   -427934.38448  22348639.6134   22348636.0194
      -319.7194
 04  9  2 22  4 45.0040000  0  7G19G 3G 8G13G10G23G27
  -2731955.12449  -2125467.30847  24388840.5904   24388836.5664
       760.0474
    567244.36149    441711.90347  24188347.8944   24188346.0274
     -1463.9374
  -6316518.49049  -4918304.15348  23279675.5194   23279672.5554
       910.4844
   4564620.18549   3552896.64248  21629003.4414   21628999.1564
     -2111.5004
   -228534.24549   -175561.21647  25325627.4104   25325625.9264
       830.7034
  16191566.72849  12601384.70247  23797323.1604   23797318.6254
     -4263.6254
   -542590.18149   -424181.72048  22349555.8794   22349552.3244
      -322.2664
 04  9  2 22  5  0.0040000  0  7G19G 3G 8G13G10G23G27
  -2743309.03849  -2134314.46147  24386680.6374   24386675.5984
       753.9844
    589276.45349    458879.78647  24192540.9804   24192538.3014
     -1473.4064
  -6330153.32649  -4928928.68748  23277081.3164   23277077.5194
       907.7344
   4596353.32549   3577623.75648  21635041.9494   21635037.5314
     -2119.2974
   -240933.95049   -185223.30147  25323267.3014   25323266.2504
       822.9694
  16255558.28849  12651248.22447  23809500.6294   23809496.3364
     -4268.2194
   -537734.38449   -420397.96548  22350480.0904   22350476.2194
      -324.8914
 04  9  2 22  5 15.0040000  0  7G19G 3G 8G13G10G23G27
  -2754573.72649  -2143092.11847  24384536.5194   24384532.2854
       747.9064
    611448.53149    476156.74047  24196760.1764   24196757.8914
     -1482.8594
  -6343747.84149  -4939521.80547  23274494.0984   23274490.8754
       904.9064
   4628203.16749   3602441.81948  21641102.6294   21641098.0084
     -2127.2974
   -253218.88849   -194795.93946  25320929.3404   25320928.0664
       815.0004
  16319617.42049  12701164.40147  23821690.5434   23821685.9774
     -4272.9064
   -532840.22349   -416584.33348  22351411.0274   22351407.6564
      -327.5944
 04  9  2 22  5 30.0040000  0  7G19G 3G 8G13G10G23G27
  -2765746.52649  -2151798.15147  24382410.8874   24382406.6094
       742.0164
    633762.88949    493544.56547  24201006.4024   24201003.7774
     -1492.2194
  -6357299.82149  -4950081.76348  23271914.9344   23271912.3914
       902.2344
   4660171.88749   3627352.50448  21647185.9734   21647182.2234
     -2135.0784
   -265386.34849   -204277.05647  25318614.7074   25318612.4144
       807.3594
  16383746.27749  12751134.89947  23833893.8164   23833889.3014
     -4277.3914
   -527905.51849   -412739.09248  22352350.2934   22352346.6994
      -330.1094
 04  9  2 22  5 45.0040000  0  7G19G 3G 8G13G10G23G27
  -2776827.35749  -2160432.53047  24380302.0664   24380298.0474
       735.5784
    656219.31049    511043.09047  24205279.5664   24205276.9614
     -1501.8754
  -6370809.47149  -4960608.75448  23269344.1294   23269341.3984
       899.2504
   4692259.46749   3652355.81848  21653292.0194   21653287.9224
     -2143.1564
   -277436.30049   -213666.57647  25316321.5194   25316319.2774
       799.3754
  16447944.47749  12801159.44347  23846110.5044   23846105.5004
     -4282.2504
   -522930.32949   -408862.32448  22353296.5514   22353293.1024
      -333.0314
 04  9  2 22  6  0.0040000  0  7G19G 3G 8G13G10G23G27
  -2787813.87849  -2168993.41547  24378211.3244   24378207.0784
       729.2974
    678819.90549    528653.94847  24209580.0434   24209577.4654
     -1511.4534
  -6384274.75349  -4971101.16348  23266781.7624   23266779.4024
       896.2344
   4724467.77949   3677453.19548  21659421.1054   21659416.8594
     -2151.2034
   -289366.48749   -222962.85047  25314051.3484   25314049.9734
       791.3754
  16512213.80349  12851239.40847  23858340.7774   23858335.9414
     -4286.9374
   -517912.71649   -404952.49548  22354251.9414   22354247.7384
      -335.9534
 04  9  2 22  6 15.0040000  0  7G19G 3G 8G13G10G23G27
  -2798706.55249  -2177481.16747  24376138.2304   24376134.2544
       722.9064
    701563.95749    546376.60947  24213908.0354   24213906.2034
     -1521.1564
  -6397696.39749  -4981559.55948  23264227.7694   23264225.3014
       893.2034
   4756796.33549   3702644.27848  21665573.4184   21665568.6374
     -2159.3444
   -301177.45449   -232166.13246  25311803.6214   25311802.4494
       783.2504
  16576553.42249  12901374.12147  23870583.9734   23870579.4804
     -4291.7344
   -512853.31749   -401010.09348  22355214.4184   22355211.1874
      -338.7814
 04  9  2 22  6 30.0040000  0  7G19G 3G 8G13G10G23G27
  -2809503.50149  -2185894.33947  24374083.9264   24374079.5124
       716.7814
    724452.99449    564212.23947  24218263.7234   24218261.1054
     -1530.6724
  -6411072.90049  -4991982.79448  23261682.3554   23261679.8714
       890.4694
   4789246.42849   3727930.06548  21671747.9804   21671743.9024
     -2167.2344
   -312867.44949   -241275.21247  25309578.5044   25309576.8874
       775.4224
  16640964.47149  12951564.54747  23882841.2304   23882836.2194
     -4296.2974
   -507750.82649   -397034.12348  22356185.3324   22356182.0624
      -341.4844
 04  9  2 22  6 45.0040000  0  7G19G 3G 8G13G10G23G27
  -2820206.89149  -2194234.60247  24372047.5824   24372042.6954
       710.3754
    747484.45149    582158.84047  24222646.6374   24222644.4344
     -1540.2034
  -6424406.89049  -5002372.89548  23259144.9574   23259142.6724
       887.4844
   4821815.64649   3753308.67048  21677945.8714   21677941.6684
     -2175.3124
   -324438.84249   -250291.87347  25307376.8944   25307375.6644
       767.5004
  16705444.43649  13001808.62447  23895111.0124   23895106.8094
     -4301.0004
   -502607.67549   -393026.46348  22357164.0354   22357160.8444
      -344.2814
 04  9  2 22  7  0.0040000  0  7G19G 3G 8G13G10G23G27
  -2830818.59649  -2202503.43947  24370027.1134   24370023.3164
       704.2664
    770656.34849    600214.87847  24227055.7694   24227053.6294
     -1549.6724
  -6437700.19049  -5012731.29748  23256615.1844   23256612.6254
       884.7194
   4854501.86349   3778778.46048  21684165.9024   21684161.4804
     -2183.1564
   -335893.42649   -259217.46947  25305197.3164   25305195.9344
       759.7194
  16769990.96949  13052104.60147  23907394.0354   23907389.2624
     -4305.4064
   -497425.94249   -388988.74248  22358149.8554   22358146.5354
      -346.8284
 04  9  2 22  7 15.0040000  0  7G19G 3G 8G13G10G23G27
  -2841335.02349  -2210698.02647  24368026.3404   24368022.1604
       698.0004
    793971.87049    618382.81347  24231492.2694   24231490.8554
     -1559.0004
  -6450949.37649  -5023055.31348  23254094.0274   23254091.2934
       881.9224
   4887308.39149   3804341.97648  21690408.8794   21690404.5904
     -2191.0164
   -347227.58849   -268049.30047  25303040.8794   25303038.0664
       751.7344
  16834607.17449  13102454.85447  23919690.2304   23919685.8364
     -4309.8594
   -492202.33049   -384918.38748  22359144.3014   22359141.0274
      -349.4224
 04  9  2 22  7 30.0040000  0  7G19G 3G 8G13G10G23G27
  -2851759.86449  -2218821.24447  24366042.4574   24366038.3714
       691.4224
    817426.93349    636659.49547  24235955.9654   24235954.5274
     -1568.8124
  -6464158.82649  -5033348.38148  23251580.8484   23251577.9374
       878.8594
   4920231.11149   3829996.04348  21696673.5434   21696669.4924
     -2199.2194
   -358445.38849   -276790.38747  25300905.5044   25300904.0594
       743.5474
  16899288.70849  13152856.02647  23931999.0434   23931993.6294
     -4314.7504
   -486940.93649   -380818.59448  22360145.1054   22360141.9374
      -352.5004
 04  9  2 22  7 45.0040000  0  7G19G 3G 8G13G10G23G27
  -2862090.35549  -2226870.94847  24364076.6214   24364072.5164
       685.6254
    841024.00649    655046.84347  24240446.9184   24240444.5864
     -1577.8124
  -6477325.80849  -5043608.34548  23249074.5434   23249071.6874
       876.4064
   4953272.46449   3855742.54448  21702961.4024   21702956.5164
     -2206.6094
   -369544.03549   -285438.66647  25298793.4494   25298792.0164
       736.0634
  16964037.99449  13203309.97047  23944319.8714   23944315.6054
     -4318.8594
   -481639.18449   -376687.35448  22361153.9884   22361150.9804
      -354.7194
 04  9  2 22  8  0.0040000  0  7G19G 3G 8G13G10G23G27
  -2872326.90849  -2234847.45447  24362128.5044   24362124.2894
       679.5784
    864762.31049    673544.23947  24244963.6604   24244961.2664
     -1586.9844
  -6490451.26549  -5053835.95948  23246576.9024   23246574.3444
       873.8914
   4986431.68949   3881580.91148  21709271.1444   21709266.5124
     -2214.2664
   -380524.20049   -293994.59247  25296704.6684   25296702.2774
       728.3284
  17028854.02049  13253815.93447  23956653.9264   23956649.2734
     -4323.0314
   -476298.09349   -372525.45248  22362170.5354   22362167.5314
      -357.1254
 04  9  2 22  8 15.0040000  0  8G19G 3G 8G13G10G28G23G27
  -2882467.06349  -2242748.84047  24360198.7774   24360194.7034
       672.9534
    888644.08249    692153.42247  24249508.0824   24249506.2774
     -1596.6564
  -6503532.75149  -5064029.30448  23244087.5664   23244085.4574
       870.8914
   5019711.10949   3907512.91148  21715604.2234   21715599.6374
     -2222.4534
   -391383.29149   -302456.16947  25294637.8404   25294636.1484
       720.0634
    -91733.32059    -60119.78456  25580738.3164   25580737.8874
      2114.3594
  17093738.78549  13304375.45547  23969001.8484   23968996.6214
     -4327.7034
   -470915.28449   -368331.05248  22363194.8404   22363191.7624
      -360.0624
 04  9  2 22  8 30.0040000  0  8G19G 3G 8G13G10G28G23G27
  -2892515.91549  -2250579.09447  24358287.0824   24358282.4344
       666.9844
    912663.89949    710870.15747  24254078.8094   24254076.7694
     -1605.8594
  -6516575.78949  -5074192.69648  23241605.5664   23241602.9614
       868.3284
   5053105.17449   3933534.26848  21721959.0984   21721954.5904
     -2230.0784
   -402126.44549   -310827.45547  25292593.9264   25292591.6174
       712.3444
   -123431.75149    -84819.80846  25574706.2774   25574706.0044
      2112.2344
  17158686.65449  13354984.16047  23981360.6054   23981356.1094
     -4331.9064
   -465496.11549   -364108.31748  22364226.6294   22364222.6484
      -362.4224
 04  9  2 22  8 45.0040000  0  8G19G 3G 8G13G10G28G23G27
  -2902469.06849  -2258334.77847  24356392.7624   24356388.2934
       660.7504
    936825.88349    729697.68547  24258677.1214   24258674.9454
     -1615.2034
  -6529576.08149  -5084322.75948  23239131.5594   23239129.2234
       865.5314
   5086618.10949   3959648.23548  21728335.8244   21728331.6914
     -2237.8124
   -412749.35249   -319105.03847  25290572.7624   25290570.3834
       704.5004
   -155095.01349   -109492.40246  25568680.7384   25568680.6804
      2110.0164
  17223701.52949  13405645.06947  23993732.9344   23993727.6954
     -4336.3754
   -460036.61149   -359854.13948  22365264.7074   22365261.7114
      -365.0164
 04  9  2 22  9  0.0040000  0  8G19G 3G 8G13G10G28G23G27
  -2912326.48749  -2266015.85647  24354516.5514   24354512.4184
       654.0164
    961129.58349    748635.63947  24263301.9104   24263300.0394
     -1624.9374
  -6542534.01649  -5094419.83948  23236666.0594   23236662.9574
       862.5004
   5120249.54949   3985854.55848  21734735.9964   21734731.7464
     -2246.0314
   -423252.22249   -327289.02747  25288573.0434   25288571.5664
       696.2504
   -186723.39649   -134137.81046  25562662.1684   25562662.0354
      2107.4534
  17288782.90049  13456357.79547  24006117.9024   24006112.6374
     -4341.0004
   -454536.99949   -355568.72648  22366311.7854   22366308.1024
      -368.0164
 04  9  2 22  9 15.0040000  0  8G19G 3G 8G13G10G28G23G27
  -2922089.81849  -2273623.61647  24352659.2154   24352654.7814
       647.6094
    985573.17949    767682.61847  24267953.1914   24267950.9774
     -1634.4374
  -6555451.55349  -5104485.43348  23234207.8244   23234205.1954
       859.7034
   5153997.63049   4012151.75248  21741158.2154   21741153.8594
     -2253.9224
   -433636.76249   -335380.85846  25286596.8634   25286595.7974
       688.1724
   -218318.51749   -158757.29746  25556650.3484   25556649.7344
      2105.1254
  17353928.71649  13507120.72847  24018514.1844   24018509.8674
     -4345.3444
   -448999.14049   -351253.49448  22367365.1844   22367361.5234
      -370.6564
 04  9  2 22  9 30.0040000  0  8G19G 3G 8G13G10G28G23G27
  -2931762.03949  -2281160.38947  24350818.6604   24350813.9344
       641.8444
   1010153.40749    786836.04447  24272631.0664   24272628.1684
     -1643.1874
  -6568332.01849  -5114522.13048  23231756.8944   23231754.3094
       857.5314
   5187859.03949   4038537.25648  21747601.7464   21747597.6914
     -2261.0314
   -443905.96449   -343382.79847  25284642.6054   25284641.3364
       680.8594
   -249883.46949   -183353.32646  25550643.2854   25550642.9374
      2103.5474
  17419135.54149  13557931.21047  24030922.5434   24030917.6954
     -4349.0004
   -443426.40249   -346911.09348  22368426.1134   22368422.3794
      -372.5314
 04  9  2 22  9 45.0050000  0  8G19G 3G 8G13G10G28G23G27
  -2941340.71149  -2288624.25947  24348995.8374   24348991.4784
       635.4384
   1034874.51349    806099.25047  24277334.7124   24277332.5444
     -1652.5784
  -6581173.30449  -5124528.30248  23229312.9464   23229310.5404
       854.7344
   5221838.67149   4065014.89348  21754067.8374   21754063.8104
     -2268.9844
   -454057.61349   -351293.16947  25282711.2904   25282709.6384
       672.7664
   -281417.33749   -207925.08346  25544642.4234   25544641.5564
      2101.0004
  17484410.19449  13608794.55347  24043343.8294   24043339.0134
     -4353.3754
   -437815.62349   -342539.04448  22369493.6184   22369490.4784
      -375.2344
 04  9  2 22 10  0.0050000  0  8G19G 3G 8G13G10G28G23G27
  -2950821.68249  -2296012.01147  24347190.9154   24347187.3374
       629.1564
   1059735.88249    825471.74347  24282065.7514   24282063.5994
     -1661.8594
  -6593971.37949  -5134500.81048  23226877.9314   23226875.5874
       852.0944
   5255934.66349   4091583.20448  21760556.1884   21760551.6814
     -2276.7194
   -464087.53649   -359108.65347  25280802.8534   25280800.8534
       664.9844
   -312913.30049   -232467.29047  25538648.9704   25538648.2864
      2098.8594
  17549746.42049  13659705.84947  24055777.3684   24055772.3844
     -4357.7194
   -432165.01349   -338135.97348  22370569.0174   22370565.5324
      -377.6414
 04  9  2 22 10 15.0050000  0  8G19G 3G 8G13G10G28G23G27
  -2960207.28649  -2303325.43747  24345405.0324   24345400.6184
       623.0004
   1084737.10549    844953.24947  24286824.0094   24286820.8414
     -1670.9534
  -6606728.96249  -5144441.76948  23224449.9464   23224447.5524
       849.5314
   5290147.23049   4118242.34648  21767066.6184   21767062.0054
     -2284.2814
   -473998.25849   -366831.28647  25278916.5794   25278915.4034
       657.1564
   -344375.13749   -256982.97246  25532662.6344   25532660.7244
      2096.7814
  17615146.24049  13710666.73147  24068222.5954   24068217.7124
     -4361.7034
   -426476.24949   -333703.16448  22371651.5564   22371647.7354
      -380.1724
 04  9  2 22 10 30.0050000  0  8G19G 3G 8G13G10G28G23G27
  -2969494.63949  -2310562.30547  24343638.3764   24343633.6494
       615.7034
   1109880.77849    864545.71847  24291608.7674   24291606.0094
     -1681.1094
  -6619443.30049  -5154349.01748  23222030.7124   23222028.1424
       845.9844
   5324478.95149   4144994.33148  21773599.4464   21773595.0404
     -2292.9224
   -483786.86949   -374458.72847  25277054.1884   25277052.4934
       648.4224
   -375800.14749   -281469.98146  25526681.2204   25526680.3334
      2093.6884
  17680612.18549  13761679.11647  24080679.5484   24080675.5834
     -4366.7194
   -420746.64149   -329238.52548  22372741.9384   22372738.1104
      -383.5004
 04  9  2 22 10 45.0050000  0  8G19G 3G 8G13G10G28G23G27
  -2978683.29649  -2317722.26347  24341889.3064   24341884.9504
       609.3914
   1135166.92249    884249.22647  24296419.4854   24296417.5324
     -1690.3284
  -6632114.27449  -5164222.48248  23219619.1034   23219616.2474
       843.3134
   5358929.87149   4171839.19748  21780155.6264   21780150.8804
     -2300.5944
   -493453.12349   -381990.80047  25275214.6654   25275212.3604
       640.3284
   -407188.00949   -305927.95746  25520708.6574   25520708.1454
      2091.3134
  17746144.16349  13812742.95547  24093150.6814   24093145.3804
     -4370.9224
   -414976.04449   -324741.94148  22373839.8764   22373836.3104
      -385.9694
 04  9  2 22 11  0.0050000  0  8G19G 3G 8G13G10G28G23G27
  -2987775.24349  -2324806.88747  24340158.7984   24340154.6534
       603.3914
   1160593.21749    904061.91847  24301258.5634   24301256.0484
     -1699.3444
  -6644744.21549  -5174063.97748  23217215.7284   23217212.8414
       841.0634
   5393497.93349   4198775.35048  21786733.4234   21786728.8844
     -2308.0004
   -502999.00349   -389429.18047  25273397.9784   25273396.1694
       632.8914
   -438540.94849   -330358.79047  25514742.8684   25514741.6924
      2089.4534
  17811739.60349  13863856.26447  24105632.8374   24105627.9704
     -4374.7504
   -409166.91649   -320215.33848  22374945.2284   22374941.4194
      -388.1414
 04  9  2 22 11 15.0050000  0  8G19G 3G 8G13G10G28G23G27
  -2996771.73449  -2331817.11347  24338447.7044   24338443.0604
       597.2034
   1186158.27549    923982.75847  24306122.7124   24306121.2164
     -1708.2344
  -6657334.45149  -5183874.52548  23214820.1264   23214817.1224
       838.6564
   5428181.31149   4225801.36148  21793333.6574   21793329.6034
     -2315.4224
   -512425.88849   -396774.77147  25271604.5014   25271602.6734
       625.1414
   -469860.10149   -354763.25247  25508782.0954   25508781.4854
      2087.4064
  17877396.81849  13915017.69047  24118126.8454   24118122.5524
     -4378.5624
   -403320.59949   -315659.76248  22376057.8214   22376054.0954
      -390.3124
 04  9  2 22 11 30.0050000  0  8G19G 3G 8G13G10G28G23G27
  -3005674.99249  -2338754.68347  24336752.5094   24336748.2514
       590.4844
   1211859.48849    944009.67347  24311013.7984   24311012.3414
     -1717.9374
  -6669887.65849  -5193656.23648  23212431.3924   23212428.0524
       835.6414
   5462977.57549   4252915.33548  21799954.9624   21799950.5714
     -2323.5004
   -521736.09749   -404029.44447  25269831.8534   25269830.1534
       616.8444
   -501147.90949   -379143.30946  25502828.4784   25502827.6264
      2084.8444
  17943113.19449  13966225.21947  24130632.5564   24130627.4074
     -4383.0164
   -397439.62049   -311077.17248  22377176.7594   22377173.1424
      -393.2034
 04  9  2 22 11 45.0050000  0  8G19G 3G 8G13G10G28G23G27
  -3014477.78249  -2345613.95547  24335077.6104   24335072.7434
       583.6564
   1237703.71649    964148.05447  24315931.9384   24315930.1734
     -1727.4534
  -6682396.87849  -5203403.65648  23210050.9154   23210047.6384
       832.6414
   5497893.65949   4280122.67148  21806599.3294   21806594.7514
     -2331.5474
   -530922.47649   -411187.62247  25268084.2514   25268082.5134
       608.4694
   -532397.13149   -403493.29046  25496882.2984   25496881.2164
      2082.2194
  18008895.35949  14017484.00847  24143149.9544   24143145.4544
     -4387.4224
   -391517.06149   -306462.17548  22378303.5094   22378300.1264
      -396.0624
 04  9  2 22 12  0.0050000  0  8G19G 3G 8G13G10G28G23G27
  -3023186.62349  -2352400.04547  24333420.3374   24333416.3374
       577.4534
   1263684.05049    984392.48247  24320875.8134   24320873.2864
     -1736.5784
  -6694868.88349  -5213122.07448  23207677.5714   23207674.2434
       830.2344
   5532922.70449   4307418.02148  21813265.2124   21813260.9384
     -2339.0164
   -539991.65249   -418254.47947  25266358.4384   25266356.6854
       600.6724
   -563614.59749   -427818.53446  25490942.1424   25490940.3844
      2080.0944
  18074736.28449  14068788.56347  24155678.7674   24155675.2434
     -4391.2814
   -385559.74749   -301820.10548  22379437.8764   22379433.7124
      -398.3444
 04  9  2 22 12 15.0050000  0  8G19G 3G 8G13G10G28G23G27
  -3031798.08149  -2359110.24947  24331781.9624   24331777.3454
       571.3594
   1289803.71349   1004745.45647  24325846.1034   24325844.0054
     -1745.4224
  -6707300.69049  -5222809.18848  23205311.7434   23205309.2944
       827.9694
   5568067.77649   4334803.79548  21819952.8454   21819948.7084
     -2346.3594
   -548940.36649   -425227.49147  25264654.9854   25264654.2314
       593.0784
   -594796.87949   -452116.31647  25485008.0714   25485006.7864
      2078.1414
  18140638.86449  14120141.23747  24168220.5714   24168215.7824
     -4395.0314
   -379564.63849   -297148.59348  22380578.3844   22380574.8494
      -400.4224
 04  9  2 22 12 30.0050000  0  8G19G 3G 8G13G10G28G23G27
  -3040314.17449  -2365746.13847  24330161.4464   24330156.7284
       564.2814
   1316060.38249   1025205.22647  24330842.3374   24330840.1104
     -1755.2344
  -6719694.38049  -5232466.60148  23202953.3924   23202950.2904
       824.6884
   5603326.61249   4362278.21148  21826662.6424   21826658.5444
     -2354.6414
   -557770.66449   -432108.21847  25262974.7514   25262973.3564
       584.5314
   -625946.11749   -476388.39846  25479079.6424   25479079.3214
      2075.2034
  18206600.68549  14171540.01047  24180772.4624   24180767.7674
     -4399.7344
   -373534.00349   -292449.38548  22381725.7124   22381722.0564
      -403.5474
 04  9  2 22 12 45.0050000  0  8G19G 3G 8G13G10G28G23G27
  -3048728.55249  -2372302.75747  24328560.0564   24328555.4854
       558.1724
   1342460.05349   1045776.39347  24335865.7284   24335864.2164
     -1764.2194
  -6732043.75049  -5242089.45448  23200603.2674   23200600.9544
       822.3134
   5638705.34649   4389846.05248  21833395.0714   21833390.4424
     -2362.0784
   -566476.15549   -438891.71947  25261317.7284   25261315.8254
       576.6724
   -657056.01949   -500629.81746  25473159.9934   25473159.5834
      2073.2344
  18272627.62549  14222989.54547  24193336.8294   24193332.3064
     -4403.3754
   -367461.77249   -287717.76548  22382881.2354   22382877.8644
      -405.6254
 04  9  2 22 13  0.0050000  0  8G19G 3G 8G13G10G28G23G27
  -3057046.58549  -2378784.31147  24326977.0324   24326972.5174
       551.3134
   1368996.93449   1066454.50147  24340916.1344   24340913.5674
     -1773.7814
  -6744354.67949  -5251682.36848  23198260.3764   23198257.6304
       819.4844
   5674198.15049   4417502.79248  21840148.8534   21840144.7944
     -2369.9694
   -575062.48449   -445582.33147  25259684.1424   25259682.0204
       568.4224
   -688132.18149   -524844.90047  25467246.2744   25467245.7354
      2070.6094
  18338713.74749  14274485.19647  24205912.5634   24205908.0244
     -4407.8444
   -361353.43749   -282958.02148  22384043.6814   22384040.2354
      -408.4064
 04  9  2 22 13 15.0050000  0  8G19G 3G 8G13G10G28G23G27
  -3065267.23549  -2385189.98347  24325412.5954   24325408.3414
       544.5004
   1395671.78649   1087240.10047  24345992.3454   24345989.9814
     -1783.3594
  -6756626.16549  -5261244.54548  23195925.0634   23195922.5674
       816.3914
   5709805.79749   4445249.00448  21846924.6654   21846920.8334
     -2378.0624
   -583528.59749   -452179.25347  25258074.3764   25258071.4704
       560.0314
   -719173.58349   -549032.94946  25461339.6884   25461338.2824
      2067.8594
  18404859.65249  14326027.41747  24218499.9464   24218495.7084
     -4412.1414
   -355208.31149   -278169.59048  22385213.1104   22385209.9234
      -411.2344
 04  9  2 22 13 30.0050000  0  8G19G 3G 8G13G10G28G23G27
  -3073385.95249  -2391516.23247  24323867.6344   24323863.4384
       538.0314
   1422488.69149   1108136.39647  24351095.3064   24351092.9814
     -1792.4064
  -6768854.27049  -5270772.91448  23193598.4544   23193595.7674
       813.8594
   5745532.40849   4473087.92148  21853723.4624   21853719.2044
     -2385.5784
   -591870.23649   -458679.18947  25256486.5874   25256484.3104
       552.0634
   -750175.96149   -573190.61047  25455439.3534   25455438.5714
      2065.5784
  18471069.21849  14377619.24147  24231098.9934   24231094.9114
     -4416.0314
   -349022.35949   -273349.36848  22386390.3294   22386386.6574
      -413.7034
 04  9  2 22 13 45.0050000  0  8G19G 3G 8G13G10G28G23G27
  -3081403.69149  -2397763.78747  24322342.2984   24322337.6854
       531.4844
   1449446.52449   1129142.50347  24356225.2594   24356223.2674
     -1801.5004
  -6781039.92049  -5280268.20848  23191279.4934   23191276.9424
       811.3134
   5781376.87149   4501018.67348  21860544.2594   21860540.0404
     -2393.2194
   -600088.22249   -465082.81547  25254922.3534   25254920.6454
       544.1564
   -781140.23849   -597318.53446  25449547.1494   25449546.5634
      2063.4064
  18537341.14049  14429259.66447  24243710.4854   24243706.0324
     -4419.8444
   -342796.60349   -268498.12948  22387574.9624   22387571.4504
      -415.9694
 04  9  2 22 14  0.0050000  0  8G19G 3G 8G13G10G28G23G27
  -3089324.75049  -2403936.00947  24320835.0954   24320830.7124
       524.7664
   1476540.56649   1150254.75947  24361381.1884   24361378.8214
     -1810.8754
  -6793187.70849  -5289734.00148  23188968.0634   23188964.9704
       808.5314
   5817334.52549   4529037.61948  21867386.7044   21867383.0444
     -2400.9844
   -608187.05049   -471393.56947  25253380.8064   25253379.0204
       535.8594
   -812070.87249   -621420.24646  25443661.3374   25443660.5834
      2060.9384
  18603670.48949  14480944.85447  24256332.2744   24256328.0604
     -4423.9374
   -336535.69649   -263619.47548  22388766.3924   22388762.5174
      -418.6254
 04  9  2 22 14 15.0050000  0  8G19G 3G 8G13G10G28G23G27
  -3097147.53249  -2410031.65147  24319345.9784   24319341.2634
       517.9534
   1503772.10949   1171474.14147  24366563.1344   24366560.9934
     -1820.1724
  -6805296.31149  -5299169.26148  23186663.8534   23186660.4624
       805.8284
   5853406.59449   4557145.72248  21874251.6494   21874246.8644
     -2408.8594
   -616165.25549   -477610.33247  25251862.5874   25251860.9584
       527.6724
   -842966.35949   -645494.59746  25437782.7354   25437780.6144
      2058.3444
  18670058.53049  14532675.76147  24268965.7044   24268961.3214
     -4428.0624
   -330238.40749   -258712.50748  22389964.7204   22389961.2824
      -421.2344
 04  9  2 22 14 30.0050000  0  8G19G 3G 8G13G10G28G23G27
  -3104865.68249  -2416045.76347  24317877.6034   24317872.8994
       511.5314
   1531147.35849   1192805.50247  24371772.2904   24371770.7084
     -1829.2974
  -6817359.71849  -5308569.29448  23184368.1424   23184364.6454
       803.2034
   5889599.29749   4585347.82548  21881138.2674   21881134.2434
     -2416.3284
   -624016.47349   -483728.13647  25250368.8064   25250366.7004
       519.7194
   -873820.28449   -669536.55847  25431910.7204   25431909.5484
      2056.0784
  18736511.21749  14584457.04147  24281610.6814   24281607.0444
     -4431.9064
   -323898.47149   -253772.27248  22391170.9384   22391167.6924
      -423.5164
 04  9  2 22 14 45.0050000  0  8G19G 3G 8G13G10G28G23G27
  -3112485.02249  -2421982.88247  24316426.9234   24316422.5954
       504.4534
   1558660.01249   1214243.94147  24377008.0954   24377005.4234
     -1838.9224
  -6829384.00049  -5317938.85148  23182079.8134   23182076.3724
       800.1884
   5925906.40349   4613639.07148  21888047.5484   21888043.2314
     -2424.4694
   -631746.61649   -489751.60247  25248898.2904   25248895.2004
       510.9844
   -904638.67849   -693550.78946  25426046.5634   25426045.1654
      2053.1564
  18803022.22649  14636283.76547  24294267.9154   24294263.6734
     -4436.2504
   -317521.96849   -248803.57148  22392384.3604   22392381.0834
      -426.5164
 04  9  2 22 15  0.0050000  0  8G19G 3G 8G13G10G28G23G27
  -3120002.16849  -2427840.36647  24314996.5794   24314992.4234
       497.4534
   1586313.14149   1235791.84447  24382270.5174   24382267.5834
     -1848.5474
  -6841366.00249  -5327275.46048  23179799.7824   23179796.7004
       797.1094
   5962330.84549   4642021.74248  21894978.8064   21894974.5674
     -2432.5784
   -639352.44149   -495678.19847  25247450.8294   25247448.2164
       502.5474
   -935418.38349   -717534.95047  25420189.1574   25420187.7674
      2050.4064
  18869594.24149  14688158.01347  24306936.6574   24306931.6654
     -4440.4844
   -311105.98449   -243804.08848  22393605.3534   22393601.6774
      -429.2814
 04  9  2 22 15 15.0050000  0  8G19G 3G 8G13G10G28G23G27
  -3127418.94549  -2433619.63347  24313585.3994   24313581.0094
       491.2194
   1614104.55749   1257447.50347  24387558.1814   24387556.4974
     -1857.1564
  -6853307.52049  -5336580.53248  23177527.3214   23177524.0204
       794.8914
   5998870.53349   4670494.22948  21901932.2514   21901927.6854
     -2439.6724
   -646835.79649   -501509.36647  25246026.0484   25246024.2864
       495.0474
   -966161.17849   -741490.26446  25414338.7594   25414338.2594
      2048.4384
  18936225.08749  14740078.10747  24319615.7674   24319611.1814
     -4443.9694
   -304652.56649   -238775.45848  22394833.7744   22394830.2044
      -431.3124
 04  9  2 22 15 30.0050000  0  8G19G 3G 8G13G10G28G23G27
  -3134733.82649  -2439319.50347  24312193.1734   24312188.5364
       484.2504
   1642035.30149   1279211.71647  24392873.4234   24392871.6304
     -1866.6094
  -6865207.65549  -5345853.33048  23175262.6104   23175259.9384
       792.0004
   6035526.79049   4699057.54348  21908907.6734   21908903.4234
     -2447.5784
   -654195.44249   -507244.14847  25244625.2984   25244623.9274
       486.5474
   -996865.72049   -765415.82347  25408495.8454   25408494.8884
      2045.6564
  19002915.62949  14792044.74447  24332306.8454   24332301.7284
     -4448.0164
   -298160.51249   -233716.69048  22396068.4384   22396065.1184
      -434.0624
 04  9  2 22 15 45.0050000  0  8G19G 3G 8G13G10G28G23G27
  -3141944.41949  -2444938.12747  24310821.2594   24310816.4114
       477.0634
   1670107.58049   1301086.22147  24398215.4384   24398212.9544
     -1876.3444
  -6877064.22949  -5355092.20548  23173006.5634   23173003.6534
       788.8284
   6072301.67449   4727713.30248  21915905.5324   21915901.1774
     -2455.7664
   -661428.92049   -512880.59047  25243249.5954   25243247.9584
       477.9694
  -1027529.66349   -789309.70847  25402660.6734   25402658.9974
      2042.7664
  19069667.91049  14844059.47647  24345008.5404   24345004.3844
     -4452.3754
   -291627.58549   -228626.09948  22397312.2744   22397308.0994
      -436.9844
 04  9  2 22 16  0.0050000  0  8G19G 3G 8G13G10G28G23G27
  -3149052.91649  -2450477.19647  24309468.1964   24309463.4034
       470.7504
   1698318.84349   1323069.02647  24403583.8134   24403581.9664
     -1885.1564
  -6888879.61449  -5364298.98348  23170758.1734   23170754.9974
       786.5314
   6109192.74649   4756459.58648  21922926.0324   21922921.7314
     -2463.0004
   -668538.56249   -518420.52447  25241896.4314   25241894.2904
       470.0634
  -1058155.32349   -813173.78546  25396833.4234   25396831.5914
      2040.6254
  19136479.22549  14896120.20547  24357722.2124   24357718.2634
     -4455.7664
   -285056.36049   -223505.66248  22398562.3294   22398559.1264
      -439.1564
 04  9  2 22 16 15.0050000  0  8G19G 3G 8G13G10G28G23G27
  -3156056.33249  -2455934.36547  24308136.4234   24308131.2164
       463.3134
   1726671.82849   1345162.26247  24408979.1734   24408977.5404
     -1895.0164
  -6900650.81549  -5373471.33348  23168518.3684   23168515.5754
       783.1724
   6146202.54249   4785298.38648  21929968.5714   21929964.0994
     -2471.4694
   -675521.37449   -523861.65647  25240567.3214   25240565.7634
       461.1564
  -1088739.94249   -837005.90147  25391012.7124   25391011.7864
      2037.5634
  19203352.19449  14948228.98347  24370448.1964   24370443.9814
     -4460.3444
   -278443.94949   -218353.12448  22399820.9384   22399817.1884
      -442.2664
 04  9  2 22 16 30.0050000  0  8G19G 3G 8G13G10G28G23G27
  -3162956.27749  -2461310.92147  24306823.0484   24306818.3374
       456.7504
   1755164.43849   1367364.29547  24414402.0094   24414398.8804
     -1904.0784
  -6912380.29249  -5382611.16048  23166286.1104   23166283.1384
       780.7664
   6183329.03049   4814228.10948  21937033.4854   21937029.5054
     -2478.8594
   -682379.15149   -529205.36047  25239263.1424   25239260.6224
       453.2034
  -1119285.23449   -860807.32347  25385200.5404   25385199.1304
      2035.1254
  19270284.44549  15000383.93247  24383185.3684   24383181.7784
     -4463.9844
   -271792.47849   -213170.14548  22401086.5244   22401083.0794
      -444.6094
 04  9  2 22 16 45.0050000  0  8G19G 3G 8G13G10G28G23G27
  -3169758.61249  -2466611.41747  24305528.2204   24305524.0604
       449.9844
   1783790.50149   1389670.33247  24419848.7284   24419846.5484
     -1913.1414
  -6924074.11949  -5391723.21148  23164061.0714   23164058.1494
       778.1884
   6220566.15149   4843244.04648  21944119.1494   21944115.0404
     -2486.3914
   -689117.91449   -534456.33547  25237980.0484   25237978.5134
       445.1254
  -1149797.10349   -884582.74047  25379393.9154   25379392.7744
      2032.7034
  19337269.76849  15052580.25347  24395932.6034   24395927.7554
     -4467.6874
   -265107.96749   -207961.42948  22402358.3924   22402354.8644
      -446.9694
 04  9  2 22 17  0.0050000  0  8G19G 3G 8G13G10G28G23G27
  -3176456.84549  -2471830.79447  24304253.5324   24304249.4034
       443.2664
   1812556.18049   1412085.13747  24425322.5794   24425320.3214
     -1922.1724
  -6935725.84949  -5400802.46548  23161843.6344   23161840.5484
       775.5784
   6257920.04049   4872350.96648  21951227.7594   21951224.0524
     -2493.9064
   -695731.26049   -539609.55247  25236721.9314   25236719.8254
       436.9844
  -1180269.02049   -908327.03347  25373594.2124   25373594.1104
      2030.3284
  19404314.13849  15104822.59647  24408690.9154   24408685.5524
     -4471.3594
   -258384.21349   -202722.13748  22403638.1814   22403634.3374
      -449.2814
 04  9  2 22 17 15.0050000  0  8G19G 3G 8G13G10G28G23G27
  -3183051.59049  -2476969.51247  24302998.9624   24302994.6694
       436.2814
   1841460.56349   1434608.05147  24430823.2124   24430820.9664
     -1931.5624
  -6947336.12749  -5409849.40748  23159634.0094   23159631.1494
       772.7664
   6295389.73949   4901548.12848  21958357.8684   21958353.8294
     -2501.8124
   -702219.86349   -544665.60147  25235487.3374   25235485.4584
       428.3914
  -1210701.84749   -932040.83647  25367803.8534   25367802.1924
      2027.6094
  19471416.49149  15157110.11347  24421459.0174   24421454.6924
     -4475.3754
   -251622.06649   -197452.91548  22404924.8684   22404921.7514
      -451.9844
 04  9  2 22 17 30.0050000  0  8G19G 3G 8G13G10G28G23G27
  -3189543.44749  -2482028.07647  24301763.1884   24301759.1924
       429.0474
   1870502.69849   1457238.28447  24436349.7674   24436347.0404
     -1941.0164
  -6958906.07349  -5418864.93348  23157432.3134   23157429.6304
       769.7194
   6332974.24149   4930834.76248  21965510.0954   21965505.3994
     -2509.7814
   -708584.50049   -549625.05147  25234275.7824   25234273.7354
       419.8444
  -1241096.34549   -955724.82947  25362020.2824   25362018.2594
      2024.6564
  19538575.76549  15209441.96447  24434239.3064   24434234.5874
     -4479.5004
   -244822.47549   -192154.52648  22406218.6104   22406215.5994
      -454.8594
 04  9  2 22 17 45.0050000  0  8G19G 3G 8G13G10G28G23G27
  -3195929.03949  -2487003.83847  24300548.7284   24300543.4354
       422.2664
   1899685.67249   1479978.24647  24441902.2594   24441900.6344
     -1950.1254
  -6970432.39749  -5427846.47648  23155238.6884   23155235.9354
       767.0634
   6370676.82249   4960213.38548  21972684.5794   21972680.2904
     -2517.3124
   -714821.91649   -554485.34447  25233088.8454   25233086.3804
       411.6724
  -1271449.26049   -979376.39347  25356243.6884   25356242.3454
      2022.2194
  19605794.81949  15261820.42047  24447030.8764   24447026.2744
     -4483.1724
   -237982.23849   -186824.47048  22407520.1814   22407516.9074
      -457.2664
 04  9  2 22 18  0.0050000  0  8G19G 3G 8G13G10G28G23G27
  -3202210.26149  -2491898.26247  24299352.9464   24299348.4974
       415.1564
   1929007.24049   1502826.25747  24447482.5564   24447480.2004
     -1959.5164
  -6981917.12449  -5436795.59248  23153053.6964   23153050.5874
       764.1564
   6408495.24549   4989682.27548  21979880.9384   21979876.9974
     -2525.2034
   -720933.92349   -559247.95447  25231925.7514   25231923.6734
       403.1724
  -1301762.39149  -1002996.90347  25350475.1654   25350473.9664
      2019.4844
  19673071.20749  15314243.53547  24459833.1574   24459828.9664
     -4487.0624
   -231103.45349   -181464.36548  22408829.3604   22408826.0444
      -459.9374
 04  9  2 22 18 15.0050000  0  8G19G 3G 8G13G10G28G23G27
  -3208389.01249  -2496712.84347  24298177.0484   24298172.6144
       408.0004
   1958465.04949   1525780.39047  24453088.4544   24453086.4584
     -1968.9064
  -6993362.76649  -5445714.25148  23150875.2124   23150872.5634
       761.2194
   6446427.19049   5019239.63348  21987099.2984   21987095.1344
     -2533.1094
   -726922.58649   -563914.43847  25230787.0794   25230783.5834
       394.7034
  -1332037.82649  -1026588.05647  25344713.8994   25344713.2244
      2016.5314
  19740402.60749  15366709.52647  24472645.9784   24472641.7394
     -4491.0624
   -224188.43149   -176076.03948  22410145.1494   22410141.7124
      -462.7504
 04  9  2 22 18 30.0050000  0  8G19G 3G 8G13G10G28G23G27
  -3214458.02549  -2501441.91547  24297022.4154   24297017.9274
       401.0164
   1988066.02349   1548846.07847  24458721.0014   24458719.1454
     -1978.0784
  -7004762.20549  -5454596.90648  23148706.1964   23148703.3804
       758.4694
   6484479.63949   5048890.89648  21994340.4314   21994336.3214
     -2540.8284
   -732780.83749   -568479.26447  25229671.4784   25229669.0794
       386.3134
  -1362268.33849  -1050144.25747  25338961.6494   25338960.6184
      2013.9064
  19807795.77349  15419223.64447  24485470.2904   24485465.9034
     -4494.8284
   -217230.13849   -170653.98348  22411469.4234   22411465.9074
      -465.2344
 04  9  2 22 18 45.0050000  0  8G19G 3G 8G13G10G28G23G27
  -3220422.89749  -2506089.84047  24295887.4074   24295882.3134
       394.2034
   2017804.21349   1572018.70047  24464379.9624   24464378.3804
     -1987.0314
  -7016121.15749  -5463448.02448  23146544.4154   23146541.6534
       756.0004
   6522646.62249   5078631.39248  22001603.4624   22001599.4234
     -2548.2194
   -738514.43249   -572946.99847  25228580.7904   25228578.0444
       378.1094
  -1392459.74349  -1073669.96347  25333216.4704   25333214.5564
      2011.3444
  19875244.59849  15471781.13847  24498305.7354   24498301.3024
     -4498.3914
   -210234.40249   -165202.75848  22412800.8454   22412797.2164
      -467.5624
 04  9  2 22 19  0.0050000  0  8G19G 3G 8G13G10G28G23G27
  -3226281.16849  -2510654.69547  24294772.4154   24294768.0914
       387.0634
   2047681.82849   1595299.96447  24470065.3924   24470063.6574
     -1996.4224
  -7027437.38849  -5472265.84248  23144391.1264   23144388.5604
       753.0474
   6560930.46349   5108462.95248  22008888.8684   22008884.8954
     -2556.0784
   -744120.81449   -577315.56647  25227513.0094   25227511.3064
       369.7344
  -1422609.59949  -1097163.32146  25327479.0014   25327477.3104
      2008.6414
  19942751.10849  15524383.57947  24511151.4934   24511147.0634
     -4502.3594
   -203198.97649   -159720.59448  22414138.8924   22414136.0404
      -470.2974
 04  9  2 22 19 15.0050000  0  8G19G 3G 8G13G10G28G23G27
  -3232034.12349  -2515137.48847  24293677.3994   24293673.1494
       380.0634
   2077697.11149   1618688.48847  24475777.4784   24475774.8174
     -2005.5624
  -7038712.54449  -5481051.66148  23142245.5564   23142243.2594
       750.3594
   6599329.33849   5138384.15548  22016195.3604   22016191.3454
     -2563.6874
   -749601.41349   -581586.17247  25226470.3294   25226468.2904
       361.3134
  -1452719.40749  -1120625.45647  25321748.9934   25321747.3604
      2006.0164
  20010313.40949  15577029.47847  24524008.0564   24524003.7594
     -4505.9224
   -196125.57949   -154208.84948  22415485.5714   22415482.1304
      -472.8594
 04  9  2 22 19 30.0050000  0  8G19G 3G 8G13G10G28G23G27
  -3237681.08749  -2519537.67647  24292602.6964   24292598.8954
       372.6884
   2107850.54749   1642184.68847  24481515.4784   24481512.8604
     -2015.1094
  -7049946.08649  -5489805.04248  23140108.1424   23140105.1814
       747.2194
   6637843.88349   5168395.48448  22023524.5244   22023520.3254
     -2571.7504
   -754955.63349   -585758.27247  25225451.9624   25225449.4814
       352.5314
  -1482788.34149  -1144055.70047  25316027.3374   25316025.7204
      2002.9534
  20077931.88649  15629719.18247  24536876.0244   24536871.1344
     -4510.0164
   -189013.54649   -148666.99548  22416838.4854   22416835.2674
      -475.6724
 04  9  2 22 19 45.0050000  0  8G19G 3G 8G13G10G28G23G27
  -3243219.05649  -2523852.94347  24291548.4154   24291544.5604
       365.5314
   2138144.66649   1665790.52147  24487280.2514   24487278.1104
     -2024.2814
  -7061135.29249  -5498523.89248  23137978.8844   23137976.0364
       744.4534
   6676476.50449   5198498.82548  22030876.3134   22030871.9744
     -2579.4534
   -760180.69149   -589829.70547  25224457.5244   25224455.0524
       344.0784
  -1512813.67849  -1167452.00547  25310313.1424   25310311.8494
      2000.1564
  20145609.06549  15682454.61847  24549754.1034   24549749.6264
     -4513.7194
   -181860.26749   -143092.99848  22418199.7354   22418196.5244
      -478.2664
 04  9  2 22 20  0.0050000  0  8G19G 3G 8G13G10G28G23G27
  -3248650.94849  -2528085.55747  24290515.5564   24290510.7204
       358.2194
   2168576.20949   1689503.41147  24493071.2824   24493068.7784
     -2033.7814
  -7072283.46549  -5507210.75848  23135857.0174   23135854.2594
       741.4384
   6715224.03049   5228691.70648  22038249.2984   22038245.3174
     -2587.3124
   -765279.54249   -593802.84647  25223486.5634   25223484.3844
       335.2974
  -1542798.42249  -1190816.65947  25304607.6104   25304605.7124
      1997.2814
  20213341.36949  15735232.97947  24562643.3924   24562638.6734
     -4517.7034
   -174668.88349   -137489.32048  22419568.3534   22419564.6184
      -481.0944
 04  9  2 22 20 15.0050000  0  8G19G 3G 8G13G10G28G23G27
  -3253975.03749  -2532234.15247  24289502.2204   24289497.4934
       351.4224
   2199146.67149   1713324.55647  24498888.8454   24498886.3724
     -2042.6564
  -7083388.91949  -5515864.33648  23133744.0874   23133740.8844
       739.0004
   6754087.86349   5258975.19248  22045644.9074   22045641.1184
     -2594.8124
   -770250.57549   -597676.32247  25222541.6654   25222538.3024
       327.2194
  -1572740.89249  -1214148.42847  25298910.3214   25298907.6614
      1994.7344
  20281130.24949  15788055.45747  24575543.4704   24575538.9854
     -4521.1564
   -167437.93449   -131854.80448  22420944.3604   22420940.8254
      -483.3594
 04  9  2 22 20 30.0050000  0  8G19G 3G 8G13G10G28G23G27
  -3259189.80349  -2536297.56847  24288509.4784   24288505.4744
       344.2034
   2229857.13049   1737254.78747  24504732.5794   24504730.2984
     -2051.7974
  -7094450.31149  -5524483.57148  23131639.1344   23131636.3174
       736.1414
   6793069.27349   5289350.32048  22053062.9154   22053059.2434
     -2602.5624
   -775092.36349   -601449.15847  25221619.7744   25221617.8104
       318.6884
  -1602639.68649  -1237446.13747  25293220.2824   25293218.0754
      1992.0004
  20348976.52349  15840922.63347  24588453.9154   24588449.7474
     -4524.7814
   -160166.13449   -126188.45248  22422328.4854   22422324.8454
      -486.0164
 04  9  2 22 20 45.0050000  0  8G19G 3G 8G13G10G28G23G27
  -3264301.24749  -2540280.47847  24287537.2514   24287533.0174
       337.8134
   2260701.31749   1761289.21647  24510601.8294   24510599.9234
     -2060.2664
  -7105473.91849  -5533073.38948  23129541.0094   23129538.1924
       734.2034
   6832162.04549   5319812.21148  22060502.2594   22060498.2164
     -2609.3914
   -779811.02649   -605126.00247  25220722.2124   25220719.5324
       310.9694
  -1632500.80049  -1260714.48347  25287537.4624   25287536.2004
      1990.0474
  20416873.85849  15893829.61947  24601374.4544   24601369.8414
     -4527.6874
   -152859.67949   -120495.10348  22423718.5634   22423714.8214
      -487.7034
 04  9  2 22 21  0.0050000  0  8G19G 3G 8G13G10G28G23G27
  -3269304.42849  -2544179.01647  24286585.0714   24286580.3534
       329.6254
   2291683.73649   1785431.35847  24516497.3844   24516495.4114
     -2070.3444
  -7116455.16749  -5541630.18048  23127451.4934   23127448.9424
       730.3914
   6871370.66649   5350364.37548  22067963.5174   22067959.3414
     -2618.0944
   -784401.61749   -608703.08547  25219847.6734   25219846.0604
       301.4534
  -1662319.41849  -1283949.68947  25281863.3924   25281861.5364
      1986.1724
  20484826.62849  15946779.79147  24614305.6264   24614301.1184
     -4532.3124
   -145513.92749   -114771.13948  22425116.5174   22425113.1264
      -491.2814
 04  9  2 22 21 15.0050000  0  8G19G 3G 8G13G10G28G23G27
  -3274197.31249  -2547991.62947  24285653.7204   24285649.6694
       322.8594
   2322806.15449   1809682.61747  24522420.2284   24522417.7944
     -2079.0784
  -7127392.24949  -5550152.56948  23125370.2674   23125367.0284
       728.0634
   6910696.91749   5381008.20848  22075446.8374   22075442.9384
     -2625.2344
   -788862.32149   -612178.96847  25218999.4234   25218996.5604
       293.4694
  -1692093.76549  -1307150.41347  25276197.5404   25276196.0524
      1983.8914
  20552836.44649  15999774.41547  24627246.9624   24627242.4194
     -4535.5164
   -138127.14349   -109015.20048  22426522.0794   22426518.7244
      -493.4064
 04  9  2 22 21 30.0050000  0  8G19G 3G 8G13G10G28G23G27
  -3278981.88149  -2551719.81347  24284743.3604   24284738.5364
       315.4224
   2354066.25749   1834041.13047  24528368.3684   24528366.5914
     -2088.4844
  -7138287.31249  -5558642.20148  23123297.2984   23123293.7244
       725.0004
   6950138.34749   5411741.79448  22082952.3534   22082948.2864
     -2633.1874
   -793195.20749   -615555.19747  25218174.2824   25218172.2634
       284.6724
  -1721825.91249  -1330318.26647  25270539.2674   25270538.0244
      1980.9064
  20620900.78349  16052811.53347  24640199.0484   24640195.7124
     -4539.4224
   -130701.53149   -103228.99548  22427935.2284   22427931.7124
      -496.2814
 04  9  2 22 21 45.0050000  0  8G19G 3G 8G13G10G28G23G27
  -3283660.01849  -2555365.08547  24283852.9854   24283848.4154
       308.2974
   2385461.72249   1858505.13947  24534343.4464   24534340.8134
     -2097.6094
  -7149142.44149  -5567100.72848  23121231.3764   23121228.5914
       722.2504
   6989692.85949   5442563.47948  22090479.4234   22090475.7044
     -2640.7974
   -797402.20249   -618833.35247  25217373.8684   25217372.0014
       276.1724
  -1751517.77749  -1353454.74647  25264888.9854   25264887.5244
      1978.0164
  20689017.35349  16105889.31347  24653161.7824   24653157.1104
     -4542.9534
   -123239.26249    -97414.23648  22429354.9934   22429351.5324
      -498.8124
 04  9  2 22 22  0.0050000  0  8G19G 3G 8G13G10G28G23G27
  -3288232.42249  -2558927.95647  24282982.7984   24282978.2044
       301.1414
   2416991.52149   1883073.81847  24540342.9154   24540340.7554
     -2106.6564
  -7159958.57049  -5575528.86148  23119173.3844   23119169.9354
       719.6414
   7029359.47449   5473472.52648  22098027.6264   22098023.3134
     -2648.3754
   -801484.08049   -622014.04547  25216597.5174   25216595.0754
       267.8134
  -1781169.98749  -1376560.31447  25259246.6494   25259245.4664
      1975.3134
  20757185.06549  16159007.00447  24666133.4784   24666129.3764
     -4546.3594
   -115741.10649    -91571.49848  22430781.5634   22430778.3564
      -501.2194
 04  9  2 22 22 15.0050000  0  8G19G 3G 8G13G10G28G23G27
  -3292693.74449  -2562404.28647  24282134.3454   24282129.7124
       293.6094
   2448660.65149   1907751.06547  24546368.9464   24546366.9624
     -2116.0314
  -7170730.46549  -5583922.51748  23117123.3294   23117120.7824
       716.5634
   7069143.18649   5504472.81648  22105598.1184   22105593.9664
     -2656.2034
   -805435.63349   -625093.12947  25215846.0714   25215843.0174
       258.9384
  -1810777.37249  -1399630.92647  25253612.3844   25253611.5714
      1972.2344
  20825408.72349  16212168.24147  24679116.0094   24679112.1654
     -4550.2344
   -108202.09749    -85696.94448  22432216.4234   22432212.8924
      -504.1094
 04  9  2 22 22 30.0050000  0  8G19G 3G 8G13G10G28G23G27
  -3297042.25149  -2565792.69347  24281306.6884   24281301.8534
       285.8914
   2480470.42749   1932537.88947  24552422.9314   24552419.8414
     -2125.5944
  -7181456.86949  -5592280.74848  23115082.0954   23115079.1384
       713.3284
   7109045.29149   5535565.36448  22113191.4464   22113187.5794
     -2664.3124
   -809255.31649   -628069.51747  25215119.0324   25215116.6574
       250.0004
  -1840338.39949  -1422665.44847  25247987.2594   25247985.5994
      1968.9694
  20893689.54049  16265374.02647  24692109.1344   24692105.3374
     -4554.1564
   -100620.76249    -79789.39748  22433659.0564   22433655.9664
      -507.0944
 04  9  2 22 22 45.0050000  0  8G19G 3G 8G13G10G28G23G27
  -3301278.84249  -2569093.89247  24280500.3534   24280495.7984
       278.8444
   2512419.68449   1957433.42447  24558501.6814   24558499.8104
     -2134.5944
  -7192138.71549  -5600604.22348  23113049.1264   23113047.0914
       710.7344
   7149064.68149   5566749.30448  22120806.7434   22120802.6264
     -2671.7344
   -812943.93649   -630943.73447  25214416.5714   25214414.3804
       241.6564
  -1869853.93949  -1445664.51847  25242370.8924   25242368.7944
      1966.2344
  20962025.99649  16318623.16447  24705113.2044   24705109.5524
     -4557.5474
    -92998.17449    -73849.70248  22435109.7904   22435106.4034
      -509.4694
 04  9  2 22 23  0.0050000  0  8G19G 3G 8G13G10G28G23G27
  -3305409.48849  -2572312.54147  24279714.1964   24279709.4974
       271.6564
   2544502.00749   1982432.63947  24564606.9854   24564605.0524
     -2143.4694
  -7202782.25849  -5608897.87848  23111023.7904   23111020.8414
       708.0784
   7189195.03249   5598019.70548  22128443.2744   22128439.7124
     -2679.3284
   -816507.74549   -633720.70147  25213738.3374   25213735.8134
       233.2504
  -1899330.13949  -1468632.92547  25236760.5244   25236759.8254
      1963.5164
  21030411.85849  16371910.82547  24718126.7594   24718123.0094
     -4560.9694
    -85340.67249    -67882.81248  22436566.8134   22436563.1104
      -511.8754
 04  9  2 22 23 15.0050000  0  8G19G 3G 8G13G10G28G23G27
  -3309425.11349  -2575441.55147  24278950.1104   24278945.5634
       263.2974
   2576726.16149   2007542.36047  24570738.8454   24570737.5244
     -2153.5784
  -7213378.69049  -5617154.82048  23109007.5564   23109004.6734
       704.2974
   7229445.09849   5629383.38548  22136102.4934   22136098.8064
     -2687.8284
   -819937.78449   -636393.44747  25213085.1264   25213083.0444
       223.6724
  -1928757.95549  -1491563.65047  25231161.1734   25231159.6104
      1959.6724
  21098855.65949  16425243.59747  24731151.4624   24731147.7204
     -4565.4224
    -77639.26849    -61881.71448  22438032.0714   22438028.7904
      -515.4694
 04  9  2 22 23 30.0050000  0  8G19G 3G 8G13G10G28G23G27
  -3313330.12449  -2578484.38847  24278207.1814   24278202.2634
       256.8284
   2609087.42949   2032758.95147  24576897.7284   24576895.5094
     -2161.7664
  -7223932.51749  -5625378.55748  23106999.4784   23106996.3534
       702.3594
   7269810.25349   5660836.74148  22143783.9074   22143780.1304
     -2694.6254
   -823238.57849   -638965.46547  25212457.3994   25212455.1184
       215.9064
  -1958141.81149  -1514460.07347  25225569.1814   25225568.1264
      1957.6564
  21167352.53649  16478617.75647  24744186.1494   24744181.9544
     -4568.0474
    -69898.66949    -55850.06448  22439505.1884   22439501.9664
      -517.2344
 04  9  2 22 23 45.0050000  0  8G19G 3G 8G13G10G28G23G27
  -3317122.39449  -2581439.37447  24277485.2984   24277480.4784
       249.2504
   2641587.59649   2058083.74847  24583081.1964   24583079.8334
     -2171.0944
  -7234441.85549  -5633567.62648  23104999.3764   23104996.4114
       699.4064
   7310292.27049   5692381.16448  22151487.4154   22151483.2474
     -2702.4844
   -826408.03149   -641435.16547  25211854.3534   25211851.9784
       207.1724
  -1987479.80049  -1537320.80447  25219986.2124   25219985.0794
      1954.5784
  21235904.03549  16532034.46047  24757230.8994   24757226.4784
     -4571.6724
    -62116.92849    -49786.36848  22440985.9704   22440982.4504
      -519.9534
 04  9  2 22 24  0.0050000  0  8G19G 3G 8G13G10G28G23G27
  -3320803.79849  -2584307.97247  24276784.5714   24276779.8254
       241.8914
   2674224.31449   2083514.94547  24589292.2824   24589290.3174
     -2180.2194
  -7244908.90749  -5641723.76348  23103007.1884   23103004.3254
       696.5314
   7350888.82449   5724014.84048  22159212.8134   22159208.4544
     -2710.1414
   -829448.11849   -643804.06147  25211275.7904   25211273.6614
       198.4534
  -2016773.88549  -1560147.30647  25214412.0484   25214409.8954
      1951.5784
  21304507.82649  16585491.93247  24770286.3684   24770281.6144
     -4575.2194
    -54296.26849    -43692.33448  22442474.5874   22442470.8534
      -522.5784
 04  9  2 22 24 15.0050000  0  8G19G 3G 8G13G10G28G23G27
  -3324374.85849  -2587090.58047  24276104.9464   24276100.7284
       234.2344
   2706996.82849   2109051.97147  24595529.1734   24595526.3254
     -2189.6414
  -7255334.51149  -5649847.58148  23101023.7204   23101020.6184
       693.4224
   7391599.27949   5755737.27648  22166959.5174   22166955.4504
     -2718.0784
   -832359.46349   -646072.61147  25210722.2594   25210719.5014
       189.5784
  -2046024.50249  -1582939.96647  25208845.7514   25208844.2704
      1948.3594
  21373162.97549  16638989.39347  24783350.3294   24783346.3994
     -4578.8594
    -46437.32349    -37568.47148  22443969.7434   22443966.4234
      -525.4064
 04  9  2 22 24 30.0050000  0  8G19G 3G 8G13G10G28G23G27
  -3327831.47949  -2589784.02247  24275447.0174   24275442.5754
       226.2504
   2739908.87049   2134697.71347  24601791.1964   24601789.6494
     -2199.1254
  -7265714.63849  -5657935.97648  23099048.3374   23099045.3884
       690.2194
   7432427.21349   5787551.24148  22174728.7744   22174724.3174
     -2726.1254
   -835138.10649   -648237.77547  25210192.6964   25210191.1774
       180.3914
  -2075227.80149  -1605695.73047  25203289.5874   25203287.3494
      1944.9844
  21441873.19449  16692529.77547  24796425.6494   24796421.4894
     -4582.9064
    -38536.32249    -31411.83948  22445473.4854   22445469.9464
      -528.5314
 04  9  2 22 24 45.0050000  0  8G19G 3G 8G13G10G28G23G27
  -3331173.99049  -2592388.55047  24274811.6734   24274806.2904
       219.0944
   2772959.70049   2160451.61547  24608081.6264   24608079.0244
     -2207.9374
  -7276049.97849  -5665989.48248  23097081.9464   23097078.8214
       687.5784
   7473372.01449   5819456.27648  22182519.8604   22182516.4704
     -2733.4694
   -837784.48649   -650299.87947  25209689.5174   25209687.4234
       172.0164
  -2104384.15749  -1628414.90547  25197740.6574   25197739.2314
      1942.1884
  21510637.59049  16746112.38047  24809511.6424   24809507.1384
     -4586.0784
    -30593.82549    -25222.87848  22446985.0484   22446981.1224
      -530.7974
 04  9  2 22 25  0.0050000  0  8G19G 3G 8G13G10G28G23G27
  -3334405.04749  -2594906.23147  24274196.2284   24274191.1924
       211.4844
   2806146.21749   2186311.24047  24614396.6184   24614394.2164
     -2217.0784
  -7286343.43949  -5674010.33748  23095122.9934   23095119.6104
       684.7344
   7514430.68749   5851450.03648  22190333.3764   22190329.4074
     -2741.0944
   -840301.34549   -652261.03947  25209210.5014   25209208.5134
       163.3914
  -2133496.40549  -1651099.72247  25192200.3764   25192198.6344
      1939.1724
  21579452.90949  16799734.65647  24822606.4154   24822602.0834
     -4589.5004
    -22612.75849    -19003.84748  22448503.7434   22448500.2124
      -533.5164
 04  9  2 22 25 15.0050000  0  8G19G 3G 8G13G10G28G23G27
  -3337513.94549  -2597328.72847  24273604.7514   24273600.0564
       203.6884
   2839478.95149   2212284.80447  24620739.2514   24620737.5204
     -2226.6094
  -7296584.45349  -5681990.32848  23093174.2044   23093171.2354
       681.4844
   7555613.81149   5883540.78248  22198170.5404   22198166.8374
     -2749.2194
   -842677.99849   -654112.96347  25208758.3924   25208756.0484
       154.0784
  -2162553.79049  -1673741.80247  25186671.1964   25186669.3134
      1935.8444
  21648329.61749  16853404.76747  24835713.5324   24835709.0754
     -4593.3284
    -14582.43449    -12746.44848  22450031.7984   22450028.2744
      -536.5164
 04  9  2 22 25 30.0050000  0  8G19G 3G 8G13G10G28G23G27
  -3340508.98449  -2599662.48747  24273034.7044   24273030.1774
       195.9224
   2872949.08849   2238365.40847  24627108.7124   24627106.5054
     -2235.8284
  -7306781.30449  -5689935.90448  23091232.9234   23091230.6184
       678.3134
   7596912.46349   5915721.54148  22206029.1884   22206025.0994
     -2757.0624
   -844923.04749   -655862.34147  25208331.4854   25208328.6884
       145.3914
  -2191564.73849  -1696347.67847  25181150.9544   25181149.1034
      1932.5474
  21717258.76649  16907115.76247  24848830.4314   24848825.9424
     -4596.9224
     -6511.57049     -6457.45448  22451567.3374   22451564.1694
      -539.2974
 04  9  2 22 25 45.0050000  0  8G19G 3G 8G13G10G28G23G27
  -3343388.95149  -2601906.58847  24272486.7044   24272481.9974
       188.0314
   2906557.59249   2264553.86347  24633503.9384   24633501.7674
     -2245.2504
  -7316933.01349  -5697846.30148  23089301.4384   23089298.5364
       675.1884
   7638327.61649   5947993.08848  22213910.4464   22213906.3724
     -2764.9224
   -847035.16149   -657508.13047  25207929.2594   25207926.7284
       136.2814
  -2220528.03449  -1718916.43447  25175639.1814   25175637.2744
      1929.2974
  21786241.18749  16960868.25647  24861956.6424   24861952.0174
     -4600.6414
      1600.98049      -135.98148  22453111.2744   22453107.9664
      -542.2814
 04  9  2 22 26  0.0050000  0  8G19G 3G 8G13G10G28G23G27
  -3346150.81649  -2604058.65847  24271960.7744   24271956.3994
       180.7664
   2940307.04149   2290852.14347  24639926.3454   24639923.9934
     -2254.1094
  -7327036.78149  -5705719.35448  23087379.2824   23087376.1964
       672.4844
   7679862.23749   5980357.72048  22221814.2044   22221810.1534
     -2772.4064
   -849011.53849   -659048.16947  25207553.0404   25207550.7124
       127.7034
  -2249440.70949  -1741445.74447  25170136.4234   25170135.1854
      1926.3284
  21855279.39549  17014664.22547  24875094.5874   24875090.5524
     -4603.8754
      9757.92249      6220.08748  22454663.6424   22454660.0674
      -544.7814
 04  9  2 22 26 15.0050000  0  8G19G 3G 8G13G10G28G23G27
  -3348797.07349  -2606120.66047  24271457.8064   24271452.7674
       172.3754
   2974194.67749   2317258.09047  24646374.5174   24646373.0324
     -2263.9694
  -7337095.37649  -5713557.19848  23085464.5794   23085461.6454
       668.8754
   7721513.35849   6012813.14048  22229740.1574   22229736.1304
     -2780.7814
   -850854.82549   -660484.46147  25207202.5324   25207200.0284
       118.2664
  -2278305.43949  -1763937.66947  25164644.5874   25164642.3724
      1922.4534
  21924370.48249  17068501.37947  24888242.2904   24888238.0564
     -4607.9694
     17956.57749     12608.66148  22456223.8134   22456220.1964
      -548.1094
 04  9  2 22 26 30.0050000  0  8G19G 3G 8G13G10G28G23G27
  -3351328.65849  -2608093.30047  24270975.9784   24270971.2004
       164.8754
   3008219.15049   2343770.67447  24652850.2514   24652847.1424
     -2272.9534
  -7347110.26749  -5721360.99948  23083559.0244   23083556.0524
       666.1414
   7763279.61749   6045358.27148  22237687.9154   22237684.0874
     -2788.2664
   -852566.05249   -661817.87547  25206876.6184   25206874.5994
       109.6724
  -2307123.32349  -1786393.14347  25159160.5484   25159158.0604
      1919.5784
  21993512.94949  17122378.58247  24901399.2434   24901395.5054
     -4611.2344
     26195.63649     19028.71448  22457791.2594   22457788.0174
      -550.6564
 04  9  2 22 26 45.0050000  0  8G19G 3G 8G13G10G28G23G27
  -3353744.76649  -2609975.94347  24270516.1424   24270511.3064
       156.9064
   3042380.93149   2370390.24747  24659350.4154   24659347.6924
     -2282.3594
  -7357080.42349  -5729129.93548  23081661.6884   23081658.7634
       662.8754
   7805161.62249   6077993.58948  22245657.8294   22245654.1924
     -2796.2974
   -854144.48149   -663047.80247  25206576.3534   25206573.5364
       100.5314
  -2335893.48849  -1808811.40647  25153685.1734   25153683.1304
      1916.1564
  22062707.25749  17176296.17147  24914566.5324   24914563.0134
     -4615.0164
     34475.86149     25480.84948  22459367.3064   22459363.7084
      -553.6564
 04  9  2 22 27  0.0050000  0  8G19G 3G 8G13G10G28G23G27
  -3356042.82049  -2611766.62147  24270078.8684   24270074.2514
       149.2664
   3076682.17049   2397118.48147  24665877.7514   24665875.2634
     -2291.4374
  -7367003.55949  -5736862.22248  23079773.5324   23079770.9354
       660.0314
   7847161.59849   6110720.83448  22253650.1264   22253645.8334
     -2803.8594
   -855587.66949   -664172.35847  25206301.3214   25206299.4074
        91.6724
  -2364613.56849  -1831190.60447  25148220.0634   25148218.1424
      1913.0314
  22131955.53149  17230255.82347  24927744.0404   24927740.5634
     -4618.2504
     42799.54849     31966.84448  22460951.0714   22460947.7824
      -556.3444
 04  9  2 22 27 15.0050000  0  8G19G 3G 8G13G10G28G23G27
  -3358220.74949  -2613463.68447  24269664.4314   24269659.6614
       141.5944
   3111124.64249   2423956.75547  24672431.8604   24672429.5324
     -2300.4844
  -7376878.05449  -5744556.62948  23077894.3374   23077891.3954
       657.0634
   7889281.27449   6143541.35648  22261665.1494   22261661.2594
     -2811.5474
   -856893.69449   -665190.02847  25206053.1104   25206050.3844
        82.8444
  -2393281.50949  -1853529.24347  25142764.5564   25142762.6494
      1909.7974
  22201259.32949  17284258.73047  24940932.3454   24940928.7824
     -4621.6254
     51168.52849     38488.13848  22462543.2744   22462539.9034
      -559.0314
 04  9  2 22 27 30.0050000  0  8G19G 3G 8G13G10G28G23G27
  -3360283.22849  -2615070.78747  24269271.6494   24269267.3104
       133.6884
   3145703.33249   2450901.20747  24679011.6184   24679009.6734
     -2309.6724
  -7386708.52149  -5752216.70448  23076024.0014   23076020.7864
       654.0004
   7931515.68949   6176451.28248  22269702.4314   22269698.2204
     -2819.3914
   -858067.32249   -666104.52247  25205830.0954   25205828.0444
        74.0004
  -2421901.99549  -1875830.84847  25137318.2204   25137316.5634
      1906.5474
  22270613.47849  17338300.88547  24954129.8924   24954126.0134
     -4625.1724
     59578.01749     45040.98948  22464144.2984   22464140.5674
      -561.7974
 04  9  2 22 27 45.0050000  0  8G19G 3G 8G13G10G28G23G27
  -3362226.75449  -2616585.19347  24268901.4854   24268897.3334
       125.5314
   3180421.35449   2477954.20347  24685618.4934   24685616.1774
     -2319.1724
  -7396491.75349  -5759840.00148  23074162.0954   23074158.5714
       650.7344
   7973867.99649   6209453.07548  22277761.5014   22277757.6424
     -2827.3914
   -859105.15349   -666913.21047  25205632.6734   25205630.2124
        64.6884
  -2450471.61249  -1898092.85747  25131881.4314   25131879.5754
      1903.0474
  22340020.99149  17392384.62647  24967337.9704   24967333.7744
     -4628.9694
     68031.19349     51627.88148  22465752.4854   22465748.9814
      -564.9534
 04  9  2 22 28  0.0050000  0  8G19G 3G 8G13G10G28G23G27
  -3364050.35949  -2618006.15647  24268554.5874   24268550.2124
       117.1884
   3215279.38049   2505116.30947  24692252.0014   24692249.9424
     -2328.9694
  -7406226.80849  -5767425.73548  23072309.4544   23072306.6774
       646.9694
   8016338.95049   6242547.31548  22285843.5174   22285839.3414
     -2835.7814
   -860006.12749   -667615.24347  25205461.0174   25205458.6534
        55.0784
  -2478989.43649  -1920314.48947  25126454.7044   25126452.5484
      1899.0164
  22409482.53749  17446510.46547  24980556.0174   24980552.1304
     -4632.9224
     76529.01849     58249.57548  22467369.7204   22467365.9784
      -568.4694
 04  9  2 22 28 15.0050000  0  8G19G 3G 8G13G10G28G23G27
  -3365750.97249  -2619331.27847  24268230.8604   24268226.6384
       109.6724
   3250280.04349   2532389.55047  24698911.9544   24698910.0324
     -2337.7194
  -7415910.86049  -5774971.73448  23070466.5244   23070463.4194
       644.2344
   8058931.35849   6275736.20248  22293948.5874   22293944.6694
     -2843.2034
   -860767.38049   -668208.41347  25205316.2434   25205313.2284
        46.4064
  -2507452.42549  -1942493.37947  25121038.6574   25121036.8064
      1896.0474
  22479000.62749  17500680.35547  24993785.1734   24993781.4194
     -4636.0944
     85074.17349     64908.14848  22468995.6964   22468992.1494
      -570.9064
 04  9  2 22 28 30.0050000  0  8G19G 3G 8G13G10G28G23G27
  -3367329.85449  -2620561.54947  24267931.0874   24267926.0174
       101.7344
   3285421.83249   2559772.77347  24705599.9934   24705597.2434
     -2346.9224
  -7425545.44549  -5782479.18048  23068632.6734   23068630.1344
       641.1094
   8101643.53849   6309018.41048  22302076.1654   22302072.3174
     -2850.9374
   -861390.26749   -668693.77347  25205196.7744   25205194.8454
        37.4844
  -2535861.97049  -1964630.66147  25115632.8994   25115630.7354
      1892.7194
  22548573.68949  17554893.08747  25007024.5014   25007020.4314
     -4639.4534
     93665.26249     71602.50848  22470630.3534   22470626.9384
      -573.7814
 04  9  2 22 28 45.0050000  0  8G19G 3G 8G13G10G28G23G27
  -3368788.79449  -2621698.36947  24267653.1654   24267648.6224
        92.7974
   3320702.44549   2587264.16647  24712313.2124   24712310.6614
     -2357.2194
  -7435132.56849  -5789949.65548  23066808.9234   23066805.7554
       636.9534
   8144473.29049   6342392.24148  22310226.9934   22310222.7204
     -2859.7504
   -861876.80149   -669072.87747  25205104.4704   25205102.7434
        27.3134
  -2564220.00949  -1986727.77447  25110236.2594   25110233.4624
      1888.2504
  22618199.27649  17609146.73847  25020274.0954   25020269.9624
     -4643.8754
    102300.26449     78331.08848  22472273.8064   22472270.2004
      -577.7344
 04  9  2 22 29  0.0050000  0  8G19G 3G 8G13G10G28G23G27
  -3370131.43849  -2622744.55247  24267397.4154   24267392.7784
        84.9694
   3356117.98249   2614860.69447  24719052.8844   24719050.5364
     -2366.2194
  -7444675.89149  -5797385.99248  23064992.5484   23064989.8334
       634.1414
   8187416.70449   6375854.63148  22318398.6184   22318394.1574
     -2867.3754
   -862230.74349   -669348.65847  25205036.9314   25205035.0754
        18.5634
  -2592530.20349  -2008787.64147  25104848.4154   25104846.2314
      1885.1094
  22687873.34949  17663438.19047  25033532.0404   25033528.3414
     -4647.1724
    110975.30749     85090.87248  22473924.4934   22473920.9154
      -580.3284
 04  9  2 22 29 15.0050000  0  8G19G 3G 8G13G10G28G23G27
  -3371351.74449  -2623695.41947  24267165.3764   24267160.2784
        77.4534
   3391674.02149   2642566.70047  24725818.8064   24725816.7434
     -2374.7664
  -7454169.72949  -5804783.77648  23063186.6034   23063183.0404
       631.4844
   8230479.46949   6409410.03148  22326592.9154   22326589.2594
     -2874.5944
   -862446.14349   -669516.46447  25204996.2434   25204994.4354
         9.9844
  -2620786.64249  -2030805.58647  25099471.6574   25099469.2204
      1882.1724
  22757601.43349  17717771.70147  25046801.2124   25046797.3294
     -4650.0784
    119696.25449     91886.42048  22475584.0174   22475580.5674
      -582.7194
 04  9  2 22 29 30.0050000  0  8G19G 3G 8G13G10G28G23G27
  -3372450.44949  -2624551.52347  24266956.3684   24266951.3374
        69.1254
   3427369.51449   2670381.36147  24732611.9544   24732608.7084
     -2384.4224
  -7463615.17349  -5812143.85048  23061388.9074   23061385.8064
       628.0474
   8273660.64249   6443057.68648  22334810.1104   22334806.0954
     -2882.7504
   -862523.87549   -669577.02247  25204981.3294   25204978.9624
         0.4534
  -2648990.04249  -2052782.21147  25094104.3064   25094102.4464
      1878.3914
  22827382.37549  17772146.42247  25060079.8374   25060076.1884
     -4653.8284
    128462.08549     98716.93548  22477251.9314   22477248.5754
      -585.9224
 04  9  2 22 29 45.0050000  0  8G19G 3G 8G13G10G28G23G27
  -3373429.26549  -2625314.20547  24266769.6034   24266765.1774
        61.3284
   3463202.27849   2698303.01347  24739430.5244   24739427.9974
     -2393.1564
  -7473013.97149  -5819467.56148  23059600.1104   23059597.2044
       625.1724
   8316958.08549   6476795.94048  22343049.4234   22343045.4974
     -2890.2034
   -862465.73049   -669531.71147  25204992.8604   25204990.3374
        -8.2814
  -2677142.27449  -2074718.99147  25088747.5874   25088745.2554
      1875.2194
  22897213.96149  17826560.58847  25073368.9154   25073364.4704
     -4656.9064
    137270.93149    105580.99548  22478928.2204   22478924.9744
      -588.5474
 04  9  2 22 30  0.0050000  0  8G19G 3G 8G13G10G28G23G27
  -3374286.78849  -2625982.38547  24266607.4544   24266602.0054
        53.1724
   3499173.49249   2726332.51647  24746275.0404   24746272.8644
     -2402.6254
  -7482365.04549  -5826754.10848  23057820.8764   23057817.8414
       621.8284
   8360372.94049   6510625.68848  22351311.0714   22351307.1104
     -2898.1724
   -862270.39849   -669379.48647  25205029.9464   25205027.3644
       -17.5944
  -2705242.01349  -2096614.84647  25083400.4314   25083397.8534
      1871.5634
  22967097.18949  17881014.99147  25086666.8134   25086662.7744
     -4660.6254
    146124.02449    112479.50448  22480613.2984   22480609.7164
      -591.6254
 04  9  2 22 30 15.0050000  0  8G19G 3G 8G13G10G28G23G27
  -3375023.48349  -2626556.40447  24266466.1034   24266461.7474
        44.8754
   3535282.15249   2754469.14547  24753146.6184   24753144.4274
     -2411.9694
  -7491668.83549  -5834003.78548  23056049.9544   23056047.0874
       618.4694
   8403904.25249   6544546.19448  22359594.6424   22359590.6574
     -2906.1874
   -861938.66549   -669120.96747  25205092.5714   25205090.2124
       -27.0004
  -2733289.84849  -2118470.26047  25078062.8994   25078060.7634
      1867.9384
  23037030.94649  17935508.79547  25099974.5874   25099971.4894
     -4664.1254
    155020.48049    119411.81548  22482306.0244   22482302.6424
      -594.8124
 04  9  2 22 30 30.0050000  0  8G19G 3G 8G13G10G28G23G27
  -3375638.30149  -2627035.45247  24266349.3994   24266344.3134
        36.8594
   3571528.93249   2782713.37047  24760043.7044   24760042.3494
     -2421.1094
  -7500924.87549  -5841216.28048  23054288.9854   23054285.4274
       615.4384
   8447552.80449   6578558.03848  22367900.5324   22367896.5364
     -2913.8594
   -861469.54749   -668755.41947  25205182.2904   25205179.9544
       -36.0164
  -2761284.88549  -2140284.51447  25072735.7674   25072733.3064
      1864.5004
  23107015.88849  17990042.45647  25113292.4464   25113288.4894
     -4667.4534
    163961.18949    126378.60848  22484007.3534   22484003.9354
      -597.6094
 04  9  2 22 30 45.0060000  0  8G19G 3G 8G13G10G28G23G27
  -3376127.30549  -2627416.47547  24266256.8264   24266251.8734
        28.5004
   3607920.13549   2811070.16147  24766968.6004   24766967.2684
     -2430.5314
  -7510129.54149  -5848388.72548  23052537.3344   23052534.4364
       612.0004
   8491325.37149   6612666.52848  22376230.3114   22376226.2684
     -2921.9064
   -860858.88949   -668279.55447  25205298.6544   25205295.4824
       -45.2974
  -2789224.73149  -2162055.77647  25067419.1864   25067417.0064
      1860.7344
  23177060.48049  18044622.62247  25126621.9674   25126617.6824
     -4671.0474
    172950.93549    133383.61948  22485717.9594   22485713.9554
      -600.7974
 04  9  2 22 31  0.0060000  0  8G19G 3G 8G13G10G28G23G27
  -3376494.89449  -2627702.87847  24266186.4434   24266181.4514
        20.3134
   3644445.83049   2839531.75647  24773919.4754   24773917.3464
     -2439.9064
  -7519286.54449  -5855524.03548  23050795.0844   23050791.7014
       608.7344
   8535211.10049   6646863.20048  22384581.5614   22384577.4554
     -2929.7974
   -860111.42849   -667697.11247  25205441.0454   25205437.4904
       -54.5624
  -2817110.43049  -2183784.84747  25062112.7874   25062110.1824
      1857.0474
  23247150.17349  18099237.91847  25139959.5214   25139956.1004
     -4674.5164
    181983.52749    140421.99848  22487436.8424   22487433.4324
      -603.8444
 04  9  2 22 31 15.0060000  0  8G19G 3G 8G13G10G28G23G27
  -3376737.88049  -2627892.18747  24266140.2794   24266135.7954
        11.7034
   3681111.28949   2868102.24647  24780896.6234   24780894.3224
     -2449.3914
  -7528393.42349  -5862620.28148  23049061.4124   23049058.5494
       605.1094
   8579215.78349   6681152.55848  22392955.4204   22392951.5724
     -2937.9374
   -859224.12749   -667005.67847  25205609.6784   25205607.1704
       -64.1724
  -2844940.73349  -2205470.74347  25056816.2644   25056814.2094
      1853.2344
  23317292.43949  18153894.18547  25153307.1314   25153303.6624
     -4678.1414
    191062.51549    147496.55448  22489164.5374   22489161.3694
      -607.1094
 04  9  2 22 31 30.0060000  0  8G19G 3G 8G13G10G28G23G27
  -3376859.32049  -2627986.79847  24266117.3574   24266112.6784
         4.1564
   3717913.23449   2896779.09247  24787899.9434   24787897.7994
     -2457.9224
  -7537453.16849  -5869679.80548  23047337.6314   23047334.7174
       602.5474
   8623336.32049   6715532.17748  22401351.3504   22401347.2754
     -2945.1094
   -858200.00649   -666207.65347  25205803.6704   25205801.6664
       -72.7344
  -2872718.62349  -2227115.82547  25051530.9284   25051528.4944
      1850.1884
  23387483.86749  18208588.74247  25166663.8814   25166660.8574
     -4680.9694
    200184.92849    154604.92848  22490900.6314   22490897.1004
      -609.5164
 04  9  2 22 31 45.0060000  0  8G19G 3G 8G13G10G28G23G27
  -3376856.93149  -2627984.90247  24266117.7794   24266112.8694
        -4.1564
   3754853.57149   2925563.77947  24794929.3424   24794927.0804
     -2467.1254
  -7546463.90949  -5876701.14448  23045622.9044   23045620.1314
       599.2034
   8667574.52249   6750003.50548  22409769.3574   22409765.2324
     -2953.0164
   -857037.03549   -665301.41847  25206025.1234   25206023.3304
       -82.0474
  -2900441.87049  -2248718.29847  25046254.9124   25046252.1974
      1846.4844
  23457726.35049  18263323.08347  25180030.1934   25180027.3144
     -4684.3914
    209352.72449    161748.67948  22492645.1394   22492641.6584
      -612.5784
 04  9  2 22 32  0.0060000  0  8G19G 3G 8G13G10G28G23G27
  -3376729.82549  -2627885.83247  24266141.8114   24266136.3344
       -12.3914
   3791932.78849   2954456.66847  24801985.2324   24801982.9634
     -2476.2504
  -7555424.83649  -5883683.66848  23043917.9514   23043914.3504
       595.9694
   8711931.10649   6784567.07648  22418210.6624   22418206.2214
     -2960.6724
   -855734.38349   -664286.35547  25206272.8504   25206271.1784
       -91.1874
  -2928109.67349  -2270277.57647  25040989.4674   25040987.2644
      1843.0634
  23528020.23949  18318097.48347  25193407.0844   25193403.3964
     -4687.6564
    218566.61149    168928.32748  22494398.5144   22494394.7284
      -615.5004
 04  9  2 22 32 15.0060000  0  8G19G 3G 8G13G10G28G23G27
  -3376479.13749  -2627690.46647  24266189.3344   24266184.3574
       -20.7974
   3829149.46249   2983456.68147  24809067.6234   24809065.5534
     -2485.7034
  -7564337.20849  -5890628.36048  23042221.5684   23042218.8854
       592.5634
   8756404.53149   6819221.67548  22426673.3264   22426669.2644
     -2968.8124
   -854293.18949   -663163.33647  25206548.0844   25206545.3614
      -100.6724
  -2955723.11249  -2291794.49647  25035735.4824   25035732.9984
      1839.0784
  23598364.08949  18372910.82847  25206793.1544   25206789.8264
     -4691.2664
    227825.37349    176142.96448  22496160.1234   22496156.6894
      -618.7814
 04  9  2 22 32 30.0060000  0  8G19G 3G 8G13G10G28G23G27
  -3376104.59049  -2627398.59147  24266260.5924   24266255.8344
       -29.4374
   3866503.53549   3012563.76447  24816175.0764   24816173.7014
     -2495.2814
  -7573200.86949  -5897535.08548  23040535.3114   23040532.3894
       588.9694
   8800994.82849   6853967.35548  22435158.8344   22435154.5804
     -2976.9374
   -852713.33349   -661932.26647  25206848.4754   25206845.4204
      -110.3914
  -2983282.13449  -2313269.00547  25030490.8034   25030488.6394
      1835.1094
  23668757.62849  18427762.87947  25220188.6074   25220185.5374
     -4694.8754
    237129.10349    183392.63148  22497930.6394   22497927.1434
      -622.1254
 04  9  2 22 32 45.0060000  0  8G19G 3G 8G13G10G28G23G27
  -3375606.55149  -2627010.49347  24266355.4364   24266350.5494
       -37.5944
   3903994.15049   3041777.22947  24823309.8264   24823307.9124
     -2504.1564
  -7582016.41749  -5904404.33148  23038857.8894   23038854.4634
       585.8444
   8845701.15149   6888803.45048  22443666.2564   22443661.6394
     -2984.5474
   -850995.38549   -660593.58547  25207175.1544   25207172.8894
      -119.2664
  -3010787.12849  -2334701.42347  25025256.5374   25025254.6784
      1831.5784
  23739200.07749  18482653.05847  25233593.7094   25233589.5104
     -4698.0474
    246477.11449    190676.79848  22499709.5294   22499706.0534
      -624.9844
 04  9  2 22 33  0.0060000  0  8G19G 3G 8G13G10G28G23G27
  -3374981.67849  -2626523.53847  24266474.4594   24266469.2564
       -45.6414
   3941624.23849   3071099.37247  24830471.1314   24830468.7714
     -2513.2504
  -7590780.69949  -5911233.62148  23037189.8424   23037186.8894
       582.6884
   8890526.61049   6923732.36048  22452196.2094   22452192.0964
     -2992.2344
   -849136.04349   -659144.73247  25207529.2404   25207526.5724
      -128.4694
  -3038234.85049  -2356089.21147  25020033.9674   25020031.3114
      1828.1254
  23809694.17549  18537583.46847  25247008.8344   25247004.4864
     -4701.0944
    255872.51949    197997.90548  22501497.4044   22501493.9124
      -627.7504
 04  9  2 22 33 15.0060000  0  8G19G 3G 8G13G10G28G23G27
  -3374229.21949  -2625937.19147  24266617.2644   24266612.7364
       -54.4694
   3979394.27949   3100530.56847  24837658.0374   24837656.1584
     -2522.6874
  -7599493.07449  -5918022.47348  23035531.9044   23035528.6434
       579.0784
   8935471.55749   6958754.40248  22460748.9824   22460744.5884
     -3000.3284
   -847134.72949   -657585.24547  25207909.7014   25207907.7284
      -138.1094
  -3065624.57249  -2377431.81347  25014821.9674   25014819.0374
      1824.0474
  23880240.35949  18592554.46847  25260432.6864   25260428.8654
     -4704.8284
    265316.02449    205356.47948  22503294.3034   22503290.8384
      -631.1094
 04  9  2 22 33 30.0060000  0  8G19G 3G 8G13G10G28G23G27
  -3373353.77749  -2625254.99847  24266783.9824   24266779.4904
       -62.3754
   4017299.33849   3130066.99147  24844871.7484   24844869.0374
     -2531.4844
  -7608158.39049  -5924774.64948  23033882.6934   23033879.2524
       576.1884
   8980531.17149   6993865.78048  22469323.5684   22469319.1664
     -3007.7034
   -844996.04549   -655918.71847  25208317.0214   25208314.5454
      -147.0624
  -3092960.93049  -2398732.82147  25009619.3114   25009617.6394
      1820.7034
  23950833.47249  18647562.05447  25273866.5214   25273862.4554
     -4707.6724
    274802.84449    212748.81548  22505099.6864   22505096.1664
      -633.8124
 04  9  2 22 33 45.0060000  0  8G19G 3G 8G13G10G28G23G27
  -3372353.55649  -2624475.59147  24266974.0614   24266969.5414
       -71.1414
   4055340.89449   3159709.78047  24852110.0614   24852108.1934
     -2540.9534
  -7616775.07949  -5931488.92748  23032242.9124   23032240.1434
       572.5474
   9025706.97249   7029067.69448  22477920.0614   22477916.2324
     -3015.8914
   -842718.41449   -654143.93447  25208749.9514   25208747.7754
      -156.8284
  -3120242.25249  -2419990.91447  25004427.2714   25004425.1784
      1816.5784
  24021475.03349  18702607.35747  25287308.6864   25287305.6004
     -4711.3124
    284334.55449    220176.13748  22506913.5374   22506910.4634
      -637.2194
 04  9  2 22 34  0.0060000  0  8G19G 3G 8G13G10G28G23G27
  -3371227.00349  -2623597.72847  24267188.6234   24267183.4324
       -79.3124
   4093520.00149   3189459.72947  24859375.3184   24859373.1704
     -2549.8754
  -7625341.70149  -5938164.21448  23030613.1154   23030609.7604
       569.4534
   9071000.13549   7064361.07548  22486539.1704   22486534.9594
     -3023.4844
   -840300.36949   -652259.73247  25209210.8654   25209207.5254
      -165.9694
  -3147466.94349  -2441204.94047  24999247.2874   24999244.8504
      1813.0784
  24092166.06149  18757691.24747  25300761.2014   25300756.9984
     -4714.3284
    293912.62949    227639.57648  22508736.3504   22508732.4514
      -640.1094
 04  9  2 22 34 15.0060000  0  8G19G 3G 8G13G10G28G23G27
  -3369977.11549  -2622623.76747  24267426.6864   24267421.9754
       -87.2974
   4131833.35449   3219314.27147  24866665.7794   24866663.7444
     -2558.4844
  -7633861.49249  -5944802.99548  23028991.8344   23028988.7644
       566.6094
   9116407.33049   7099743.29948  22495179.7324   22495175.9594
     -3030.7814
   -837744.98549   -650268.51747  25209696.4824   25209694.0534
      -174.7194
  -3174638.11549  -2462377.23147  24994076.7644   24994074.2794
      1809.8284
  24162903.14049  18812810.98547  25314222.0214   25314218.3304
     -4717.2504
    303533.71349    235136.54248  22510567.0064   22510563.0804
      -642.6564
 04  9  2 22 34 30.0060000  0  8G19G 3G 8G13G10G28G23G27
  -3368598.20549  -2621549.28747  24267689.1394   24267683.8264
       -96.2974
   4170286.20749   3249277.54247  24873983.3114   24873981.4784
     -2568.2664
  -7642328.76349  -5951400.85148  23027380.6864   23027377.4714
       562.5634
   9161933.92649   7135218.56348  22503843.4674   22503839.2714
     -3039.2504
   -835046.74449   -648165.97347  25210210.3034   25210207.3614
      -184.7194
  -3201750.16249  -2483503.46447  24988917.1314   24988915.2134
      1805.4534
  24233691.44649  18867970.62347  25327692.5144   25327689.0724
     -4721.1254
    313203.38849    242671.34448  22512406.9674   22512403.7094
      -646.3124
 04  9  2 22 34 45.0060000  0  8G19G 3G 8G13G10G28G23G27
  -3367090.63849  -2620374.53947  24267975.5214   24267970.4864
      -104.7344
   4208877.90049   3279349.00547  24881327.5844   24881325.1194
     -2577.3914
  -7650744.13649  -5957958.26448  23025779.0684   23025776.0254
       559.3444
   9207579.32049   7170786.38848  22512529.3654   22512525.4084
     -3046.9844
   -832206.00849   -645952.38847  25210750.3814   25210748.1394
      -194.0474
  -3228803.39749  -2504583.82847  24983768.7794   24983767.0214
      1801.5944
  24304530.29749  18923169.68447  25341172.5214   25341169.0764
     -4724.2664
    322921.28149    250243.74448  22514256.6074   22514252.9554
      -649.4844
 04  9  2 22 35  0.0060000  0  8G19G 3G 8G13G10G28G23G27
  -3365457.79449  -2619102.18147  24268286.7014   24268281.2174
      -112.9224
   4247604.73049   3309525.72447  24888697.1234   24888694.6114
     -2586.1414
  -7659111.12649  -5964477.99148  23024187.2174   23024183.6894
       556.2974
   9253339.77949   7206443.88748  22521237.2644   22521233.0684
     -3054.4534
   -829226.26849   -643630.51147  25211317.6934   25211315.2364
      -203.1564
  -3255801.26749  -2525621.08847  24978631.3814   24978630.1274
      1798.1414
  24375415.91949  18978405.19747  25354661.3574   25354658.0804
     -4727.1254
    332683.70149    257850.82348  22516114.2564   22516110.3224
      -652.2814
 04  9  2 22 35 15.0060000  0  8G19G 3G 8G13G10G28G23G27
  -3363702.16949  -2617734.14847  24268620.0764   24268615.6114
      -121.0314
   4286463.71849   3339805.46647  24896091.9364   24896089.0184
     -2594.8594
  -7667432.45649  -5970962.12048  23022603.6314   23022600.2754
       553.3914
   9299212.44749   7242188.80648  22529966.3504   22529962.3654
     -3061.8284
   -826110.34549   -641202.50947  25211910.3344   25211907.8344
      -212.1094
  -3282746.52549  -2546617.34247  24973504.4044   24973501.9594
      1794.7974
  24446345.31349  19033674.78847  25368159.2254   25368155.4394
     -4729.8914
    342488.05649    265490.59448  22517979.7714   22517976.5614
      -654.9064
 04  9  2 22 35 30.0060000  0  8G19G 3G 8G13G10G28G23G27
  -3361819.78249  -2616267.33547  24268979.1074   24268973.9554
      -130.0474
   4325458.46249   3370190.97947  24903512.0294   24903509.4044
     -2604.3914
  -7675704.23049  -5977407.65748  23021029.0534   23021025.7524
       549.4694
   9345200.98649   7278024.03948  22538717.6314   22538713.4204
     -3069.9844
   -822854.27049   -638665.30047  25212530.3264   25212527.8774
      -221.9844
  -3309635.05649  -2567569.40247  24968387.7564   24968384.7014
      1790.4224
  24517321.93049  19088981.18947  25381666.0924   25381662.4434
     -4733.6724
    352338.08049    273165.93148  22519854.0924   22519850.4204
      -658.4534
 04  9  2 22 35 45.0060000  0  8G19G 3G 8G13G10G28G23G27
  -3359806.43949  -2614698.46647  24269361.9984   24269356.8144
      -138.3754
   4364592.80249   3400685.28847  24910958.6004   24910956.7284
     -2613.2814
  -7683922.38249  -5983811.38148  23019465.4984   23019462.3814
       546.3284
   9391309.39949   7313952.66248  22547491.7874   22547487.6544
     -3077.7194
   -819453.99849   -636015.71347  25213177.3344   25213174.8854
      -231.2504
  -3336462.76749  -2588474.05647  24963282.1154   24963280.0684
      1786.6724
  24588349.60049  19144327.36447  25395182.1074   25395178.9164
     -4736.6874
    362237.77649    280880.00348  22521737.8654   22521734.5104
      -661.4064
 04  9  2 22 36  0.0060000  0  8G19G 3G 8G13G10G28G23G27
  -3357667.88849  -2613032.05147  24269768.5614   24269763.7994
      -146.6724
   4403860.65649   3431283.61647  24918431.3574   24918428.9284
     -2622.2974
  -7692092.85149  -5990177.98248  23017910.3424   23017907.6864
       543.2034
   9437531.52349   7349969.89948  22556287.7714   22556283.8534
     -3085.2194
   -815915.35849   -633258.30947  25213850.6624   25213848.0614
      -240.5314
  -3363235.33949  -2609335.76147  24958187.6624   24958185.2524
      1783.0004
  24659422.11949  19199708.48847  25408706.9904   25408703.1354
     -4739.5474
    372181.28849    288628.19648  22523629.9824   22523626.6664
      -664.2974
 04  9  2 22 36 15.0060000  0  8G19G 3G 8G13G10G28G23G27
  -3355401.25549  -2611265.82647  24270200.0764   24270195.0684
      -155.2344
   4443264.54549   3461987.93247  24925929.1234   24925927.1504
     -2631.3124
  -7700212.98449  -5996505.32848  23016365.5294   23016362.1704
       539.8134
   9483869.88249   7386077.70548  22565105.3424   22565101.4124
     -3092.9374
   -812235.56949   -630390.93147  25214549.7404   25214548.2714
      -249.9064
  -3389950.01149  -2630152.32647  24953104.0064   24953101.2484
      1779.1884
  24730542.02449  19255126.53947  25422240.7254   25422236.6864
     -4742.7664
    382171.32849    296412.65948  22525531.2094   22525527.8464
      -667.3914
 04  9  2 22 36 30.0060000  0  8G19G 3G 8G13G10G28G23G27
  -3353009.94149  -2609402.44147  24270655.7484   24270650.2284
      -163.5474
   4482800.64349   3492795.28147  24933453.3034   24933451.1664
     -2640.1254
  -7708286.36449  -6002796.26448  23014829.1934   23014825.6894
       536.7034
   9530320.87649   7422273.27148  22573945.0614   22573940.6504
     -3100.4064
   -808418.21649   -627416.35947  25215277.0924   25215274.7174
      -258.9694
  -3416610.30349  -2650926.51547  24948030.4674   24948028.0024
      1775.6414
  24801705.29449  19310578.39147  25435782.6074   25435778.9124
     -4745.5784
    392204.33049    304230.59048  22527440.6234   22527437.0064
      -670.1724
 04  9  2 22 36 45.0060000  0  8G19G 3G 8G13G10G28G23G27
  -3350496.67449  -2607444.03847  24271133.3504   24271128.6074
      -172.0944
   4522465.93049   3523703.29547  24941001.7174   24940999.1704
     -2649.1874
  -7716315.76149  -6009052.92348  23013300.9594   23013297.6744
       533.3284
   9576881.40849   7458554.19948  22582805.1004   22582801.2684
     -3108.2034
   -804466.04249   -624336.73847  25216029.5064   25216027.2754
      -268.4534
  -3443219.03849  -2671660.57347  24942966.8264   24942964.5254
      1771.6414
  24872908.88749  19366061.62647  25449332.1074   25449328.5414
     -4748.6874
    402277.47649    312079.79248  22529357.5684   22529353.7404
      -673.3594
 04  9  2 22 37  0.0060000  0  8G19G 3G 8G13G10G28G23G27
  -3347855.04349  -2605385.60647  24271636.0614   24271630.7174
      -180.3594
   4562266.42549   3554716.67547  24948574.7324   24948572.5884
     -2657.8754
  -7724294.81749  -6015270.34948  23011782.7174   23011779.5214
       530.2814
   9623557.55549   7494925.21948  22591687.2324   22591683.0064
     -3115.5944
   -800372.81449   -621147.19347  25216808.0534   25216806.0454
      -277.4844
  -3469769.80249  -2692349.41847  24937913.6784   24937912.0924
      1768.1564
  24944158.78549  19421580.98547  25462889.8654   25462887.0724
     -4751.5164
    412396.90149    319965.08548  22531282.8964   22531279.2254
      -676.1414
 04  9  2 22 37 15.0060000  0  8G19G 3G 8G13G10G28G23G27
  -3345084.89249  -2603227.04147  24272163.2714   24272157.7714
      -188.9694
   4602201.95249   3585835.25147  24956174.2644   24956172.0804
     -2666.8284
  -7732223.76149  -6021448.75448  23010274.0454   23010270.8464
       526.8914
   9670349.09749   7531386.14548  22600591.6234   22600587.2994
     -3123.3444
   -796138.57149   -617847.78647  25217613.8264   25217611.8894
      -287.0004
  -3496262.42949  -2712992.97147  24932873.1004   24932870.7644
      1764.2034
  25015454.70649  19477136.17247  25476457.7564   25476453.7054
     -4754.6414
    422562.63549    327886.43248  22533217.6314   22533213.6034
      -679.2814
 04  9  2 22 37 30.0060000  0  8G19G 3G 8G13G10G28G23G27
  -3342188.84249  -2600970.35447  24272714.5844   24272709.3694
      -197.2974
   4642269.51549   3617056.73747  24963799.5064   24963796.9164
     -2675.5164
  -7740105.19749  -6027590.11148  23008774.0764   23008770.8144
       523.7974
   9717253.10349   7567934.73148  22609516.9594   22609513.0414
     -3130.6874
   -791766.01549   -614440.59947  25218445.7564   25218442.9594
      -296.1254
  -3522699.56949  -2733593.30347  24927842.2174   24927839.8504
      1760.5474
  25086793.55749  19532724.82647  25490032.4044   25490029.2874
     -4757.3914
    432771.83149    335841.65948  22535160.3034   22535156.7954
      -682.0624
 04  9  2 22 37 45.0060000  0  8G19G 3G 8G13G10G28G23G27
  -3339162.89749  -2598612.46047  24273289.7874   24273284.9594
      -205.6414
   4682472.68749   3648383.89147  24971449.2644   24971446.6894
     -2684.3594
  -7747935.29949  -6033691.47848  23007284.0214   23007280.7954
       520.7194
   9764273.36549   7604573.88048  22618464.5684   22618460.1504
     -3138.1094
   -787251.21949   -610922.56847  25219304.7644   25219302.4714
      -305.2974
  -3549077.40849  -2754147.39247  24922822.8894   24922820.6004
      1756.9534
  25158178.95749  19588349.75347  25503616.6154   25503613.4904
     -4760.2504
    443028.51249    343833.89048  22537111.7794   22537108.0964
      -684.9694
 04  9  2 22 38  0.0060000  0  8G19G 3G 8G13G10G28G23G27
  -3336011.93249  -2596157.14347  24273889.5684   24273884.6504
      -214.5164
   4722806.22349   3679812.62147  24979124.6394   24979122.5334
     -2693.5474
  -7755719.07349  -6039756.74548  23005803.1544   23005799.7484
       517.0004
   9811404.72049   7641299.60548  22627433.6234   22627429.1504
     -3146.1724
   -782599.17549   -607297.60647  25220189.9044   25220187.7404
      -315.1564
  -3575400.80349  -2774659.07947  24917813.4754   24917811.0024
      1752.7344
  25229605.58149  19644006.80947  25517209.0294   25517205.7054
     -4763.4374
    453327.52049    351859.09548  22539072.0294   22539068.4284
      -688.3284
 04  9  2 22 38 15.0060000  0  8G19G 3G 8G13G10G28G23G27
  -3332729.13049  -2593599.09747  24274514.5374   24274509.5144
      -223.1564
   4763276.56849   3711347.95847  24986825.7874   24986824.3264
     -2702.4534
  -7763449.70849  -6045780.61048  23004332.0924   23004328.4514
       513.7664
   9858653.54149   7678116.86748  22636424.6544   22636420.3504
     -3153.7194
   -777803.23349   -603560.46747  25221103.2324   25221099.9514
      -324.4694
  -3601662.98749  -2795123.08147  24912816.0924   24912813.0684
      1748.9384
  25301079.70749  19699700.87347  25530810.2324   25530807.0804
     -4766.2344
    463675.57449    359922.52148  22541040.6234   22541037.4634
      -691.3124
 04  9  2 22 38 30.0060000  0  8G19G 3G 8G13G10G28G23G27
  -3329315.87849  -2590939.41147  24275163.9824   24275158.9164
      -232.2344
   4803882.01349   3742988.54947  24994552.9124   24994551.6194
     -2711.9064
  -7771128.78249  -6051764.28548  23002870.4284   23002867.3814
       509.8754
   9906018.32349   7715024.47448  22645438.0064   22645433.7054
     -3161.8914
   -772864.75849   -599712.31947  25222042.7094   25222040.2284
      -334.2974
  -3627865.32049  -2815540.41947  24907829.7874   24907827.3734
      1744.4844
  25372599.71049  19755430.67747  25544420.7644   25544416.9634
     -4769.9064
    474071.15949    368022.98748  22543019.0924   22543015.6664
      -694.9844
 04  9  2 22 38 45.0060000  0  8G19G 3G 8G13G10G28G23G27
  -3325772.18349  -2588178.05747  24275837.8574   24275833.2914
      -240.7194
   4844622.11749   3774734.08247  25002305.8424   25002304.0104
     -2720.5784
  -7778756.58249  -6057708.01748  23001418.9904   23001415.9164
       506.6724
   9953498.54349   7752022.04148  22654473.0294   22654468.6074
     -3169.3284
   -767783.91849   -595753.22747  25223009.9904   25223007.1004
      -343.5784
  -3654007.94749  -2835911.26847  24902855.1004   24902852.1664
      1740.7504
  25444165.01949  19811195.78747  25558038.8424   25558035.8934
     -4772.6254
    484514.15949    376160.40048  22545006.2254   22545002.6194
      -697.9224
 04  9  2 22 39  0.0060000  0  8G19G 3G 8G13G10G28G23G27
  -3322100.12949  -2585316.70547  24276536.9824   24276531.8464
      -248.7974
   4885494.47349   3806582.67747  25010084.0144   25010081.2914
     -2729.0314
  -7786335.36649  -6063613.54748  22999976.8034   22999973.3264
       503.8594
  10001091.90249   7789107.78048  22663529.7174   22663525.4434
     -3176.4224
   -762562.89849   -591684.89647  25224003.0924   25224001.1624
      -352.4374
  -3680092.88249  -2856237.16147  24897891.4754   24897888.3224
      1737.2664
  25515773.21249  19866994.30247  25571665.4434   25571661.9474
     -4775.0624
    495002.19749    384332.90148  22547001.9674   22546998.7524
      -700.4374
 04  9  2 22 39 15.0060000  0  8G19G 3G 8G13G10G28G23G27
  -3318298.88649  -2582354.68147  24277260.1394   24277255.2754
      -257.8284
   4926499.55449   3838534.67847  25017886.3654   25017884.8384
     -2738.2194
  -7793864.28749  -6069480.23048  22998544.0214   22998540.6704
       500.2034
  10048798.92149   7826282.06148  22672608.0454   22672603.9514
     -3184.3124
   -757201.09349   -587506.85347  25225023.5064   25225021.4324
      -362.1254
  -3706119.45449  -2876517.54947  24892938.7324   24892935.4594
      1733.0314
  25587424.66849  19922826.54347  25585300.4124   25585297.1704
     -4778.2504
    505536.08849    392541.13648  22549006.6624   22549002.7134
      -703.8444
 04  9  2 22 39 30.0060000  0  8G19G 3G 8G13G10G28G23G27
  -3314366.74249  -2579290.66347  24278009.0294   24278003.3184
      -266.6874
   4967638.68849   3870591.14847  25025714.9514   25025712.0764
     -2747.3284
  -7801341.71549  -6075306.77948  22997121.0534   22997117.8964
       496.5314
  10096621.01349   7863546.02848  22681708.3574   22681704.1974
     -3192.2194
   -751696.98849   -583217.92447  25226070.6934   25226068.6664
      -371.9224
  -3732085.95349  -2896751.14547  24887997.6464   24887994.0884
      1728.8134
  25659120.63749  19978693.50147  25598943.2714   25598940.1824
     -4781.4374
    516117.40049    400786.31448  22551020.3654   22551015.9784
      -707.2814
 04  9  2 22 39 45.0060000  0  8G19G 3G 8G13G10G28G23G27
  -3310304.96749  -2576125.62347  24278781.3894   24278776.2174
      -275.3444
   5008910.18749   3902750.76047  25033568.7404   25033565.7644
     -2756.0474
  -7808769.40449  -6081094.58248  22995708.0144   22995704.2794
       493.3134
  10144556.55549   7900898.38148  22690830.2254   22690825.5614
     -3199.6564
   -746051.85649   -578819.11547  25227144.7564   25227142.2834
      -381.2504
  -3757993.70049  -2916938.94047  24883066.7794   24883063.9434
      1725.0314
  25730859.40949  20034593.74747  25612594.6464   25612591.8894
     -4784.2504
    526744.53749    409067.20348  22553042.7174   22553038.7954
      -710.2034
 04  9  2 22 40  0.0060000  0  8G19G 3G 8G13G10G28G23G27
  -3306108.46049  -2572855.59947  24279580.0294   24279575.1704
      -283.8124
   5050318.93649   3935017.31447  25041448.5454   25041446.0534
     -2764.7344
  -7816142.22349  -6086839.61848  22994304.5374   22994301.1314
       490.1414
  10192610.39349   7938342.93948  22699974.4594   22699970.5684
     -3207.0624
   -740260.76049   -574306.59147  25228247.3344   25228244.7714
      -390.4374
  -3783837.58649  -2937076.97747  24878148.7874   24878146.0024
      1721.2664
  25802645.80049  20090531.13247  25626255.2874   25626252.1894
     -4786.8444
    537422.75749    417387.90848  22555074.3654   22555070.5924
      -713.0944
 04  9  2 22 40 15.0060000  0  8G19G 3G 8G13G10G28G23G27
  -3301788.27249  -2569489.18947  24280402.0214   24280396.7214
      -292.4064
   5091853.47449   3967381.88347  25049352.4434   25049349.9394
     -2773.3444
  -7823471.25949  -6092550.54548  22992909.8654   22992906.6934
       486.9844
  10240771.19449   7975870.82348  22709139.0294   22709134.9514
     -3214.5164
   -734334.82749   -569688.94447  25229374.5844   25229371.6464
      -399.6724
  -3809628.56549  -2957173.80647  24873240.5214   24873237.9084
      1717.4224
  25874468.43749  20146496.78747  25639923.1154   25639919.3854
     -4789.5624
    548140.75749    425739.61848  22557113.9824   22557110.1274
      -716.1254
 04  9  2 22 40 30.0060000  0  8G19G 3G 8G13G10G28G23G27
  -3297336.26749  -2566020.08447  24281249.3574   24281243.9864
      -300.9374
   5133521.40149   3999850.38347  25057281.5684   25057279.5574
     -2782.0624
  -7830748.53449  -6098221.14248  22991525.2714   22991521.8894
       483.6094
  10289046.65449   8013488.05848  22718325.8344   22718321.8694
     -3222.0164
   -728266.08149   -564960.07647  25230529.1234   25230527.4204
      -409.1094
  -3835358.64349  -2977223.16547  24868345.1934   24868342.5964
      1713.4844
  25946334.73149  20202496.41247  25653598.8574   25653595.2604
     -4792.3284
    558906.43349    434128.45548  22559162.6864   22559158.8574
      -719.0944
 04  9  2 22 40 45.0060000  0  8G19G 3G 8G13G10G28G23G27
  -3292750.56449  -2562446.80147  24282121.9364   24282117.0334
      -310.0474
   5175324.40649   4032424.17047  25065236.3034   25065234.1354
     -2791.1874
  -7837972.28649  -6103850.02148  22990150.7874   22990147.1704
       479.9224
  10337438.42949   8051195.91748  22727534.6234   22727530.4514
     -3229.8914
   -722052.71249   -560118.45847  25231711.2714   25231709.5374
      -418.8754
  -3861025.99649  -2997223.64647  24863460.2174   24863457.9784
      1709.1254
  26018246.29449  20258531.29947  25667283.6074   25667280.2914
     -4795.5004
    569721.59349    442555.85648  22561220.4364   22561217.5184
      -722.5314
 04  9  2 22 41  0.0060000  0  8G19G 3G 8G13G10G28G23G27
  -3288038.20149  -2558774.80847  24283018.4594   24283013.8074
      -318.6874
   5217255.07849   4065097.42247  25073215.3504   25073213.5254
     -2799.8754
  -7845149.65449  -6109442.76848  22988784.6784   22988781.1624
       476.7034
  10385939.18849   8088988.71348  22736763.7324   22736759.8814
     -3237.2344
   -715701.74449   -555169.65847  25232920.7484   25232917.8074
      -428.1724
  -3886637.66949  -3017180.75147  24858586.5844   24858584.0844
      1705.3754
  26090195.79149  20314595.77447  25680974.7564   25680971.2444
     -4798.1874
    580579.17349    451016.31448  22563286.9124   22563282.8854
      -725.4694
 04  9  2 22 41 15.0060000  0  8G19G 3G 8G13G10G28G23G27
  -3283193.53649  -2554999.71847  24283940.3814   24283935.2364
      -327.4694
   5259318.61749   4097874.18847  25081220.0534   25081217.2134
     -2808.6414
  -7852275.15349  -6114995.09248  22987428.4674   22987425.6504
       473.2034
  10434554.21449   8126870.55148  22746014.9124   22746010.8854
     -3244.8914
   -709207.75449   -550109.41347  25234156.1624   25234153.8614
      -437.9064
  -3912188.11749  -3037090.14647  24853724.1864   24853721.8694
      1701.2664
  26162188.32049  20370693.79447  25694674.6074   25694671.6974
     -4801.0624
    591484.61649    459514.07148  22565362.4124   22565358.9714
      -728.7194
 04  9  2 22 41 30.0060000  0  8G19G 3G 8G13G10G28G23G27
  -3278221.48149  -2551125.36747  24284886.8114   24284881.6234
      -336.2034
   5301509.81049   4130750.44247  25089248.9824   25089245.4944
     -2817.4224
  -7859353.78149  -6120510.89248  22986081.9044   22986078.3894
       469.8284
  10483278.41349   8164837.44748  22755287.0614   22755283.0294
     -3252.3754
   -702575.83749   -544941.68647  25235418.1004   25235415.4594
      -447.2034
  -3937682.31049  -3056955.71047  24848872.4754   24848870.3574
      1697.3284
  26234218.53849  20426821.14247  25708381.6864   25708378.1894
     -4803.7344
    602432.81649    468045.13948  22567445.7324   22567442.0684
      -731.7664
